[[{"header":{"parameterUnit":"m.s-1","parameterCategory":1,"la1":30.6,"la2":28.766,"lo1":-90.7593,"lo2":-88.6598,"dy":0.0162,"dx":0.0183,"nx":116,"ny":114,"refTime":"2024-06-14T00:00:00:Z","depth":0,"parameterNumber":2,"parameterNumberName":"U-component_of_WINDS"},"data":[0.0,0.0,0.0,0.0,0.0,0.0,0.0,0.0,0.0,0.0,0.0,0.0,0.0,0.0,0.0,0.0,0.0,0.0,0.0,0.0,0.0,0.0,0.0,0.0,0.0,0.0,0.0,0.0,0.0,0.0,0.0,0.0,0.0,0.0,0.0,0.0,0.0,0.0,0.0,0.0,0.0,0.0,0.0,0.0,0.0,0.0,0.0,0.0,0.0,0.0,0.0,0.0,0.0,0.0,0.0,0.0,0.0,0.0,0.0,0.0,0.0,0.0,0.0,0.0,0.0,0.0,0.0,0.0,0.0,0.0,0.0,0.0,0.0,0.0,0.0,0.0,0.0,0.0,0.0,0.0,0.0,0.0,0.0,0.0,0.0,0.0,0.0,0.0,0.0,0.0,0.0,0.0,0.0,0.0,0.0,0.0,0.0,0.0,0.0,0.0,0.0,0.0,0.0,0.0,0.0,0.0,0.0,0.0,0.0,0.0,0.0,0.0,0.0,0.0,0.0,0.0,0.0,0.0,0.0,0.0,0.0,0.0,0.0,0.0,0.0,0.0,0.0,0.0,0.0,0.0,0.0,0.0,0.0,0.0,0.0,0.0,0.0,0.0,0.0,0.0,0.0,0.0,0.0,0.0,0.0,0.0,0.0,0.0,0.0,0.0,0.0,0.0,0.0,0.0,0.0,0.0,0.0,0.0,0.0,0.0,0.0,0.0,0.0,0.0,0.0,0.0,0.0,0.0,0.0,0.0,0.0,0.0,0.0,0.0,0.0,0.0,0.0,0.0,0.0,0.0,0.0,0.0,0.0,0.0,0.0,0.0,0.0,0.0,0.0,0.0,0.0,0.0,0.0,0.0,0.0,0.0,0.0,0.0,0.0,0.0,0.0,0.0,0.0,0.0,0.0,0.0,0.0,0.0,0.0,0.0,0.0,0.0,0.0,0.0,0.0,0.0,0.0,0.0,0.0,0.0,0.0,0.0,0.0,0.0,0.0,0.0,0.0,0.0,0.0,0.0,0.0,0.0,0.0,0.0,0.0,0.0,0.0,0.0,0.0,0.0,0.0,0.0,0.0,0.0,0.0,0.0,0.0,0.0,0.0,0.0,0.0,0.0,0.0,0.0,0.0,0.0,0.0,0.0,0.0,0.0,0.0,0.0,0.0,0.0,0.0,0.0,0.0,0.0,0.0,0.0,0.0,0.0,0.0,0.0,0.0,0.0,0.0,0.0,0.0,0.0,0.0,0.0,0.0,0.0,0.0,0.0,0.0,0.0,0.0,0.0,0.0,0.0,0.0,0.0,0.0,0.0,0.0,0.0,0.0,0.0,0.0,0.0,0.0,0.0,0.0,0.0,0.0,0.0,0.0,0.0,0.0,0.0,0.0,0.0,0.0,0.0,0.0,0.0,0.0,0.0,0.0,0.0,0.0,0.0,0.0,0.0,0.0,0.0,0.0,0.0,0.0,0.0,0.0,0.0,0.0,0.0,0.0,0.0,0.0,0.0,0.0,0.0,0.0,0.0,0.0,0.0,0.0,0.0,0.0,0.0,0.0,0.0,0.0,0.0,0.0,0.0,0.0,0.0,0.0,0.0,0.0,0.0,0.0,0.0,0.0,0.0,0.0,0.0,0.0,0.0,0.0,0.0,0.0,0.0,0.0,0.0,0.0,0.0,0.0,0.0,0.0,0.0,0.0,0.0,0.0,0.0,0.0,0.0,0.0,0.0,0.0,0.0,0.0,0.0,0.0,0.0,0.0,0.0,0.0,0.0,0.0,0.0,0.0,0.0,0.0,0.0,0.0,0.0,0.0,0.0,0.0,0.0,0.0,0.0,0.0,0.0,0.0,0.0,0.0,0.0,0.0,0.0,0.0,0.0,0.0,0.0,0.0,0.0,0.0,0.0,0.0,0.0,0.0,0.0,0.0,0.0,0.0,0.0,0.0,0.0,0.0,0.0,0.0,0.0,0.0,0.0,0.0,0.0,0.0,0.0,0.0,0.0,0.0,0.0,0.0,0.0,0.0,0.0,0.0,0.0,0.0,0.0,0.0,0.0,0.0,0.0,0.0,0.0,0.0,0.0,0.0,0.0,0.0,0.0,0.0,0.0,0.0,0.0,0.0,0.0,0.0,0.0,0.0,0.0,0.0,0.0,0.0,0.0,0.0,0.0,0.0,0.0,0.0,0.0,0.0,0.0,0.0,0.0,0.0,0.0,0.0,0.0,0.0,0.0,0.0,0.0,0.0,0.0,0.0,0.0,0.0,0.0,0.0,0.0,0.0,0.0,0.0,0.0,0.0,0.0,0.0,0.0,0.0,0.0,0.0,0.0,0.0,0.0,0.0,0.0,0.0,0.0,0.0,0.0,0.0,0.0,0.0,0.0,0.0,0.0,0.0,0.0,0.0,0.0,0.0,0.0,0.0,0.0,0.0,0.0,0.0,0.0,0.0,0.0,0.0,0.0,0.0,0.0,0.0,0.0,0.0,0.0,0.0,0.0,0.0,0.0,0.0,0.0,0.0,0.0,0.0,0.0,0.0,0.0,0.0,0.0,0.0,0.0,0.0,0.0,0.0,0.0,0.0,0.0,0.0,0.0,0.0,0.0,0.0,0.0,0.0,0.0,0.0,0.0,0.0,0.0,0.0,0.0,0.0,0.0,0.0,0.0,0.0,0.0,0.0,0.0,0.0,0.0,0.0,0.0,0.0,0.0,0.0,0.0,0.0,0.0,0.0,0.0,0.0,0.0,0.0,0.0,0.0,0.0,0.0,0.0,0.0,0.0,0.0,0.0,0.0,0.0,0.0,0.0,0.0,0.0,0.0,0.0,0.0,0.0,0.0,0.0,0.0,0.0,0.0,0.0,0.0,0.0,0.0,0.0,0.0,0.0,0.0,0.0,0.0,0.0,0.0,0.0,0.0,0.0,0.0,0.0,0.0,0.0,0.0,0.0,0.0,0.0,0.0,0.0,0.0,0.0,0.0,0.0,0.0,0.0,0.0,0.0,0.0,0.0,0.0,0.0,0.0,0.0,0.0,0.0,0.0,0.0,0.0,0.0,0.0,0.0,0.0,0.0,0.0,0.0,0.0,0.0,0.0,0.0,0.0,0.0,0.0,0.0,0.0,0.0,0.0,0.0,0.0,0.0,0.0,0.0,0.0,0.0,0.0,0.0,0.0,0.0,0.0,0.0,0.0,0.0,0.0,0.0,0.0,0.0,0.0,0.0,0.0,0.0,0.0,0.0,0.0,0.0,0.0,0.0,0.0,0.0,0.0,0.0,0.0,0.0,0.0,0.0,0.0,0.0,0.0,0.0,0.0,0.0,0.0,0.0,0.0,0.0,0.0,0.0,0.0,0.0,0.0,0.0,0.0,0.0,0.0,0.0,0.0,0.0,0.0,0.0,0.0,0.0,0.0,0.0,0.0,0.0,0.0,0.0,0.0,0.0,0.0,0.0,0.0,0.0,0.0,0.0,0.0,0.0,0.0,0.0,0.0,0.0,0.0,0.0,0.0,0.0,0.0,0.0,0.0,0.0,0.0,0.0,0.0,0.0,0.0,0.0,0.0,0.0,0.0,0.0,0.0,0.0,0.0,0.0,0.0,0.0,0.0,0.0,0.0,0.0,0.0,0.0,0.0,0.0,0.0,0.0,0.0,0.0,0.0,0.0,0.0,0.0,0.0,0.0,0.0,0.0,0.0,0.0,0.0,0.0,0.0,0.0,0.0,0.0,0.0,0.0,0.0,0.0,0.0,0.0,0.0,0.0,0.0,0.0,0.0,0.0,0.0,0.0,0.0,0.0,0.0,0.0,0.0,0.0,0.0,0.0,0.0,0.0,0.0,0.0,0.0,0.0,0.0,0.0,0.0,0.0,0.0,0.0,0.0,0.0,0.0,0.0,0.0,0.0,0.0,0.0,0.0,0.0,0.0,0.0,0.0,0.0,0.0,0.0,0.0,0.0,0.0,0.0,0.0,0.0,0.0,0.0,0.0,0.0,0.0,0.0,0.0,0.0,0.0,0.0,0.0,0.0,0.0,0.0,0.0,0.0,0.0,0.0,0.0,0.0,0.0,0.0,0.0,0.0,0.0,0.0,0.0,0.0,0.0,0.0,0.0,0.0,0.0,0.0,0.0,0.0,0.0,0.0,0.0,0.0,0.0,0.0,0.0,0.0,0.0,0.0,0.0,0.0,0.0,0.0,0.0,0.0,0.0,0.0,0.0,0.0,0.0,0.0,0.0,0.0,0.0,0.0,0.0,0.0,0.0,0.0,0.0,0.0,0.0,0.0,0.0,0.0,0.0,0.0,0.0,0.0,0.0,0.0,0.0,0.0,0.0,0.0,0.0,0.0,0.0,0.0,0.0,0.0,0.0,0.0,0.0,0.0,0.0,0.0,0.0,0.0,0.0,0.0,0.0,0.0,0.0,0.0,0.0,0.0,0.0,0.0,0.0,0.0,0.0,0.0,0.0,0.0,0.0,0.0,0.0,0.0,0.0,0.0,0.0,0.0,0.0,0.0,0.0,0.0,0.0,0.0,0.0,0.0,0.0,0.0,0.0,0.0,0.0,0.0,0.0,0.0,0.0,0.0,0.0,0.0,0.0,0.0,0.0,0.0,0.0,0.0,0.0,0.0,0.0,0.0,0.0,0.0,0.0,0.0,0.0,0.0,0.0,0.0,0.0,0.0,0.0,0.0,0.0,0.0,0.0,0.0,0.0,0.0,0.0,0.0,0.0,0.0,0.0,0.0,0.0,0.0,0.0,0.0,0.0,0.0,0.0,0.0,0.0,0.0,0.0,0.0,0.0,0.0,0.0,0.0,0.0,0.0,0.0,0.0,0.0,0.0,0.0,0.0,0.0,0.0,0.0,0.0,0.0,0.0,0.0,0.0,0.0,0.0,0.0,0.0,0.0,0.0,0.0,0.0,0.0,0.0,0.0,0.0,0.0,0.0,0.0,0.0,0.0,0.0,0.0,0.0,0.0,0.0,0.0,0.0,0.0,0.0,0.0,0.0,0.0,0.0,0.0,0.0,0.0,0.0,0.0,0.0,0.0,0.0,0.0,0.0,0.0,0.0,0.0,0.0,0.0,0.0,0.0,0.0,0.0,0.0,0.0,0.0,0.0,0.0,0.0,0.0,0.0,0.0,0.0,0.0,0.0,0.0,0.0,0.0,0.0,0.0,0.0,0.0,0.0,0.0,0.0,0.0,0.0,0.0,0.0,0.0,0.0,0.0,0.0,0.0,0.0,0.0,0.0,0.0,0.0,0.0,0.0,0.0,0.0,0.0,0.0,0.0,0.0,0.0,0.0,0.0,0.0,0.0,0.0,0.0,0.0,0.0,0.0,0.0,0.0,0.0,0.0,0.0,0.0,0.0,0.0,0.0,0.0,0.0,0.0,0.0,0.0,0.0,0.0,0.0,0.0,0.0,0.0,0.0,0.0,0.0,0.0,0.0,0.0,0.0,0.0,0.0,0.0,0.0,0.0,0.0,0.0,0.0,0.0,0.0,0.0,0.0,0.0,0.0,0.0,0.0,0.0,0.0,0.0,0.0,0.0,0.0,0.0,0.0,0.0,0.0,0.0,0.0,0.0,0.0,0.0,0.0,0.0,0.0,0.0,0.0,0.0,0.0,0.0,0.0,0.0,0.0,0.0,0.0,0.0,0.0,0.0,0.0,0.0,0.0,0.0,0.0,0.0,0.0,0.0,0.0,0.0,0.0,0.0,0.0,0.0,0.0,0.0,0.0,0.0,0.0,0.0,0.0,0.0,0.0,0.0,0.0,0.0,0.0,0.0,0.0,0.0,0.0,0.0,0.0,0.0,0.0,0.0,0.0,0.0,0.0,0.0,0.0,0.0,0.0,0.0,0.0,0.0,0.0,0.0,0.0,0.0,0.0,0.0,0.0,0.0,0.0,0.0,0.0,0.0,0.0,0.0,0.0,0.0,0.0,0.0,0.0,0.0,0.0,0.0,0.0,0.0,0.0,0.0,0.0,0.0,0.0,0.0,0.0,0.0,0.0,0.0,0.0,0.0,0.0,0.0,0.0,0.0,0.0,0.0,0.0,0.0,0.0,0.0,0.0,0.0,0.0,0.0,0.0,0.0,0.0,0.0,0.0,0.0,0.0,0.0,0.0,0.0,0.0,0.0,0.0,0.0,0.0,0.0,0.0,0.0,0.0,0.0,0.0,0.0,0.0,0.0,0.0,0.0,0.0,0.0,0.548,0.5839,0.613,0.6186,0.6343,0.6602,0.0,0.0,0.0,0.0,0.0,0.591,0.5905,0.6078,0.6453,0.6678,0.7124,0.778,0.7491,0.7117,0.6681,0.0,0.0,0.0,0.0,0.0,0.0,0.0,0.0,0.0,0.0,0.0,0.0,0.0,0.0,0.0,0.0,0.0,0.0,0.0,0.0,0.0,0.0,0.0,0.0,0.0,0.0,0.0,0.0,0.0,0.0,0.0,0.0,0.0,0.0,0.0,0.0,0.0,0.0,0.0,0.0,0.0,0.0,0.0,0.0,0.0,0.0,0.0,0.0,0.0,0.0,0.0,0.0,0.0,0.0,0.0,0.0,0.0,0.0,0.0,0.0,0.0,0.0,0.0,0.0,0.0,0.0,0.0,0.0,0.0,0.0,-0.0211,0.0,0.0,0.0,0.0,0.0,0.0,0.0,0.0,0.0,0.0,0.0,0.0,0.0,0.0,0.0,0.0,0.0,0.0,0.0,0.0,0.0,0.0,0.4702,0.4658,0.4877,0.5261,0.5804,0.5701,0.5769,0.6203,0.5902,0.0,0.0,0.5631,0.5542,0.5424,0.5491,0.5725,0.6122,0.6742,0.7513,0.8407,0.8433,0.8065,0.7362,0.7228,0.0,0.0,0.0,0.0,0.0,0.0,0.0,0.0,0.0,0.0,0.0,0.0,0.0,0.0,0.0,0.0,0.0,0.0,0.0,0.0,0.0,0.0,0.0,0.0,0.0,0.0,0.0,0.0,0.0,0.0,0.0,0.0,0.0,0.0,0.0,0.0,0.0,0.0,0.0,0.0,0.0,0.0,0.0,0.0,0.0,0.0,0.0,0.0,0.0,0.0,0.0,0.0,0.0,0.0,0.0,0.0,0.0,0.0,0.0,0.0,0.0,0.0,0.0,-0.14,-0.1427,-0.1401,-0.142,-0.1519,-0.161,-0.0779,-0.0335,-0.0252,-0.0248,0.0,0.0,0.0,0.0,0.0,0.0,0.0,0.0,0.0,0.0,0.0,0.0,0.0,0.0,0.0,0.0,0.0,0.0,0.0,0.3725,0.3979,0.451,0.4959,0.5275,0.5427,0.5552,0.5604,0.4934,0.452,0.452,0.4188,0.3989,0.3978,0.4266,0.4749,0.5422,0.6616,0.7484,0.8078,0.8129,0.8277,0.8471,0.8341,0.8007,0.7498,0.0,0.0,0.0,0.0,0.0,0.0,0.0,0.0,0.0,0.0,0.0,0.0,0.0,0.0,0.0,0.0,0.0,0.0,0.0,0.0,0.0,0.0,0.0,0.0,0.0,0.0,0.0,0.0,0.0,0.0,0.0,0.0,0.0,0.0,0.0,0.0,0.0,0.0,0.0,0.0,0.0,-0.0119,-0.0396,0.0,0.0,0.0,0.0,0.0,0.0,0.0,0.0,0.0,0.0,0.0,0.0,0.0,-0.1211,-0.1213,-0.1326,-0.1391,-0.1368,-0.147,-0.15,-0.1503,-0.1491,-0.1726,-0.2169,-0.2064,0.0,-0.1315,-0.1233,0.0,0.0,0.0,0.0,0.0,0.0,0.0,0.0,0.0,0.0,0.0,0.0,0.0,0.0,0.0,0.0,0.0,0.0,0.0,0.0,0.0,0.3472,0.3949,0.4631,0.4455,0.4388,0.4532,0.3908,0.3424,0.3252,0.3075,0.2974,0.2974,0.3307,0.4076,0.5296,0.6171,0.6933,0.7614,0.7664,0.7812,0.7961,0.788,0.7823,0.7763,0.6954,0.0,0.0,0.0,0.0,0.0,0.0,0.0,0.0,0.0,0.0,0.0,0.0,0.0,0.0,0.0,0.0,0.0,0.0,0.0,0.0,0.0,0.0,0.0,0.0,0.0,0.0,0.0,0.0,0.0,0.0,0.0,0.0,0.0,0.0,0.0,0.0,0.0,0.0,0.0,-0.0636,-0.0734,-0.0874,-0.1084,-0.1281,0.0,0.0,0.0,0.0,0.0,0.0,0.0,0.0,0.0,-0.1749,-0.2236,-0.2512,-0.2528,-0.2851,-0.3036,-0.3029,-0.308,-0.3189,-0.3226,-0.3256,-0.3382,-0.3652,-0.363,-0.3533,-0.3271,-0.2624,-0.243,-0.2507,0.0,0.0,0.0,0.0,-0.2385,-0.257,0.0,0.0,0.0,0.0,0.0,0.0,0.0,0.0,0.0,0.0,0.0,0.0,0.2205,0.2418,0.286,0.3692,0.3349,0.3167,0.3393,0.2834,0.2375,0.212,0.2029,0.2002,0.1984,0.242,0.3274,0.4595,0.5115,0.5729,0.6434,0.652,0.6599,0.6701,0.6504,0.6814,0.7418,0.6446,0.5741,0.5165,0.0,0.0,0.0,0.0,0.0,0.0,0.0,0.0,0.0,0.0,0.0,0.0,0.0,0.0,0.0,0.0,0.0,0.0,0.0,0.0,0.0,0.0,0.0,0.0,0.0,0.0,0.0,0.0,0.0,0.0,0.0,0.0,0.0,0.0,0.0,0.0,0.0,-0.1434,-0.1563,-0.1683,-0.2065,-0.2349,0.0,0.0,0.0,0.0,0.0,0.0,-0.1825,-0.2305,-0.259,-0.2663,-0.329,-0.3766,-0.3945,-0.4359,-0.4617,-0.4803,-0.486,-0.4945,-0.5015,-0.5074,-0.517,-0.5338,-0.5298,-0.5399,-0.5411,-0.4049,-0.3575,-0.3731,-0.3479,-0.3711,-0.4142,-0.3728,-0.381,-0.4178,0.0,0.0,0.0,0.0,0.0,0.0,0.0,0.0,0.0,0.0,0.0,0.0899,0.1234,0.1568,0.1901,0.2283,0.2292,0.2255,0.2281,0.1721,0.1366,0.137,0.1045,0.0879,0.0894,0.159,0.2189,0.2629,0.313,0.3613,0.4064,0.419,0.4477,0.4812,0.4307,0.4808,0.6072,0.5558,0.4817,0.3907,0.3099,0.0,0.0,0.0,0.0,0.0,0.0,0.0,0.0,0.0,0.0,0.0,0.0,0.0,0.0,0.0,0.0,0.0,0.0,0.0,0.0,0.0,0.0,0.0,0.0,0.0,0.0,0.0,0.0,0.0,0.0,0.0,0.0,0.0,0.0,0.0,0.0,0.0,0.0,-0.2941,-0.3488,0.0,0.0,0.0,0.0,-0.3831,-0.3766,-0.364,-0.3318,-0.3802,-0.4105,-0.4193,-0.4287,-0.462,-0.5213,-0.5228,-0.5516,-0.6085,-0.6162,-0.6223,-0.6231,-0.6283,-0.6558,-0.6957,-0.7003,-0.7248,-0.758,-0.5403,-0.4482,-0.4443,-0.435,-0.4611,-0.5054,-0.5066,-0.5469,-0.598,0.0,0.0,0.0,0.0,0.0,0.1065,0.0801,0.0615,0.0486,0.0375,0.0284,0.0354,0.0641,0.0836,0.1121,0.1629,0.1518,0.1428,0.1442,0.103,0.0682,0.0485,0.0344,0.0382,0.0615,0.0897,0.1367,0.1988,0.2197,0.2521,0.292,0.3034,0.313,0.3286,0.3052,0.3081,0.331,0.3711,0.3816,0.3624,0.2795,0.2369,0.0,0.0,0.0,0.0,0.0,0.0,0.0,0.0,0.0,0.0,0.0,0.0,0.0,0.0,0.0,0.0,0.0,0.0,0.0,0.0,0.0,0.0,0.0,0.0,0.0,0.0,0.0,0.0,0.0,0.0,0.0,0.0,0.0,0.0,0.0,0.0,0.0,-0.3635,-0.4366,0.0,-0.4931,-0.5294,-0.5333,-0.4941,-0.4728,-0.4595,-0.4548,-0.5073,-0.5507,-0.5881,-0.6261,-0.6568,-0.6845,-0.6866,-0.703,-0.7295,-0.7339,-0.7431,-0.7521,-0.7543,-0.7682,-0.788,-0.788,-0.7981,-0.8079,-0.7292,-0.686,-0.6627,-0.6603,-0.6646,-0.678,-0.6848,-0.6999,-0.7195,0.0,0.0,0.0,0.0,0.0884,0.0515,0.0243,0.0209,0.0152,0.0023,0.0,0.008,0.0251,0.0302,0.0508,0.0902,0.0758,0.0659,0.0669,0.0441,0.0247,0.0,0.0,0.0095,0.0337,0.0393,0.0632,0.1143,0.1186,0.1327,0.1608,0.1621,0.1667,0.1667,0.1613,0.1515,0.1449,0.2004,0.2425,0.266,0.2071,0.1765,0.162,0.0,0.0,0.0,0.0,0.0,0.0,0.0,0.0,0.0,0.0,0.0,0.0,0.0,0.0,0.0,0.0,0.0,0.0,0.0,0.0,0.0,0.0,0.0,0.0,0.0,0.0,0.0,0.0,0.0,0.0,0.0,0.0,0.0,0.0,-0.4722,-0.4725,-0.4454,-0.536,-0.5969,-0.5903,-0.6375,-0.6594,-0.641,-0.6045,-0.5904,-0.6005,-0.6368,-0.6774,-0.7171,-0.7524,-0.79,-0.8147,-0.82,-0.8367,-0.8599,-0.86,-0.868,-0.8782,-0.8782,-0.8815,-0.8866,-0.8866,-0.8965,-0.912,-0.912,-0.9108,-0.9004,-0.824,-0.7987,-0.8122,-0.82,-0.8327,-0.8486,0.0,0.0,0.0,0.0668,0.0255,0.0,0.0,0.0,0.0,0.0,0.0,0.0,0.0,0.0,0.0,0.0,0.0,0.0,0.0,0.0,0.0,0.0,0.0,0.0,0.0,0.0,0.0,0.0,0.0,0.0,0.0,0.0,0.0,0.0,0.0,0.0204,0.057,0.0563,0.072,0.0965,0.0937,0.0855,0.0798,0.0,0.0,0.0,0.0,0.0,0.0,0.0,0.0,0.0,0.0,0.0,0.0,0.0,0.0,0.0,0.0,0.0,0.0,0.0,0.0,0.0,0.0,0.0,0.0,0.0,0.0,0.0,0.0,0.0,0.0,0.0,0.0,0.0,-0.5733,-0.5535,-0.5462,-0.5525,-0.6526,-0.7204,-0.7129,-0.7632,-0.7982,-0.811,-0.7731,-0.7578,-0.7611,-0.7759,-0.7876,-0.7956,-0.8025,-0.8385,-0.9099,-0.915,-0.94,-0.9955,-0.9955,-0.9959,-0.9959,-0.9959,-0.9959,-0.9959,-0.9959,-1.0269,-1.0828,-1.0828,-1.1137,-1.1386,-0.9184,-0.8597,-0.8996,-0.9123,-0.9459,-0.9922,0.0,0.0,0.0707,0.0432,0.0179,0.0,0.0,0.0,0.0,0.0,0.0,0.0,0.0,0.0,0.0,0.0,0.0,0.0,0.0,0.0,0.0,0.0,0.0,0.0,0.0,0.0,0.0,0.0,0.0,0.0,0.0,0.0,0.0,0.0,0.0,0.0042,0.0167,0.0165,0.02,0.0306,0.0843,0.1009,0.0921,0.0,0.0,0.0,0.0,0.0,0.0,0.0,0.0,0.0,0.0,0.0,0.0,0.0,0.0,0.0,0.0,0.0,0.0,0.0,0.0,0.0,0.0,0.0,0.0,0.0,0.0,0.0,0.0,0.0,0.0,0.0,-0.7148,-0.7119,-0.6123,-0.6453,-0.6669,-0.6422,-0.7391,-0.8046,-0.8024,-0.8466,-0.8657,-0.8408,-0.8291,-0.8318,-0.8461,-0.8568,-0.8813,-0.9248,-0.9334,-0.9455,-0.9657,-1.0115,-1.0415,-1.0618,-1.1086,-1.1279,-1.1352,-1.1352,-1.1352,-1.1352,-1.1352,-1.1457,-1.161,-1.161,-1.1663,-1.1749,-1.0949,-1.0761,-1.0846,-1.0924,-1.0984,-1.1138,0.0,0.0637,0.0414,0.0219,0.0081,0.0,0.0,0.0,0.0,0.0,0.0,0.0,0.0,0.0,0.0,0.0,0.0,0.0,0.0,0.0,0.0,0.0,0.0,0.0,0.0,0.0,0.0,0.0,0.0,0.0,0.0,0.0,0.0,0.0,0.0,0.0,0.0,0.0,0.0,0.0041,0.0473,0.0601,0.0568,0.0381,0.0268,0.0225,0.0063,0.0,-0.003,-0.0207,0.0,0.0,0.0,0.0,0.0,0.0,0.0,0.0,0.0,0.0,0.0,0.0,0.0,0.0,0.0,0.0,0.0,0.0,0.0,0.0,0.0,0.0,0.0,0.0,-0.7626,-0.7602,-0.689,-0.72,-0.7409,-0.7202,-0.7973,-0.8532,-0.8532,-0.8964,-0.9161,-0.8991,-0.9003,-0.9077,-0.9252,-0.9311,-0.953,-0.9922,-1.0186,-1.0336,-1.0374,-1.0943,-1.1284,-1.1343,-1.1658,-1.1849,-1.1911,-1.1911,-1.1911,-1.1911,-1.1911,-1.2017,-1.2281,-1.2281,-1.2387,-1.253,0.0,0.0,0.0,0.0,-1.1852,-1.2021,0.0,0.0349,0.0218,0.0041,0.0,0.0,0.0,0.0,0.0,0.0,0.0,0.0,0.0,0.0,0.0,0.0,0.0,0.0,0.0,0.0,0.0,0.0,0.0,0.0,0.0,0.0,0.0,0.0,0.0,0.0,0.0,0.0,0.0,0.0,-0.0044,-0.0087,-0.0087,-0.0129,-0.0171,-0.0169,-0.0167,-0.008,0.0,-0.0075,-0.0073,-0.0069,-0.0139,-0.017,-0.0266,-0.0623,0.0,0.0,0.0,0.0,0.0,0.0,0.0,0.0,0.0,0.0,0.0,0.0,0.0,0.0,0.0,0.0,0.0,0.0,0.0,0.0,0.0,0.0,0.0,0.0,-0.808,-0.8177,-0.7924,-0.79,-0.7934,-0.7897,-0.8461,-0.8807,-0.8818,-0.9207,-0.9526,-0.9697,-0.971,-0.9787,-1.001,-1.0019,0.0,0.0,0.0,-1.108,-1.117,-1.1752,-1.2017,-1.2017,-1.207,-1.207,-1.207,-1.207,-1.207,-1.207,-1.2137,-1.2407,-1.2883,-1.2946,-1.3222,-1.3534,-1.2503,-1.207,-1.207,-1.207,-1.2375,-1.2813,0.0,0.008,0.004,0.0,0.0,0.0,0.0,0.0,0.0,0.0,0.0,0.0,0.0,0.0,0.0,0.0,0.0,0.0,0.0,0.0,0.0,0.0,0.0,0.0,0.0,0.0,0.0,0.0,0.0,0.0,0.0,0.0,0.0,0.0,-0.0403,-0.0577,-0.0572,-0.0958,-0.1126,-0.1122,-0.111,-0.066,-0.0039,-0.0429,-0.0534,-0.052,-0.0919,-0.126,-0.1548,-0.1614,-0.2134,-0.2784,-0.3124,-0.3788,0.0,0.0,0.0,0.0,0.0,0.0,0.0,0.0,0.0,0.0,0.0,0.0,0.0,0.0,0.0,0.0,0.0,0.0,0.0,-0.8385,-0.8794,-0.9007,-0.8641,-0.8997,-0.9158,-0.8663,-0.9128,-0.9506,-0.9579,-0.9688,-0.9783,-0.9842,-0.985,-1.0101,-1.0674,-1.0731,-1.0988,-1.1508,-1.1666,-1.1729,-1.1752,-1.2334,-1.2651,-1.2651,-1.3074,0.0,-1.3285,-1.3285,-1.3285,-1.329,-1.3386,-1.3482,-1.3599,-1.3745,-1.3836,-1.3868,-1.3466,-1.3285,-1.3285,-1.3285,-1.3591,-1.4043,0.0,0.0,0.0,0.0,0.0,0.0,0.0,0.0,0.0,0.0,0.0,0.0,0.0,0.0,-0.0067,-0.024,-0.045,-0.0455,-0.025,-0.0299,-0.0194,0.0,0.0,-0.0128,-0.0348,-0.0574,-0.085,-0.1085,-0.1091,-0.11,-0.1157,-0.088,-0.0877,-0.1148,-0.1416,-0.1767,-0.2196,-0.2438,-0.2685,-0.2844,-0.2855,-0.2542,-0.2063,-0.1541,-0.1634,-0.2038,-0.226,-0.2603,-0.2922,-0.3147,-0.3706,-0.4384,-0.4817,-0.5471,-0.6181,0.0,0.0,0.0,0.0,0.0,0.0,0.0,0.0,0.0,0.0,0.0,0.0,0.0,0.0,-0.8601,-0.8673,0.0,-0.9102,-0.8941,-0.9192,-0.9423,-0.931,-0.9571,-0.9629,-0.9333,-0.9571,-0.9885,-1.0279,-1.0291,-1.0432,-1.0838,-1.0847,-1.0991,-1.1405,-1.1409,-1.1538,-1.1911,-1.2175,-1.2334,-1.2334,-1.2915,-1.318,-1.318,-1.3444,-1.3635,-1.3694,-1.3694,-1.3727,-1.3787,-1.3847,-1.3928,-1.3928,-1.3988,-1.4009,-1.3999,-1.3825,-1.3781,-1.3835,-1.4102,-1.4369,-1.4631,0.0,0.0,0.0,0.0,0.0,0.0,0.0,0.0,0.0,0.0,0.0,0.0,0.0,-0.0032,-0.0226,-0.063,-0.106,-0.1129,-0.0765,-0.0728,-0.0561,-0.0166,-0.0129,-0.0394,-0.0974,-0.1478,-0.1991,-0.265,-0.2655,-0.2671,-0.2745,-0.2327,-0.2325,-0.2736,-0.2829,-0.3366,-0.4151,-0.4244,-0.4517,-0.4876,-0.4857,-0.4843,-0.4743,-0.3521,-0.3381,-0.3787,-0.386,-0.4166,-0.4562,-0.4865,-0.542,-0.6101,-0.6577,-0.717,-0.7781,-0.8118,-0.8107,0.0,0.0,0.0,0.0,0.0,0.0,0.0,0.0,-0.7916,-0.8023,-0.8073,-0.835,-0.8636,-0.8828,-0.9013,-0.9225,-0.9432,-0.9538,-0.9598,-0.9795,-0.9934,-1.0002,-1.0018,-1.0006,-1.0232,-1.0785,-1.0949,-1.1201,-1.1773,-1.1835,-1.1873,-1.2065,-1.207,-1.2122,-1.2228,-1.2704,-1.2968,-1.2968,-1.3418,-1.364,-1.364,-1.3662,-1.3722,-1.3819,-1.3819,-1.3922,-1.4009,-1.4037,-1.4004,-1.408,-1.408,-1.408,-1.408,-1.4189,-1.4244,-1.4293,-1.4682,-1.4935,-1.5188,0.0,0.0,0.0,0.0,0.0,0.0,0.0,0.0,0.0,0.0,0.0,0.0,0.0,-0.0211,-0.0615,-0.1235,-0.1717,-0.1867,-0.1598,-0.1313,-0.0977,-0.0638,-0.061,-0.1064,-0.2014,-0.2534,-0.3245,-0.4155,-0.4283,-0.4322,-0.4318,-0.427,-0.4298,-0.4355,-0.4776,-0.5262,-0.5759,-0.6115,-0.6537,-0.697,-0.6833,-0.6949,-0.7223,-0.7049,-0.6169,-0.5147,-0.5422,-0.604,-0.6716,-0.6644,-0.715,-0.7808,-0.7833,-0.8262,-0.88,-0.8683,-0.8779,-0.8938,-0.883,-0.8459,-0.8119,-0.8224,-0.7907,-0.7686,0.0,-0.8336,-0.8266,-0.857,-0.8807,-0.9028,-0.9285,-0.9375,-0.9481,-0.9632,-0.9726,-0.9791,-0.9812,-1.0291,-1.0734,-1.077,-1.0704,-1.0738,-1.0887,-1.137,-1.1725,-1.1882,-1.1892,-1.2108,-1.2651,-1.2704,-1.2915,-1.3391,-1.3496,-1.3496,-1.3496,-1.3711,-1.3765,-1.3765,-1.3922,-1.3977,-1.3993,-1.3993,-1.3999,-1.4015,-1.4069,-1.4178,-1.4276,-1.4276,-1.4276,-1.4337,-1.4885,-1.5095,-1.5028,-1.4854,-1.547,-1.6388,0.0,0.0,0.0,0.0,0.0,0.0,0.0,0.0,0.0,0.0,0.0,0.0,0.0,-0.0722,-0.1426,-0.193,-0.2807,-0.3152,-0.2714,-0.2421,-0.202,-0.1552,-0.1543,-0.206,-0.3033,-0.4136,-0.5185,-0.625,-0.6599,-0.6785,-0.6805,-0.647,-0.6506,-0.681,-0.7002,-0.7527,-0.8242,-0.8397,-0.8648,-0.9001,-0.8922,-0.8858,-0.8792,-0.8744,-0.8344,-0.7803,-0.7442,-0.7621,0.0,-0.7903,-0.8218,-0.8626,-0.8583,-0.8955,-0.9425,-0.9583,-0.9702,-0.9815,-0.9832,-0.9195,-0.8607,-0.8671,-0.8304,-0.8024,-0.8458,-0.8625,-0.8726,-0.8883,-0.9111,-0.9306,-0.9416,-0.9563,-0.9653,-0.9742,-0.9791,-0.9955,-1.0368,-1.0674,-1.0996,-1.1409,-1.1754,-1.1954,-1.1997,-1.2212,-1.2495,-1.2857,-1.2915,-1.3052,-1.3386,-1.3391,-1.3525,-1.3809,-1.3809,-1.3809,-1.3809,-1.3917,-1.3939,-1.3939,-1.3988,-1.3993,-1.4069,-1.4069,-1.4097,-1.4167,-1.4222,-1.4221,-1.432,-1.432,-1.432,-1.4375,-1.4986,-1.5424,-1.5751,-1.5967,-1.6424,-1.6898,0.0,0.0,0.0,0.0,0.0,0.0,0.0,0.0,0.0,0.0,0.0,-0.0054,-0.022,-0.1238,-0.2112,-0.2628,-0.3752,-0.4252,-0.3875,-0.3622,-0.3292,-0.285,-0.2914,-0.3499,-0.4624,-0.5879,-0.7134,-0.8361,-0.8782,-0.8979,-0.9043,-0.866,-0.866,-0.9043,-0.9043,-0.9466,-1.017,-1.0189,-1.0308,-1.0595,-1.0565,-1.0372,-1.009,-0.9943,-0.9828,-0.9682,-0.8889,-0.8821,-0.9052,-0.8975,-0.9094,-0.9303,-0.9377,-0.9633,-0.9996,-1.0335,-1.0454,-1.0418,-1.0347,-0.9718,-0.9026,-0.8893,-0.8586,-0.8399,-0.8607,-0.8877,-0.9114,-0.918,-0.9359,-0.955,-0.9724,-0.9736,-0.976,-1.0003,-1.004,-1.0265,-1.0839,-1.1202,-1.1615,-1.2113,-1.2651,-1.3021,-1.3021,-1.3021,-1.318,-1.3549,-1.3635,-1.3694,-1.3781,-1.3819,-1.3928,-1.4009,-1.4009,-1.4009,-1.4009,-1.4042,-1.4004,-1.4004,-1.4097,-1.4097,-1.4139,-1.4139,-1.4238,-1.432,-1.432,-1.432,-1.432,-1.432,-1.4381,-1.4592,-1.5197,-1.5806,-1.6434,-1.7044,-1.7252,-1.7294,0.0,0.0,0.0,0.0,0.0,0.0,0.0,0.0,0.0,0.0,0.0,-0.0216,-0.0809,-0.1653,-0.25,-0.3291,-0.4364,-0.4978,-0.4947,-0.4821,-0.4716,-0.4646,-0.4756,-0.5543,-0.7077,-0.7769,-0.8818,-1.0207,-1.0502,-1.0607,-1.0611,-1.0611,-1.0611,-1.0611,-1.0611,-1.0832,-1.1144,-1.1089,-1.1252,-1.1533,-1.1509,-1.1319,-1.1047,-1.0923,-1.0506,-0.9936,-0.9362,-0.9516,-0.9922,-0.9792,-0.9887,-1.009,-1.0293,-1.0456,-1.0614,-1.0748,-1.0794,-1.0674,-1.0064,-0.9637,-0.9254,-0.8644,-0.8587,-0.8741,-0.9013,-0.9199,-0.9322,-0.9444,-0.9489,-0.972,-1.0358,-1.0028,-0.9911,-1.046,-1.0706,-1.0799,-1.09,-1.1945,-1.2757,-1.2757,-1.3232,-1.3602,-1.3602,-1.3602,-1.3602,-1.3602,-1.3716,-1.3781,-1.3787,-1.3944,-1.4004,-1.4009,-1.4009,-1.4009,-1.4009,-1.4069,-1.4085,-1.4085,-1.4249,-1.4309,-1.4264,-1.4264,-1.432,-1.432,-1.432,-1.432,-1.432,-1.432,-1.4647,-1.5258,-1.5862,-1.6434,-1.7044,-1.7652,-1.786,-1.786,0.0,0.0,0.0,0.0,0.0,0.0,0.0,0.0,0.0,0.0,-0.0155,0.0,0.0,0.0,0.0,0.0,-0.5257,-0.6006,-0.6183,-0.596,-0.5741,-0.5625,-0.5676,-0.6249,-0.7454,-0.8405,-0.9469,-1.0695,-1.1089,-1.135,-1.1429,-1.1429,-1.1429,-1.1429,-1.1429,-1.1495,-1.1597,-1.1559,-1.1563,-1.1514,-1.1515,-1.1215,-1.084,-1.0639,-1.0401,-1.0077,0.0,-0.9448,-0.9589,-0.9659,-0.9783,-0.9946,-1.008,-1.0335,-1.0681,-1.1256,-1.1197,-1.0951,-1.0703,-0.9989,-0.9307,-0.9176,-0.9057,-0.8997,-0.9199,-0.935,-0.9424,-0.9481,-0.984,-1.0245,-1.0476,-1.0739,-1.0968,-1.1218,-1.1427,-1.1711,-1.2117,-1.2586,-1.3003,-1.3296,-1.3496,-1.3602,-1.3602,-1.3602,-1.3602,-1.3602,-1.364,-1.3732,-1.3944,-1.3988,-1.4086,-1.4195,-1.4195,-1.4195,-1.4195,-1.4238,-1.421,-1.421,-1.4309,-1.432,-1.432,-1.432,-1.432,-1.432,-1.432,-1.432,-1.432,-1.4703,-1.503,-1.5313,-1.6317,-1.6816,-1.7044,-1.7687,-1.7915,-1.7915,0.0,0.0,0.0,0.0,0.0,0.0,0.0,0.0,0.0,0.0,0.0,0.0,0.0,0.0,0.0,0.0,0.0,-0.6469,-0.676,-0.6798,-0.6821,-0.6878,-0.6948,-0.7444,-0.8348,-0.9092,-0.9966,-1.0893,-1.1287,-1.1547,-1.1623,-1.1667,-1.1688,-1.1688,-1.1688,-1.1667,-1.1623,-1.158,-1.1449,-1.1303,-1.121,-1.0922,-1.0579,-1.0462,-1.0268,0.0,-0.9759,-0.9643,-0.9611,-0.9709,-0.9875,-1.0076,-1.0135,-1.0398,-1.0778,-1.129,-1.1219,-1.0931,-1.0696,-0.9983,-0.9377,-0.9338,-0.929,-0.9212,-0.9354,-0.9489,-0.9633,-0.9749,-1.0283,-1.0817,-1.1128,-1.1459,-1.1731,-1.2027,-1.2097,-1.2298,-1.2747,-1.2983,-1.3264,-1.356,-1.3602,-1.3602,-1.3602,-1.3602,-1.3602,-1.3602,-1.3645,-1.3738,-1.3944,-1.3977,-1.4097,-1.4194,-1.4292,-1.432,-1.432,-1.432,-1.432,-1.432,-1.432,-1.432,-1.432,-1.432,-1.432,-1.432,-1.432,-1.4436,-1.4647,-1.503,-1.5424,-1.5923,-1.6699,-1.7154,-1.7369,-1.7749,-1.7915,-1.7915,0.0,0.0,0.0,0.0,0.0,0.0,0.0,0.0,0.0,0.0,0.0,0.0,0.0,0.0,0.0,0.0,0.0,0.0,-0.6723,-0.7338,-0.7877,-0.8281,-0.8473,-0.8923,-0.9708,-0.9875,-1.0247,-1.0831,-1.1101,-1.1259,-1.1275,-1.139,-1.1444,-1.1444,-1.1444,-1.1379,-1.1264,-1.1112,-1.0992,-1.0851,-1.0664,-1.053,-1.0371,-1.0368,-1.0142,-0.9846,-1.0035,-1.0057,-1.0006,-1.0,-1.0221,-1.0504,-1.0448,-1.059,-1.0822,-1.0867,-1.0826,-1.0629,-1.0057,-0.9703,-0.9435,-0.9165,-0.9241,-0.9436,-0.9472,-0.9612,-0.9845,-1.019,-1.0761,-1.1412,-1.2331,-1.221,-1.2175,-1.2919,-1.2702,-1.2554,-1.2779,-1.3285,-1.3602,-1.3597,-1.3597,-1.3597,-1.3597,-1.3602,-1.3602,-1.3602,-1.3711,-1.3781,-1.3787,-1.3999,-1.4069,-1.4085,-1.4194,-1.4264,-1.432,-1.432,-1.432,-1.432,-1.432,-1.432,-1.432,-1.432,-1.432,-1.432,-1.432,-1.4647,-1.5197,-1.5258,-1.5979,-1.6988,-1.7044,-1.7424,-1.7915,-1.7915,-1.7915,-1.7915,0.0,0.0,0.0,0.0,0.0,0.0,0.0,0.0,0.0,0.0,0.0,0.0,0.0,0.0,0.0,0.0,0.0,0.0,-0.7114,-0.7434,-0.7754,-0.806,-0.8112,-0.8419,-0.895,-0.9147,-0.9578,-1.0248,-1.0307,-1.0433,-1.0612,-1.0645,-1.0702,-1.0702,-1.0702,-1.0639,-1.0612,-1.0579,-1.0443,-1.0242,-1.0498,-1.0345,-0.9965,-1.0105,-1.0105,-1.0029,-0.9951,-1.0136,-1.0311,-0.9922,-1.0078,-1.0484,-1.0755,-1.0856,-1.0873,-1.0832,-1.0417,-0.9966,-0.9817,-0.95,-0.9229,-0.9379,-0.9424,-0.9464,-0.9489,-0.9856,-1.0128,-1.0109,-1.0974,-1.1862,-1.2169,-1.2501,-1.2888,-1.3379,-1.3286,-1.322,-1.3369,-1.3496,-1.3569,-1.3477,-1.3466,-1.3466,-1.3466,-1.3553,-1.3602,-1.3602,-1.3635,-1.3689,-1.3781,-1.3847,-1.3955,-1.4085,-1.4112,-1.4222,-1.432,-1.432,-1.432,-1.432,-1.432,-1.432,-1.432,-1.432,-1.432,-1.432,-1.4758,-1.5086,-1.5258,-1.6151,-1.6699,-1.7044,-1.748,-1.7749,-1.7915,-1.7915,-1.7915,-1.7915,0.0,0.0,0.0,0.0,0.0,0.0,0.0,0.0,0.0,0.0,0.0,0.0,0.0,0.0,0.0,0.0,0.0,0.0,0.0,-0.7168,-0.761,-0.7865,-0.8108,-0.8444,-0.8794,-0.8941,-0.9266,-0.9704,-0.9758,-0.9856,-0.9992,-1.0086,-1.0074,-1.0074,-1.0074,-1.0074,-1.0107,-1.0014,-0.9911,0.0,0.0,-0.9899,-0.9653,-0.9894,-1.0,-1.0011,-1.0065,-1.013,-1.0153,-0.9881,-0.99,-1.0059,-1.0296,-1.0291,-1.0195,-1.0071,-0.9867,-0.9662,-0.9466,-0.9382,-0.9306,-0.9456,-0.9493,-0.953,-0.974,-1.0104,-1.0473,-1.0701,-1.1558,-1.2403,-1.2639,-1.2882,-1.3146,-1.3534,-1.3278,-1.3113,-1.3341,-1.3368,-1.3466,-1.3657,-1.3652,-1.3674,-1.3729,-1.3796,-1.381,-1.3602,-1.3602,-1.3635,-1.3705,-1.376,-1.3847,-1.3977,-1.4031,-1.4108,-1.4238,-1.4292,-1.432,-1.432,-1.432,-1.432,-1.432,-1.432,-1.4436,-1.4703,-1.503,-1.5486,-1.6034,-1.6699,-1.7154,-1.7424,-1.7749,-1.7915,-1.7915,-1.7915,-1.7915,-1.7915,0.0,0.0,0.0,0.0,0.0,0.0,0.0,0.0,0.0,0.0,0.0,0.0,0.0,0.0,0.0,0.0,0.0,0.0,0.0,0.0,-0.7362,-0.7663,-0.8166,-0.8583,-0.8795,-0.8919,-0.9038,-0.9188,-0.9291,-0.9351,-0.9372,-0.9512,-0.9562,-0.9562,-0.9562,-0.9562,-0.9556,-0.941,-0.9356,-0.9354,-0.9404,-0.9434,-0.9433,0.0,-0.9961,-1.0,-1.0275,-1.0129,-0.9847,-0.9895,-0.9718,-0.9513,-0.9557,-0.9458,-0.929,-0.9188,-0.9394,-0.9565,-0.9262,-0.9318,-0.9497,-0.9509,-0.955,-0.9711,-0.998,-1.0372,-1.0806,-1.1434,-1.2161,-1.276,-1.3267,-1.3116,-1.3089,-1.3529,-1.3083,-1.2808,-1.3173,-1.3239,-1.3492,-1.4001,-1.4076,-1.4134,-1.4244,-1.4238,-1.4041,-1.3727,-1.3649,-1.3602,-1.3602,-1.3705,-1.377,-1.3787,-1.3949,-1.4015,-1.4085,-1.4238,-1.4309,-1.432,-1.432,-1.432,-1.4436,-1.4436,-1.4758,-1.5313,-1.5424,-1.6034,-1.6988,-1.7099,-1.7424,-1.7915,-1.7915,-1.7915,-1.7915,-1.7915,-1.7915,-1.7915,0.0,0.0,0.0,0.0,0.0,0.0,0.0,0.0,0.0,0.0,-0.1258,-0.213,0.0,0.0,0.0,0.0,0.0,0.0,0.0,0.0,0.0,-0.7408,-0.7666,-0.7917,-0.8241,-0.8329,-0.8415,-0.8573,-0.8595,-0.8649,-0.8742,-0.8764,-0.8774,-0.8774,-0.8774,-0.8774,-0.8774,-0.8753,-0.8687,-0.8639,-0.9348,-0.9528,-0.9398,-1.0117,0.0,0.0,-1.0529,-1.042,-1.0113,-1.0093,-0.9807,-0.9505,-0.945,-0.936,-0.9304,-0.9422,-0.9322,-0.9218,-0.9408,-0.9456,-0.9513,-0.9636,-0.9898,-1.012,-0.9911,-1.0571,-1.1151,-1.0901,-1.164,-1.2361,-1.264,-1.265,-1.2876,-1.3578,-1.3551,-1.3561,-1.3954,-1.4103,-1.4231,-1.4305,-1.4502,-1.4575,-1.4599,-1.4335,-1.4163,-1.4081,-1.381,-1.3602,-1.3602,-1.3624,-1.3684,-1.3787,-1.3949,-1.4015,-1.4085,-1.4096,-1.4167,-1.432,-1.432,-1.4536,-1.503,-1.503,-1.5369,-1.5979,-1.649,-1.6816,-1.7044,-1.7535,-1.7805,-1.7915,-1.7915,-1.7915,-1.7915,-1.7915,-1.7915,-1.7915,0.0,0.0,0.0,0.0,0.0,0.0,0.0,0.0,-0.0057,-0.0174,-0.0705,-0.1407,-0.2334,-0.2992,-0.3519,0.0,0.0,0.0,0.0,0.0,0.0,-0.6858,-0.734,-0.777,-0.8149,-0.8269,-0.8356,-0.8508,0.0,-0.8535,-0.8584,-0.8524,-0.8497,-0.8497,-0.8432,-0.8405,-0.8405,-0.8405,-0.841,-0.8448,-0.9193,-0.9443,-0.942,-1.0128,0.0,0.0,-1.0548,-1.0516,-1.0358,-1.0108,-0.9927,-0.9727,-0.9305,-0.9118,-0.9034,-0.9225,-0.928,-0.9269,-0.9444,-0.9529,-0.9624,-0.9669,-0.9938,-1.0122,-1.0115,-1.0791,-1.1372,-1.1305,-1.1804,-1.2325,-1.2542,-1.2498,-1.2596,-1.3271,-1.3372,-1.3464,-1.3818,-1.4037,-1.4324,-1.4719,-1.4837,-1.4981,-1.5076,-1.4765,-1.4445,-1.4198,-1.3852,-1.3602,-1.3602,-1.3602,-1.3629,-1.3689,-1.3809,-1.3923,-1.4042,-1.4053,-1.4305,-1.4758,-1.4758,-1.5086,-1.5696,-1.5696,-1.5979,-1.6588,-1.6871,-1.7154,-1.748,-1.7805,-1.7915,-1.7915,-1.7915,-1.7915,-1.7915,-1.7915,-1.7915,-1.7915,0.0,0.0,0.0,0.0,0.0,0.0,0.0,0.0,0.0,0.0,-0.0185,-0.0618,-0.1447,-0.2144,-0.2751,0.0,0.0,0.0,0.0,0.0,0.0,0.0,-0.6974,-0.7572,-0.8066,0.0,0.0,-0.8513,-0.8513,0.0,0.0,0.0,0.0,0.0,-0.8242,-0.815,-0.8128,-0.8155,-0.8253,0.0,0.0,-0.9362,-0.948,0.0,0.0,0.0,0.0,-1.0605,-1.0566,-1.0233,-1.0143,-1.0099,-0.9585,-0.9259,-0.906,-0.9206,-0.9413,-0.9575,-0.9518,-0.9595,-0.9694,-0.9778,-0.997,-1.0192,-1.0501,-1.1027,-1.151,-1.1717,-1.1953,-1.2223,-1.2449,-1.2338,-1.2393,-1.2972,-1.3191,-1.336,-1.3725,-1.3996,-1.4418,-1.5143,-1.5257,-1.5374,-1.5629,-1.5252,-1.4826,-1.4365,-1.3888,-1.3602,-1.3602,-1.3602,-1.3602,-1.3602,-1.3722,-1.3895,-1.4172,-1.4233,-1.4685,-1.5369,-1.5369,-1.5696,-1.6262,-1.6262,-1.6643,-1.721,-1.721,-1.748,-1.7915,-1.7915,-1.7915,-1.7915,-1.7915,-1.7915,-1.7915,-1.7915,-1.7915,-1.7915,0.0,0.0,0.0,0.0,0.0,0.0,0.0,0.0,0.0,0.0,-0.0032,-0.0193,-0.0577,-0.1389,-0.2167,0.0,0.0,0.0,0.0,0.0,0.0,0.0,0.0,0.0,0.0,0.0,0.0,-0.8237,-0.8237,0.0,0.0,0.0,0.0,0.0,0.0,-0.8039,-0.7941,-0.8055,0.0,0.0,0.0,0.0,0.0,0.0,0.0,0.0,0.0,-1.0743,-1.0622,-1.0817,-1.0691,-1.0493,-1.0725,-1.0472,-1.0022,-0.9864,-0.999,-1.0011,-0.9617,-0.9501,-0.9633,-1.0041,-1.0349,-1.0657,-1.1111,-1.1458,-1.1642,-1.1637,-1.1628,-1.1692,-1.1847,-1.2118,-1.2463,-1.2929,-1.34,-1.3887,-1.433,-1.4798,-1.5222,-1.5525,-1.5729,-1.5871,-1.604,-1.5804,-1.5359,-1.4801,-1.4046,-1.3602,-1.3602,-1.3602,-1.3602,-1.3602,-1.3722,-1.411,-1.4713,-1.4851,-1.5307,-1.6034,-1.6034,-1.6317,-1.6926,-1.6926,-1.7252,-1.7805,-1.7805,-1.786,-1.7915,-1.7915,-1.7915,-1.7915,-1.7915,-1.7915,-1.7915,-1.7915,-1.7915,-1.7915,0.0,0.0,0.0,0.0,0.0,0.0,0.0,0.0,0.0,0.0,0.0,-0.0066,-0.0196,-0.0703,-0.1472,-0.2574,0.0,0.0,0.0,0.0,0.0,0.0,0.0,0.0,0.0,0.0,-0.8329,-0.8448,-0.8448,0.0,0.0,0.0,0.0,0.0,0.0,-0.8138,-0.8095,-0.8144,0.0,0.0,0.0,0.0,0.0,0.0,0.0,0.0,0.0,0.0,-1.095,-1.0915,-1.0938,-1.1041,-1.1082,-1.1154,-1.1091,-1.0747,-1.0521,-1.0431,-1.0348,-1.0148,-1.0041,-1.0485,-1.0807,-1.1026,-1.1228,-1.1442,-1.1583,-1.1587,-1.1784,-1.1992,-1.2131,-1.2454,-1.2779,-1.3233,-1.37,-1.4102,-1.4462,-1.4977,-1.5398,-1.5566,-1.5845,-1.6049,-1.6205,-1.5973,-1.5608,-1.5118,-1.4808,-1.4604,-1.4604,-1.3971,-1.376,-1.4083,-1.4254,-1.4646,-1.5314,-1.5494,-1.5906,-1.6643,-1.6643,-1.6982,-1.7535,-1.7535,-1.7652,-1.7915,-1.7915,-1.7915,-1.7915,-1.7915,-1.7915,-1.7915,-1.7915,-1.7915,-1.7915,-1.7915,-1.7915,-1.7915,0.0,0.0,0.0,0.0,0.0,0.0,0.0,0.0,0.0,0.0,0.0,0.0,0.0,-0.0195,-0.0866,-0.2085,-0.2614,0.0,0.0,0.0,0.0,0.0,0.0,0.0,0.0,0.0,-0.8425,-0.8672,-0.8677,-0.8693,0.0,0.0,-0.8503,-0.8465,0.0,0.0,0.0,0.0,0.0,0.0,0.0,0.0,0.0,0.0,0.0,0.0,0.0,0.0,0.0,0.0,0.0,-1.1389,-1.1327,-1.1616,-1.1849,-1.127,-1.1007,-1.0845,-1.0768,-1.0489,-1.0388,-1.0835,-1.1131,-1.1327,-1.1505,-1.1628,-1.1692,-1.1854,-1.2045,-1.2266,-1.2474,-1.28,-1.313,-1.3598,-1.4179,-1.4648,-1.4965,-1.5575,-1.6052,-1.6105,-1.6271,-1.6387,-1.6545,-1.6161,-1.582,-1.554,-1.5388,-1.5283,-1.5283,-1.4551,-1.4305,-1.4715,-1.4892,-1.5344,-1.6025,-1.6149,-1.6604,-1.7252,-1.7252,-1.748,-1.7915,-1.7915,-1.7915,-1.7915,-1.7915,-1.7915,-1.7915,-1.7915,-1.7915,-1.7915,-1.7915,-1.7915,-1.7915,-1.7915,-1.7915,-1.7915,0.0,0.0,0.0,0.0,0.0,0.0,0.0,0.0,0.0,0.0,0.0,0.0,0.0,0.0,-0.0417,-0.1421,-0.2115,0.0,0.0,0.0,0.0,0.0,0.0,0.0,0.0,0.0,-0.8347,-0.8803,-0.8854,-0.8914,-0.8908,-0.8823,-0.8738,-0.8579,0.0,0.0,0.0,0.0,0.0,0.0,0.0,0.0,0.0,0.0,0.0,0.0,0.0,0.0,0.0,0.0,0.0,0.0,0.0,-1.1938,-1.2147,-1.1339,-1.1271,-1.1331,-1.0584,-1.0408,-1.0524,-1.0972,-1.1227,-1.1539,-1.207,-1.21,-1.2096,-1.2494,-1.2371,-1.2338,-1.2725,-1.3029,-1.3379,-1.3901,-1.4942,-1.5806,-1.6122,-1.6942,-1.7442,-1.7408,-1.7067,-1.6928,-1.7092,-1.6366,-1.5976,-1.6065,-1.5599,-1.5283,-1.5283,-1.5283,-1.535,-1.5485,-1.5619,-1.6031,-1.6769,-1.6917,-1.7307,-1.786,-1.786,-1.786,-1.7915,-1.7915,-1.7915,-1.7915,-1.7915,-1.7915,-1.7915,-1.7915,-1.7915,-1.7915,-1.7915,-1.7915,-1.7915,-1.7915,-1.7915,-1.7915,0.0,0.0,0.0,0.0,0.0,0.0,0.0,0.0,0.0,0.0,0.0,0.0,0.0,0.0,-0.0317,-0.1105,-0.1774,0.0,0.0,0.0,0.0,0.0,0.0,0.0,0.0,-0.7887,-0.8358,-0.8803,-0.8976,-0.9,-0.8919,-0.8962,-0.891,-0.8743,-0.871,-0.859,0.0,0.0,0.0,0.0,0.0,0.0,0.0,0.0,0.0,0.0,0.0,0.0,0.0,0.0,0.0,0.0,0.0,0.0,0.0,-1.1372,-1.1582,-1.1888,-1.1921,-1.1692,-1.1612,-1.2113,-1.2399,-1.2484,-1.2372,-1.2529,-1.2716,-1.2852,-1.3127,-1.3476,-1.3904,-1.3978,-1.4311,-1.51,-1.5894,-1.6583,-1.7129,-1.788,-1.8264,-1.8177,-1.7674,-1.731,-1.7058,-1.6797,-1.6662,-1.6709,-1.6558,-1.6453,-1.6453,-1.6538,-1.6451,-1.613,-1.6264,-1.6627,-1.7315,-1.7524,-1.7694,-1.7915,-1.7915,-1.7915,-1.7915,-1.7915,-1.7915,-1.7915,-1.7915,-1.7915,-1.7915,-1.7915,-1.7915,-1.7915,-1.7915,-1.7915,-1.7915,-1.7915,-1.7915,-1.7915,0.0,0.0,0.0,0.0,0.0,0.0,0.0,0.0,0.0,0.0,0.0,0.0,0.0,-0.0125,-0.0471,-0.1167,-0.1845,0.0,0.0,0.0,0.0,0.0,0.0,0.0,-0.7111,-0.7756,-0.8345,-0.8905,-0.915,-0.9253,-0.9184,-0.9168,-0.9117,-0.8999,-0.8863,-0.8759,0.0,0.0,0.0,0.0,0.0,0.0,0.0,0.0,0.0,0.0,0.0,0.0,0.0,0.0,0.0,0.0,0.0,0.0,0.0,0.0,-1.1618,-1.1931,-1.2118,-1.2095,-1.2118,-1.246,-1.2884,-1.3164,-1.2708,-1.3078,-1.3484,-1.3448,-1.3866,-1.4361,-1.4764,-1.4976,-1.5421,-1.6403,-1.7339,-1.8157,-1.8655,-1.9252,-1.9353,-1.8448,-1.807,-1.764,-1.707,-1.6978,-1.6978,-1.6978,-1.6978,-1.7005,-1.706,-1.7148,-1.7089,-1.6881,-1.6913,-1.7194,-1.7717,-1.7868,-1.7915,-1.7915,-1.7915,-1.7915,-1.7915,-1.7915,-1.7915,-1.7915,-1.7915,-1.7915,0.0,-1.7915,-1.7915,-1.7915,-1.7915,-1.7915,-1.7915,-1.7915,-1.7915,-1.7915,0.0,0.0,0.0,0.0,0.0,0.0,0.0,0.0,0.0,0.0,0.0,0.0,0.0,-0.0305,-0.0775,-0.148,0.0,0.0,0.0,0.0,0.0,0.0,0.0,0.0,-0.6828,-0.7554,-0.8308,-0.9098,-0.9378,-0.9594,-0.9703,-0.9443,-0.9329,-0.9291,-0.8948,-0.8814,0.0,0.0,0.0,0.0,0.0,0.0,0.0,0.0,0.0,0.0,0.0,0.0,0.0,0.0,0.0,0.0,0.0,0.0,0.0,0.0,0.0,0.0,0.0,-1.1804,-1.2162,-1.2174,-1.2979,-1.3649,-1.3095,-1.3725,0.0,-1.4225,-1.46,-1.508,-1.546,-1.5947,-1.6647,-1.7747,-1.9189,-2.0239,-2.0483,-2.0983,-2.0579,-1.849,-1.835,-1.8099,-1.7195,-1.7051,-1.6992,-1.6978,-1.6992,-1.7053,-1.7182,-1.7216,-1.7358,-1.7575,-1.7609,-1.7717,-1.7915,-1.7915,-1.7915,-1.7915,-1.7915,-1.7915,-1.7915,-1.7915,-1.7915,-1.7915,-1.7915,-1.7915,-1.7915,-1.7915,-1.7915,-1.7915,-1.7915,-1.7915,-1.7915,-1.7915,-1.7915,-1.7915,0.0,0.0,0.0,0.0,0.0,0.0,0.0,0.0,0.0,0.0,0.0,0.0,0.0,-0.03,-0.0674,0.0,0.0,0.0,0.0,0.0,0.0,0.0,0.0,0.0,-0.7233,-0.7932,-0.8553,-0.9098,-0.9465,-0.9682,-0.9709,-0.9699,-0.9531,-0.9296,-0.9122,-0.8894,0.0,0.0,0.0,0.0,0.0,0.0,0.0,0.0,0.0,0.0,-1.0684,-1.0684,0.0,0.0,0.0,0.0,0.0,0.0,0.0,0.0,-1.1016,-1.113,-1.1352,0.0,-1.2871,-1.2989,-1.3838,-1.4476,0.0,-1.4675,-1.5451,-1.5292,-1.5947,-1.6646,-1.6871,-1.7161,-1.7704,-1.8858,-1.9926,-2.0857,-2.1459,-2.1564,-2.1121,-1.9899,-1.9264,-1.8673,-1.7897,-1.7413,-1.71,-1.6992,-1.708,-1.7154,-1.7188,-1.7412,-1.7521,-1.7595,-1.7758,-1.7826,-1.7915,-1.7915,-1.7915,-1.7915,-1.7915,-1.7915,-1.7915,-1.7915,-1.7915,-1.7915,-1.7915,-1.7915,-1.7915,-1.7915,-1.7915,-1.7915,-1.7915,-1.7915,-1.7915,-1.7915,-1.7915,-1.7915,0.0,0.0,0.0,0.0,0.0,0.0,0.0,0.0,0.0,0.0,0.0,0.0,0.0,0.0,0.0,0.0,0.0,0.0,0.0,0.0,0.0,0.0,0.0,-0.6612,-0.7168,-0.7976,-0.8644,-0.9174,-0.9568,-0.9802,-0.9916,-0.9921,-0.9748,-0.9499,-0.9163,-0.8876,0.0,0.0,0.0,0.0,0.0,0.0,0.0,0.0,0.0,0.0,-1.0684,-1.0684,0.0,-1.0684,-1.0684,-1.0684,0.0,0.0,0.0,0.0,-1.086,-1.1016,-1.1524,-1.2315,-1.299,-1.3119,-1.4203,-1.5127,-1.4683,-1.5556,-1.6398,-1.6145,-1.6845,-1.7603,-1.7949,-1.8405,-1.9153,-2.0421,-2.1202,-2.1748,-2.1963,-2.1849,-2.1328,-2.0208,-1.9516,-1.8813,-1.8173,-1.763,-1.7236,-1.7087,-1.7216,-1.7324,-1.7399,-1.7507,-1.7629,-1.7738,-1.7826,-1.7915,-1.7915,-1.7915,-1.7915,-1.7915,-1.7915,-1.7915,-1.7915,-1.7915,-1.7915,-1.7915,-1.7915,-1.7915,-1.7915,-1.7915,-1.7915,-1.7915,-1.7915,-1.7915,-1.7915,-1.7915,-1.7915,-1.7915,0.0,0.0,0.0,0.0,0.0,0.0,0.0,0.0,0.0,0.0,0.0,0.0,0.0,0.0,0.0,0.0,0.0,0.0,0.0,0.0,0.0,0.0,-0.5904,-0.667,-0.7078,-0.801,-0.8783,-0.9362,-0.9661,-0.9953,-1.0226,-1.0106,-0.9915,-0.9721,-0.9163,-0.8849,0.0,0.0,0.0,0.0,0.0,0.0,0.0,0.0,0.0,0.0,0.0,0.0,0.0,-1.0684,-1.0684,-1.0684,-1.0684,0.0,0.0,0.0,0.0,0.0,-1.1838,-1.2527,-1.3058,-1.3176,-1.4432,-1.56,-1.5473,-1.6349,-1.7106,-1.6952,-1.7655,-1.8414,-1.8846,-1.9592,-2.0578,-2.1919,-2.2423,-2.2562,-2.2296,-2.2032,-2.1377,-2.016,-1.9471,-1.8904,-1.8209,-1.7666,-1.7358,-1.7202,-1.7358,-1.746,-1.7595,-1.7615,-1.7738,-1.786,-1.7915,-1.7915,-1.7915,-1.7915,-1.7915,-1.7915,-1.7915,-1.7915,-1.7915,-1.7915,-1.7915,-1.7915,-1.7915,-1.7915,-1.7915,-1.7915,-1.7915,-1.7915,-1.7915,-1.7915,-1.7915,-1.7915,-1.7977,-1.8033,0.0,0.0,0.0,0.0,0.0,0.0,0.0,0.0,0.0,0.0,0.0,0.0,0.0,0.0,0.0,0.0,0.0,0.0,0.0,0.0,0.0,-0.5678,-0.6489,-0.7239,-0.797,-0.8657,-0.9197,-0.9649,-0.9867,-1.0117,-1.0356,-1.0231,-0.9949,-0.9525,-0.9092,-0.8849,-0.8803,-0.9109,0.0,0.0,-1.0133,0.0,0.0,0.0,0.0,0.0,0.0,0.0,0.0,-1.0684,-1.0684,-1.0684,-1.0684,0.0,0.0,0.0,0.0,0.0,-1.2082,-1.3157,-1.4091,-1.4165,-1.4992,-1.5808,-1.6001,-1.6805,-1.7583,-1.7769,-1.8747,-1.9713,-1.9991,-2.0416,-2.111,-2.2089,-2.2299,-2.2512,-2.2978,-2.2141,-2.1305,-2.0948,-1.9985,-1.9066,-1.8367,-1.7728,-1.7358,-1.7202,-1.7453,-1.7568,-1.7595,-1.7758,-1.7846,-1.7915,-1.7915,-1.7915,-1.7915,-1.7915,-1.7915,-1.7915,-1.7915,-1.7915,-1.7915,-1.7915,-1.7915,-1.7915,-1.7915,-1.7915,-1.7915,-1.7915,-1.7915,-1.7915,-1.7915,-1.7915,-1.7915,-1.7915,-1.8205,-1.864,0.0,0.0,0.0,0.0,0.0,0.0,0.0,0.0,0.0,0.0,0.0,0.0,0.0,0.0,0.0,0.0,0.0,0.0,0.0,0.0,-0.5157,-0.6555,-0.7183,-0.7746,-0.8311,-0.8952,-0.947,-0.9758,-1.0128,-1.0408,-1.0511,-1.0221,-0.9883,-0.947,-0.9076,-0.8952,-0.9081,-0.932,-0.9613,0.0,0.0,0.0,0.0,0.0,0.0,0.0,0.0,0.0,0.0,0.0,-1.0684,-1.0684,-1.0684,0.0,0.0,0.0,0.0,0.0,-1.2835,-1.4077,-1.5246,-1.5565,-1.5919,-1.6338,-1.7018,-1.7497,-1.7971,-1.8523,-1.928,-2.008,-2.0858,-2.1337,-2.1781,-2.2389,-2.2385,-2.2172,-2.1689,-2.0993,-2.0359,-2.0139,-1.9299,-1.8647,-1.8227,-1.777,-1.7426,-1.7324,-1.7595,-1.7758,-1.7758,-1.7826,-1.7915,-1.7915,-1.7915,-1.7915,-1.7915,-1.7915,-1.7915,-1.7915,-1.7915,-1.7915,-1.7915,-1.7915,-1.7915,-1.7915,-1.7915,-1.7915,-1.7915,-1.7915,-1.7915,-1.7922,-1.8205,-1.8357,-1.8357,-1.8702,-1.8964,-1.9254,0.0,0.0,0.0,0.0,0.0,0.0,0.0,0.0,0.0,0.0,0.0,0.0,0.0,0.0,0.0,0.0,0.0,0.0,0.0,-0.3926,-0.5342,-0.7128,-0.7768,-0.8243,-0.8645,-0.928,-0.9742,-1.0003,-1.0433,-1.0653,-1.0588,-1.0188,-0.9829,-0.947,-0.9182,-0.9124,-0.9319,-0.9589,-0.9909,0.0,0.0,0.0,0.0,0.0,0.0,0.0,0.0,0.0,0.0,0.0,0.0,0.0,0.0,0.0,0.0,-1.0784,-1.1541,-1.2589,-1.3618,-1.4923,-1.6208,-1.6961,-1.687,-1.6827,-1.7667,-1.7907,-1.8151,-1.8922,-1.9558,-2.0345,-2.1386,-2.1956,-2.2321,-2.2382,-2.2138,-2.1509,-2.03,-1.9814,-1.9372,-1.9003,-1.8567,-1.8181,-1.79,-1.7709,-1.7494,-1.7433,-1.7704,-1.7915,-1.7915,-1.7915,-1.7915,-1.7915,-1.7915,-1.7915,-1.7915,-1.7915,-1.7915,-1.7915,-1.7915,-1.7977,-1.8088,-1.8088,-1.815,-1.8302,-1.8302,-1.8302,-1.8302,-1.8302,-1.8302,-1.8357,-1.8757,-1.893,-1.8964,-1.9577,-1.9805,-1.9838,0.0,0.0,0.0,0.0,0.0,0.0,0.0,0.0,0.0,0.0,0.0,0.0,0.0,0.0,0.0,0.0,0.0,0.0,0.0,-0.4506,-0.5885,-0.7128,-0.8084,-0.8821,-0.9406,-0.9758,-1.0155,-1.0544,-1.0764,-1.078,-1.0588,-1.0188,-0.9829,-0.9507,-0.9465,-0.94,-0.9347,-1.0032,-1.0288,-1.0239,-1.0698,0.0,0.0,0.0,0.0,0.0,0.0,0.0,0.0,0.0,0.0,0.0,0.0,0.0,-1.075,-1.1082,-1.1836,-1.2845,-1.4113,-1.544,-1.6779,-1.8142,-1.7704,-1.7024,-1.7267,-1.7592,-1.7984,-1.8587,-1.973,-2.0773,-2.1345,-2.203,-2.2379,-2.1869,-2.1045,-2.0308,-1.9793,-1.9303,-1.8795,-1.842,-1.8206,-1.79,-1.7302,-1.7338,-1.7433,-1.7419,-1.7704,-1.7915,-1.7915,-1.7915,-1.7915,-1.7915,-1.7915,-1.7915,-1.7915,-1.7915,-1.7915,-1.7915,-1.7915,-1.815,-1.864,-1.864,-1.8964,-1.946,-1.946,-1.946,-1.946,-1.946,-1.946,-1.946,-1.9515,-1.9522,-1.9632,-2.0183,-2.045,-2.0505,0.0,0.0,0.0,0.0,0.0,0.0,0.0,0.0,0.0,0.0,0.0,0.0,0.0,0.0,0.0,0.0,0.0,0.0,0.0,-0.5135,-0.6377,-0.7868,-0.8369,-0.8946,-0.9661,-0.9987,-1.0307,-1.0666,-1.0835,-1.0835,-1.0661,-1.0302,-1.0015,-0.988,-0.9803,-0.9871,-1.0122,-1.0556,-1.0672,-1.0671,-1.0954,0.0,0.0,0.0,0.0,0.0,0.0,0.0,0.0,0.0,-1.0684,-1.0684,-1.0684,-1.0684,-1.0817,-1.1413,-1.2466,-1.3713,-1.4871,-1.648,-1.7972,-1.8638,-1.8494,-1.826,-1.8606,-1.8275,-1.8032,-1.8465,-1.9295,-2.0223,-2.1196,-2.2044,-2.2174,-2.1001,-2.0263,-1.9501,-1.8625,-1.814,-1.7801,-1.7644,-1.7632,-1.7606,-1.7338,-1.7473,-1.7507,-1.7507,-1.7758,-1.7915,-1.7915,-1.7915,-1.7915,-1.7915,-1.7915,-1.8033,-1.8412,-1.8412,-1.8585,-1.8964,-1.8585,-1.8702,-1.9254,-1.9254,-1.9405,-1.9577,-1.9577,-1.9577,-1.9577,-1.9577,-1.9577,-1.9632,-2.001,-2.0395,-2.0772,-2.1,-2.1063,-2.1118,0.0,0.0,0.0,0.0,0.0,0.0,0.0,0.0,0.0,0.0,0.0,0.0,0.0,0.0,0.0,0.0,0.0,0.0,-0.4897,-0.576,-0.6854,-0.8292,-0.862,-0.9065,-0.9683,-1.0003,-1.034,-1.0695,-1.0777,-1.0797,-1.0672,-1.0313,-1.0158,-1.0164,-1.0105,-1.0298,-1.0711,-1.0829,-1.0897,-1.0921,-1.1002,-1.09,0.0,0.0,0.0,0.0,0.0,0.0,0.0,0.0,-1.0649,-1.0649,-1.0649,-1.0749,-1.1029,-1.1803,-1.3017,-1.4334,-1.5609,-1.7248,-1.8702,-1.9124,-1.93,-1.943,-1.9447,-1.8655,-1.8018,-1.8256,-1.8781,-1.9544,-2.0764,-2.1241,-2.1088,-1.9975,-1.9321,-1.8656,-1.7717,-1.7392,-1.7209,-1.7256,-1.7358,-1.7419,-1.7419,-1.7507,-1.7595,-1.7595,-1.7772,-1.7915,-1.7915,-1.7915,-1.7977,-1.815,-1.815,-1.8412,-1.8964,-1.8964,-1.9309,-1.99,-1.946,-1.946,-1.99,-1.99,-2.001,-2.0183,-2.0183,-2.0183,-2.0183,-2.0183,-2.0183,-2.0183,-2.0623,-2.1063,-2.1384,-2.1384,-2.1425,-2.149,0.0,0.0,0.0,0.0,0.0,0.0,0.0,0.0,0.0,0.0,0.0,0.0,0.0,0.0,0.0,0.0,0.0,0.0,-0.5593,-0.6454,-0.7289,-0.818,-0.8793,-0.9206,-0.9481,-0.9835,-1.0213,-1.0695,-1.069,-1.0672,-1.0588,-1.0188,-1.0125,-1.0297,-1.0371,-1.0573,-1.0924,-1.0912,-1.0921,-1.0907,-1.0752,-1.0691,-1.0691,0.0,0.0,0.0,0.0,0.0,0.0,0.0,-1.0493,-1.0493,-1.0493,-1.0825,-1.1375,-1.234,-1.3394,-1.4591,-1.6349,-1.7704,-1.8817,-1.967,-2.0221,-2.0288,-1.9589,-1.8561,-1.7838,-1.789,-1.8314,-1.8974,-1.9825,-1.9529,-1.9076,-1.8664,-1.8177,-1.7657,-1.7281,-1.7195,-1.7256,-1.7405,-1.7426,-1.7426,-1.7426,-1.7507,-1.7595,-1.7595,-1.7772,-1.7915,-1.7915,-1.7915,-1.815,-1.8695,-1.8702,-1.9019,-1.9577,-1.9632,-1.99,-2.0505,-2.0505,-2.0505,-2.0505,-2.0505,-2.0827,-2.1384,-2.1384,-2.1384,-2.1384,-2.1384,-2.1384,-2.1384,-2.1384,-2.1384,-2.1384,-2.1384,-2.1514,-2.1716,0.0,0.0,0.0,0.0,0.0,0.0,0.0,0.0,0.0,0.0,0.0,0.0,0.0,0.0,0.0,0.0,0.0,0.0,-0.6242,-0.7135,-0.785,-0.8466,-0.8774,-0.9082,-0.9351,-0.9672,-1.0128,-1.0612,-1.053,-1.0471,-1.0433,-1.015,-1.0369,-1.0986,-1.0893,-1.1188,-1.1733,-1.1473,-1.1327,-1.1246,-1.109,-1.0968,-1.0846,0.0,0.0,0.0,0.0,0.0,0.0,0.0,0.0,0.0,-1.0779,-1.125,-1.1979,-1.3336,-1.4855,-1.637,-1.7546,-1.8852,-1.9973,-2.0098,-2.0048,-1.9916,-1.9501,-1.8766,-1.8002,-1.7469,-1.7602,-1.8004,-1.8726,-1.8803,-1.8641,-1.8111,-1.7956,-1.7784,-1.7295,-1.7378,-1.7473,-1.7521,-1.767,-1.7738,-1.7738,-1.7772,-1.7792,-1.7792,-1.7846,-1.7915,-1.7915,-1.826,-1.853,-1.8702,-1.9136,-1.9632,-2.0238,-2.0238,-2.0568,-2.1118,-2.1118,-2.1118,-2.1118,-2.1118,-2.1211,-2.1384,-2.1384,-2.1384,-2.1384,-2.1384,-2.1384,-2.1384,-2.1384,-2.1384,-2.1384,-2.1384,-2.1514,-2.174,0.0,0.0,0.0,0.0,0.0,0.0,0.0,0.0,0.0,0.0,-0.0123,-0.034,0.0,0.0,0.0,0.0,0.0,0.0,-0.695,-0.752,-0.8051,-0.8579,-0.8789,-0.9049,-0.9372,-0.959,-0.984,-1.0167,-1.0155,-1.0193,-1.0237,-1.0197,-1.0618,-1.1374,-1.1205,-1.1535,-1.2159,-1.164,-1.1382,-1.1315,-1.1104,-1.0934,-1.0826,0.0,0.0,0.0,0.0,0.0,0.0,0.0,0.0,0.0,-1.0876,-1.1479,-1.2359,-1.3864,-1.5575,-1.7198,-1.8243,-1.9623,-2.0704,-2.0401,-2.0408,-2.0298,-1.9572,-1.8568,-1.7677,-1.7192,-1.7082,-1.7186,-1.7651,-1.786,-1.7863,-1.7556,-1.7576,-1.7588,-1.733,-1.744,-1.7615,-1.7717,-1.7812,-1.7915,-1.7915,-1.7915,-1.7915,-1.7915,-1.8088,-1.8205,-1.8205,-1.8757,-1.9192,-1.9405,-1.975,-2.0246,-2.0835,-2.089,-2.1063,-2.1384,-2.1384,-2.1384,-2.1384,-2.1384,-2.1384,-2.1384,-2.1384,-2.1384,-2.1384,-2.1384,-2.1384,-2.1384,-2.1384,-2.1384,-2.1384,-2.1465,-2.162,-2.179,0.0,0.0,0.0,0.0,0.0,0.0,0.0,0.0,0.0,0.0,-0.034,-0.071,0.0,0.0,0.0,0.0,0.0,0.0,0.0,-0.7709,-0.8011,-0.8579,-0.88,-0.9092,-0.9465,-0.9459,-0.9454,-0.9454,-0.965,-0.9829,-0.9987,-1.0343,-1.0865,-1.1509,-1.1466,-1.1768,-1.2244,-1.1547,-1.1227,-1.1172,-1.0853,-1.0711,-1.0711,-1.0711,0.0,0.0,0.0,0.0,0.0,0.0,0.0,0.0,-1.0959,-1.1693,-1.2731,-1.4255,-1.5912,-1.7568,-1.8712,-2.0152,-2.1169,-2.064,-2.0985,-2.1067,-1.9712,-1.8263,-1.7206,-1.7164,-1.6872,-1.6622,-1.6772,-1.6876,-1.6985,-1.6998,-1.7121,-1.7263,-1.7419,-1.7521,-1.7717,-1.7902,-1.7915,-1.7915,-1.7915,-1.7915,-1.7922,-1.7977,-1.8412,-1.8702,-1.8757,-1.9364,-1.9955,-2.0505,-2.0568,-2.0835,-2.1384,-2.1384,-2.1384,-2.1384,-2.1384,-2.1384,-2.1384,-2.1384,-2.1384,-2.1384,-2.1384,-2.1384,-2.1384,-2.1384,-2.1384,-2.1384,-2.1384,-2.1384,-2.1425,-2.1651,-2.179,-2.1977,0.0,0.0,0.0,0.0,0.0,0.0,0.0,0.0,0.0,0.0,0.0,0.0,0.0,0.0,0.0,0.0,0.0,0.0,0.0,-0.7928,-0.8242,-0.8579,-0.8881,-0.9136,-0.934,-0.9258,-0.9174,-0.9174,-0.9449,-0.9622,-0.9785,-1.0264,-1.0913,-1.1663,-1.186,-1.2088,-1.2257,-1.1742,-1.1382,-1.1179,-1.0934,-1.0867,-1.0867,-1.0867,-1.0792,0.0,0.0,0.0,0.0,0.0,0.0,0.0,-1.1477,-1.254,-1.3928,-1.5524,-1.7375,-1.9085,-1.9861,-2.0951,-2.174,-2.1012,-2.0419,-1.9937,-1.956,-1.8786,-1.8114,-1.7808,-1.743,-1.7186,-1.7392,-1.719,-1.7019,-1.7127,-1.727,-1.7426,-1.7527,-1.7717,-1.7826,-1.786,-1.7915,-1.7915,-1.7915,-1.7915,-1.8088,-1.853,-1.864,-1.893,-1.9405,-1.9955,-2.0395,-2.0505,-2.0945,-2.1266,-2.1384,-2.1384,-2.1384,-2.1384,-2.1384,-2.1384,-2.1384,-2.1384,-2.1384,-2.1384,-2.1384,-2.1384,-2.1384,-2.1384,-2.1384,-2.1384,-2.1384,-2.1528,-2.1651,-2.1699,-2.1871,-2.2147,0.0,0.0,0.0,0.0,0.0,0.0,0.0,0.0,0.0,0.0,0.0,0.0,0.0,0.0,0.0,0.0,0.0,0.0,0.0,-0.8076,-0.8361,-0.8713,-0.8908,-0.9065,-0.9184,-0.9344,-0.932,-0.9203,-0.9719,-0.9936,-0.9919,-1.0704,-1.1397,-1.198,-1.2142,-1.2241,-1.225,-1.1653,-1.1267,-1.105,-1.0867,-1.0765,-1.0698,-1.0698,-1.0636,-1.0507,-1.0507,0.0,0.0,0.0,0.0,0.0,0.0,0.0,-1.3876,-1.5682,-1.7499,-1.9086,-1.9881,-2.0964,-2.178,-2.133,-2.0541,-1.9905,-1.982,-1.9395,-1.8978,-1.885,-1.8055,-1.7476,-1.7554,-1.7297,-1.7107,-1.7182,-1.7385,-1.75,-1.7575,-1.7772,-1.7915,-1.7915,-1.7915,-1.7915,-1.7915,-1.8143,-1.8412,-1.8695,-1.9254,-1.9687,-2.001,-2.0623,-2.0945,-2.0945,-2.1266,-2.1384,-2.1384,-2.1384,-2.1384,-2.1384,-2.1384,-2.1384,-2.1384,-2.1384,-2.1384,-2.1384,-2.1384,-2.1384,-2.1384,-2.1384,-2.1384,-2.1384,-2.149,-2.1634,-2.174,-2.1855,-2.2026,-2.2212,0.0,0.0,0.0,0.0,0.0,0.0,0.0,0.0,0.0,0.0,0.0,0.0,0.0,0.0,0.0,0.0,0.0,0.0,0.0,-0.8258,-0.847,-0.887,-0.8972,-0.9067,-0.9171,-0.9537,-0.9596,-0.9375,-1.0165,-1.048,-1.0374,-1.139,-1.2011,-1.238,-1.2441,-1.24,-1.2203,-1.1567,-1.1097,-1.0826,-1.0725,-1.0629,-1.0493,-1.0521,-1.0439,-1.0317,-1.0317,-1.0378,-1.046,-1.048,0.0,0.0,0.0,0.0,-1.3547,-1.549,-1.7183,-1.8609,-1.9455,-2.0578,-2.149,-2.1465,-2.0824,-2.0159,-2.0137,-1.9765,-1.9462,-1.964,-1.8665,-1.7738,-1.776,-1.7478,-1.7202,-1.7229,-1.7467,-1.7595,-1.7629,-1.7792,-1.7915,-1.7915,-1.7977,-1.8033,-1.8033,-1.853,-1.893,-1.9019,-1.9955,-2.0568,-2.0623,-2.1118,-2.1384,-2.1384,-2.1384,-2.1384,-2.1384,-2.1384,-2.1384,-2.1384,-2.1384,-2.1384,-2.1384,-2.1384,-2.1384,-2.1384,-2.1384,-2.1439,-2.1557,-2.1581,-2.1653,-2.1771,-2.1969,-2.2051,-2.2117,-2.2422,-2.2546,-2.2587,0.0,0.0,0.0,0.0,0.0,0.0,0.0,0.0,0.0,0.0,-0.2897,-0.3789,-0.5053,-0.5579,0.0,0.0,0.0,0.0,-0.8156,0.0,0.0,-0.8825,-0.9205,-0.9446,-0.9463,-0.9658,-0.9785,-0.9749,-1.0493,-1.1021,-1.1338,-1.2101,-1.2518,-1.2576,-1.3057,-1.282,-1.2104,-1.1708,-1.1165,-1.0561,-1.0677,-1.0629,-1.0507,-1.0636,-1.0595,-1.0466,-1.0466,-1.0399,-1.0331,-1.0453,-1.0702,0.0,0.0,0.0,-1.4189,-1.5867,-1.7353,-1.8639,-1.9345,-2.0075,-2.0719,-2.0856,-2.0538,-2.0146,-1.9828,-1.9411,-1.9096,-1.9261,-1.8749,-1.8344,-1.8425,-1.7759,-1.7236,-1.7365,-1.748,-1.7684,-1.7868,-1.7902,-1.7915,-1.7915,-1.8302,-1.8585,-1.8585,-1.9136,-1.9687,-2.0238,-2.0395,-2.0717,-2.1266,-2.1384,-2.1384,-2.1384,-2.1384,-2.1384,-2.1384,-2.1384,-2.1384,-2.1384,-2.1384,-2.1384,-2.1384,-2.1384,-2.1384,-2.1384,-2.1384,-2.1705,-2.2168,-2.2375,-2.2736,-2.326,-2.3444,-2.3571,-2.3701,-2.3714,-2.3884,-2.4023,0.0,0.0,0.0,0.0,0.0,0.0,0.0,0.0,0.0,0.0,0.0,-0.4711,-0.5851,-0.6434,0.0,0.0,0.0,0.0,-0.8188,-0.8448,0.0,-0.907,-0.9263,-0.9463,-0.9668,-0.9989,-1.009,-1.0009,-1.0868,-1.157,-1.2058,-1.3001,-1.3334,-1.3175,-1.3327,-1.2996,-1.2277,-1.1816,-1.1245,-1.0718,-1.0786,-1.0772,-1.0732,-1.0914,-1.0826,-1.0622,-1.0622,-1.0473,-1.0322,-1.0383,-1.05,-1.076,-1.1548,0.0,0.0,0.0,-1.6825,-1.8111,-1.9335,-1.9821,-2.0013,-2.033,-2.0281,-2.001,-1.9417,-1.9175,-1.904,-1.88,-1.8373,-1.809,-1.8163,-1.7692,-1.7344,-1.7412,-1.7616,-1.7902,-1.8302,-1.8357,-1.8474,-1.8798,-1.9081,-1.9192,-1.9192,-1.975,-2.0183,-2.0505,-2.0827,-2.1118,-2.1384,-2.1384,-2.1384,-2.1384,-2.1384,-2.1384,-2.1384,-2.1384,-2.1557,-2.1878,-2.1878,-2.2088,-2.2371,-2.2371,-2.2198,-2.1878,-2.1878,-2.232,-2.2973,-2.306,-2.333,-2.3676,-2.3861,-2.3945,-2.4033,-2.4129,-2.4217,-2.4288,0.0,0.0,0.0,0.0,0.0,0.0,0.0,0.0,0.0,0.0,0.0,-0.5632,-0.6556,0.0,0.0,0.0,0.0,0.0,-0.8272,0.0,0.0,0.0,-0.9452,-0.9633,-0.9903,-1.0248,-1.0398,-1.0326,-1.1147,-1.1884,-1.2522,-1.3539,-1.3939,-1.3754,-1.3682,-1.3234,-1.2522,-1.1965,-1.145,-1.0975,-1.1056,-1.1083,-1.111,-1.1362,-1.1287,-1.1056,-1.1016,-1.0765,-1.0453,-1.0453,-1.0378,-1.0446,-1.1299,-1.2151,0.0,0.0,0.0,-1.7719,-1.9221,-1.9559,-1.9603,-1.9851,-2.0004,-1.9924,-1.9052,-1.8899,-1.8777,-1.8344,-1.7889,-1.7601,-1.7601,-1.7454,-1.7418,-1.7526,-1.7799,-1.8191,-1.8739,-1.8794,-1.8965,-1.9404,-1.9645,-1.973,-1.973,-2.0317,-2.0717,-2.0717,-2.1172,-2.1384,-2.1384,-2.1384,-2.1384,-2.1384,-2.1557,-2.165,-2.165,-2.176,-2.2088,-2.2518,-2.2518,-2.2699,-2.3073,-2.318,-2.3051,-2.2823,-2.2667,-2.3028,-2.3721,-2.3819,-2.4055,-2.431,-2.4469,-2.4532,-2.4558,-2.4702,-2.4746,-2.4746,0.0,0.0,0.0,0.0,0.0,0.0,0.0,0.0,0.0,0.0,0.0,0.0,-0.7261,-0.7388,-0.7536,-0.7872,-0.7903,0.0,0.0,0.0,0.0,0.0,0.0,0.0,-1.0166,-1.0392,-1.0549,-1.0658,-1.1179,-1.1782,-1.2522,-1.3389,-1.4,-1.4265,-1.4258,-1.3682,-1.2645,-1.223,-1.173,-1.1213,-1.147,-1.155,-1.1597,-1.2067,-1.2135,-1.2009,-1.1823,-1.1367,-1.088,-1.088,-1.0629,-1.0467,-1.1404,-1.2106,-1.2898,0.0,0.0,0.0,-1.8889,-1.9343,-1.9573,-1.9445,-1.9696,-1.9706,-1.8962,-1.8455,-1.81,-1.7896,-1.7391,-1.7031,-1.7031,-1.7153,-1.7368,-1.79,-1.8141,-1.8463,-1.9009,-1.9063,-1.9117,-1.9117,-1.9745,-2.0163,-2.0163,-2.0896,-2.1329,-2.1329,-2.1384,-2.1384,-2.1384,-2.1384,-2.1384,-2.1384,-2.1932,-2.2261,-2.2261,-2.2754,-2.3018,-2.3073,-2.3073,-2.3073,-2.3128,-2.3339,-2.3758,-2.4145,-2.3648,-2.3758,-2.4283,-2.4665,-2.5168,-2.5714,-2.5912,-2.6006,-2.6006,-2.6006,-2.6006,-2.6006,0.0,0.0,0.0,0.0,0.0,0.0,0.0,0.0,0.0,0.0,0.0,0.0,0.0,-0.7597,-0.778,-0.7903,-0.8091,0.0,0.0,0.0,0.0,0.0,0.0,0.0,-1.0518,-1.0604,-1.0663,-1.0684,-1.1172,-1.1728,-1.2386,-1.3186,-1.3715,-1.3971,-1.4306,-1.396,-1.3139,-1.2826,-1.2383,-1.1904,-1.2108,-1.2359,-1.2657,-1.301,-1.3112,-1.3051,-1.2895,-1.2393,-1.1798,-1.1761,-1.1426,-1.115,-1.162,-1.2176,-1.3039,-1.4873,-1.6116,-1.7192,-1.8374,-1.8694,-1.8812,-1.938,-1.9495,-1.9336,-1.8934,-1.8643,-1.8364,-1.8078,-1.7952,-1.7928,-1.7928,-1.7506,-1.7355,-1.7886,-1.8181,-1.8603,-1.957,-1.9677,-1.9838,-2.0213,-2.0587,-2.0799,-2.0799,-2.1185,-2.1384,-2.1384,-2.176,-2.1996,-2.1996,-2.2316,-2.2463,-2.2463,-2.2699,-2.2808,-2.2808,-2.3018,-2.3309,-2.3683,-2.3683,-2.3965,-2.4431,-2.4559,-2.4781,-2.5078,-2.4984,-2.5096,-2.5273,-2.5423,-2.5667,-2.6025,-2.6044,-2.6129,-2.6129,-2.6129,-2.6129,-2.6129,0.0,0.0,0.0,0.0,0.0,0.0,0.0,0.0,-0.6345,-0.678,0.0,0.0,0.0,0.0,-0.824,-0.8364,-0.8545,-0.8711,-0.8857,-0.9124,0.0,0.0,0.0,0.0,-1.0684,-1.067,-1.0637,-1.0684,-1.107,-1.1525,-1.2081,-1.2773,-1.3234,-1.3443,-1.3939,-1.3838,-1.3308,-1.3105,-1.2799,-1.2461,-1.2705,-1.3192,-1.3804,-1.4122,-1.4409,-1.4646,-1.4435,-1.4053,-1.3645,-1.3435,-1.302,-1.2593,-1.2623,-1.2949,-1.3636,-1.5271,-1.6197,-1.6922,-1.8057,-1.8404,-1.86,-1.9248,-1.942,-1.934,-1.8951,-1.8972,-1.8829,-1.8209,-1.8285,-1.8392,-1.8239,-1.784,-1.7734,-1.8375,-1.8637,-1.9075,-2.0253,-2.0412,-2.0624,-2.1199,-2.1419,-2.1508,-2.162,-2.1787,-2.1929,-2.197,-2.2316,-2.2581,-2.2581,-2.29,-2.3191,-2.3401,-2.3401,-2.351,-2.3683,-2.3683,-2.4028,-2.4713,-2.4713,-2.5135,-2.5906,-2.5983,-2.6109,-2.6235,-2.6467,-2.628,-2.5827,-2.5846,-2.6007,-2.6129,-2.6129,-2.6129,-2.6129,-2.6129,-2.6129,-2.6129,0.0,0.0,0.0,0.0,0.0,0.0,0.0,0.0,-0.7719,-0.7714,0.0,0.0,0.0,0.0,0.0,-0.929,-0.9205,-0.9256,-0.9592,-0.9747,0.0,0.0,0.0,0.0,-1.0684,-1.0575,-1.0568,-1.0684,-1.084,-1.1137,-1.1584,-1.2203,-1.2556,-1.2686,-1.3166,-1.3275,-1.3166,-1.3057,-1.2888,-1.2753,-1.3241,-1.4034,-1.4966,-1.5402,-1.6105,-1.6814,-1.6491,-1.6456,-1.6415,-1.5884,-1.5366,-1.4871,-1.4444,-1.4433,-1.4658,-1.5467,-1.6337,-1.7167,0.0,0.0,0.0,-1.9,-1.9472,-1.9694,-1.8983,-1.9272,-1.9371,-1.8285,-1.8343,-1.8483,-1.7996,-1.8022,-1.8494,-1.9407,-1.9522,-1.9895,-2.1041,-2.1197,-2.1405,-2.1925,-2.2161,-2.2354,-2.2592,-2.2741,-2.2871,-2.3056,-2.3137,-2.3137,-2.3137,-2.3191,-2.3455,-2.4065,-2.4065,-2.4337,-2.4946,-2.4946,-2.5333,-2.613,-2.613,-2.6523,-2.7307,-2.752,-2.7621,-2.7651,-2.7863,-2.72,-2.5855,-2.6054,-2.6187,-2.6187,-2.6187,-2.6187,-2.6187,-2.6187,-2.6187,-2.6187,0.0,0.0,0.0,0.0,0.0,-0.7285,-0.7419,-0.7689,-0.7908,0.0,0.0,0.0,-0.8789,-0.919,-0.9437,-0.9437,-0.9626,-0.9749,-0.9741,-0.9996,-1.026,-1.0426,-1.0514,-1.0609,-1.0684,-1.0644,-1.0644,-1.0684,-1.084,-1.1029,-1.1336,-1.1681,-1.1901,-1.205,-1.2325,-1.2345,-1.225,-1.2969,-1.3254,-1.3268,-1.3824,-1.4673,-1.5641,-1.6608,-1.7693,-1.8688,-1.8592,-1.8914,-1.9329,-1.8528,-1.8099,-1.752,-1.5863,-1.5039,-1.49,-1.5666,-1.6395,-1.7148,-1.8237,0.0,0.0,0.0,0.0,0.0,-1.9821,-1.9634,-1.9372,-1.9207,-1.9347,-1.9556,-1.9537,-1.9664,-1.9915,-2.03,-1.9962,-2.0081,-2.1397,-2.1577,-2.1673,-2.1968,-2.2161,-2.2354,-2.2592,-2.2741,-2.2871,-2.3056,-2.351,-2.3947,-2.4392,-2.5154,-2.5698,-2.587,-2.587,-2.6048,-2.6435,-2.6435,-2.6599,-2.6965,-2.6965,-2.7151,-2.752,-2.7601,-2.7702,-2.7863,-2.7981,-2.78,-2.7409,-2.7459,-2.7489,-2.7489,-2.7489,-2.7489,-2.7489,-2.7489,-2.7489,-2.7489,0.0,0.0,-0.6939,-0.7123,-0.7752,-0.8229,-0.8293,-0.84,-0.8588,0.0,0.0,0.0,-0.992,-1.02,-1.036,-1.0363,-1.0391,-1.032,-1.0175,-1.0302,-1.0405,-1.0487,-1.0555,-1.0629,-1.0684,-1.0684,-1.0684,-1.0684,-1.0779,-1.0894,-1.0982,-1.1226,-1.1347,-1.1435,-1.1687,-1.1769,-1.1759,-1.2596,-1.3044,-1.3322,-1.4267,-1.5588,-1.7132,-1.8291,-1.9941,-2.1543,-2.1342,-2.184,-2.2465,-2.1441,-2.0526,-1.958,-1.7818,-1.6798,-1.6359,-1.6969,-1.7401,-1.7941,-1.9068,-1.9331,-1.9442,-1.9911,0.0,0.0,-1.9993,-1.9955,-1.9823,-1.9566,-1.9848,-2.0098,-2.0113,-2.0328,-2.0663,-2.1183,-2.1054,-2.1136,-2.2012,-2.2465,-2.2816,-2.3184,-2.338,-2.3675,-2.3965,-2.4105,-2.4248,-2.4527,-2.4882,-2.5263,-2.5599,-2.625,-2.667,-2.6761,-2.6772,-2.6873,-2.715,-2.715,-2.7372,-2.7865,-2.7865,-2.809,-2.8496,-2.8496,-2.8605,-2.875,-2.875,-2.875,-2.875,-2.875,-2.8466,-2.8011,-2.8011,-2.8011,-2.8011,-2.8011,-2.8011,-2.8011,0.0,0.0,-0.828,-0.8387,-0.8832,-0.9136,-0.9136,-0.9316,-0.9538,0.0,-1.0057,-1.0493,-1.1384,-1.1464,-1.154,-1.1671,-1.1259,-1.0934,-1.0785,-1.0629,-1.0534,-1.0521,-1.0649,-1.0698,-1.0711,-1.0711,-1.0711,-1.0711,-1.0711,-1.0704,-1.0691,-1.0826,-1.0887,-1.0901,-1.1199,-1.1402,-1.1536,-1.204,-1.2592,-1.3279,-1.47,-1.6697,-1.9011,-2.0294,-2.2434,-2.4748,-2.4251,-2.4778,-2.5553,-2.4277,-2.2729,-2.1131,-2.0078,-1.9191,-1.8547,-1.8841,-1.8992,-1.9231,-2.0217,-2.0279,-2.0151,-2.0272,-2.0427,0.0,-2.003,-2.0294,-2.0476,-1.9699,-1.9978,-2.026,-2.0078,-2.0393,-2.0972,-2.1911,-2.2438,-2.2757,-2.2823,-2.3593,-2.4332,-2.486,-2.5164,-2.5457,-2.5882,-2.5985,-2.6114,-2.6559,-2.6674,-2.6684,-2.6684,-2.6738,-2.6894,-2.7163,-2.7163,-2.7295,-2.754,-2.754,-2.7921,-2.8719,-2.8719,-2.9106,-2.9828,-2.9828,-2.9828,-2.9884,-2.9884,-2.9952,-2.9987,-2.9987,-2.9307,-2.8218,-2.8218,-2.8218,-2.8218,-2.8218,-2.8218,-2.8218,0.0,-0.7912,-0.8392,-0.854,-0.9053,-0.9416,-0.9416,-0.9893,-1.0263,-1.024,-1.1013,-1.1856,-1.2594,-1.2513,-1.237,-1.2182,-1.1813,-1.1491,-1.1138,-1.0941,-1.0772,-1.0683,-1.0704,-1.0745,-1.0867,-1.0874,-1.0874,-1.0874,-1.0874,-1.0806,-1.0684,-1.0718,-1.0732,-1.0732,-1.0826,-1.0901,-1.1083,-1.1644,-1.2768,-1.4253,-1.5585,-1.7599,-1.9927,-2.1744,-2.3977,-2.614,-2.5708,-2.6567,-2.7649,-2.599,-2.4277,-2.2634,-2.1662,-2.0563,-1.9783,-2.0318,-2.0402,-2.0499,-2.1366,-2.1559,-2.151,-2.1534,-2.1506,0.0,-2.1325,-2.0907,-2.0494,-2.0314,-2.0119,-2.0043,-2.0137,-2.0682,-2.1261,-2.1851,-2.3089,-2.3952,-2.3676,-2.4157,-2.4608,-2.4891,-2.5164,-2.5397,-2.5659,-2.568,-2.5872,-2.6317,-2.695,-2.7324,-2.7324,-2.7767,-2.8143,-2.8377,-2.8377,-2.8579,-2.8995,-2.8995,-2.9178,-2.9583,-2.9583,-2.9671,-2.9828,-2.9828,-3.0043,-3.0506,-3.0506,-3.0778,-3.124,-3.124,-3.0563,-2.9431,-2.9431,-2.9431,-2.9431,-2.9431,-2.9431,-2.9431,-0.7947,-0.8432,-0.8813,-0.9023,-0.9577,-1.002,-1.0082,-1.0701,-1.1266,-1.1509,-1.2469,-1.3291,-1.3614,-1.3559,-1.3363,-1.299,-1.261,-1.2176,-1.1683,-1.1402,-1.1144,-1.0948,-1.0941,-1.0941,-1.0914,-1.0914,-1.088,-1.0799,-1.0799,-1.0765,-1.0684,-1.0684,-1.0825,-1.1108,-1.1211,-1.1481,-1.1874,-1.2544,-1.3958,-1.5868,-1.6713,-1.8866,-2.1791,-2.3777,-2.6151,-2.8346,-2.8141,-2.8437,-2.8693,-2.7483,-2.6005,-2.4552,-2.3603,-2.2664,-2.1956,-2.2359,-2.2293,-2.2292,-2.3057,-2.2959,-2.2693,-2.2826,-2.2409,0.0,0.0,-2.1368,-2.087,-2.0802,-2.0723,-2.0723,-2.0959,-2.1357,-2.1837,-2.2445,-2.3477,-2.4252,-2.4484,-2.5249,-2.5904,-2.6318,-2.6555,-2.6896,-2.72,-2.7232,-2.7382,-2.779,-2.8304,-2.8606,-2.8606,-2.8995,-2.9389,-2.9744,-2.9744,-3.001,-3.0476,-3.0487,-3.0565,-3.0687,-3.0687,-3.0687,-3.0687,-3.0687,-3.0845,-3.115,-3.115,-3.1308,-3.1578,-3.1578,-3.124,-3.0687,-3.0687,-3.0687,-3.0687,-3.0687,-3.0687,-3.0687,-0.8575,-0.8941,-0.9322,-0.9696,-1.0242,-1.0691,-1.0888,-1.1627,-1.2401,-1.3118,-1.3931,-1.4496,-1.455,-1.4529,-1.4346,-1.3926,-1.3451,-1.2962,-1.2356,-1.1945,-1.1613,-1.1342,-1.1274,-1.1151,-1.1002,-1.0968,-1.088,-1.0732,-1.0732,-1.0718,-1.0684,-1.0718,-1.1047,-1.158,-1.1926,-1.2448,-1.3157,-1.3908,-1.5497,-1.7652,-1.8145,-2.0465,-2.3811,-2.5744,-2.8087,-3.0323,-3.0312,-2.996,-2.9303,-2.8495,-2.742,-2.6263,-2.5278,-2.4561,-2.4096,-2.4243,-2.4144,-2.4069,-2.4693,-2.4282,-2.3764,-2.3909,-2.3237,-2.2461,0.0,0.0,0.0,-2.1251,-2.1295,-2.1402,-2.1551,-2.1875,-2.2287,-2.2894,-2.3572,-2.4301,-2.4971,-2.6053,-2.6971,-2.7513,-2.7867,-2.8209,-2.8569,-2.8695,-2.8832,-2.9037,-2.9386,-2.9591,-2.9637,-2.9877,-3.0242,-3.0722,-3.079,-3.103,-3.1521,-3.1556,-3.1578,-3.1578,-3.1578,-3.1578,-3.1578,-3.1578,-3.1646,-3.1792,-3.1792,-3.186,-3.1928,-3.1928,-3.1951,-3.1985,-3.1702,-3.1578,-3.1578,-3.1578,-3.1613,-3.1703,-0.9342,-0.9502,-0.9851,-1.0625,-1.0984,-1.129,-1.1546,-1.2443,-1.345,-1.4615,-1.4964,-1.5187,-1.5411,-1.5364,-1.516,-1.4894,-1.4329,-1.3731,-1.3125,-1.2522,-1.2074,-1.1769,-1.1504,-1.1355,-1.1341,-1.124,-1.107,-1.0887,-1.0887,-1.0819,-1.0691,-1.0826,-1.1206,-1.1813,-1.2672,-1.3455,-1.42,-1.5287,-1.7004,-1.9084,-2.0252,-2.2401,-2.5176,-2.6905,-2.8912,-3.0828,-3.1055,-3.0662,-2.9835,-2.8607,-2.7693,-2.681,-2.5777,-2.5247,-2.5088,-2.5275,-2.5324,-2.533,-2.5574,-2.5246,-2.4776,-2.4547,-2.3884,-2.3222,-2.3043,0.0,-2.1662,-2.1623,0.0,-2.1086,-2.088,0.0,0.0,-2.2209,-2.3321,-2.4358,-2.4933,-2.5543,-2.6151,-2.6645,-2.719,-2.7509,-2.7566,-2.7965,-2.8177,-2.8211,-2.8706,-2.9082,-2.9351,-2.9614,-2.9979,-3.0416,-3.0699,-3.0918,-3.1247,-3.1464,-3.1578,-3.1578,-3.1578,-3.1578,-3.1578,-3.1578,-3.186,-3.2411,-3.2411,-3.2691,-3.322,-3.322,-3.334,-3.3443,-3.2133,-3.1578,-3.1578,-3.1578,-3.1738,-3.1978,-0.9826,-0.9923,-1.0174,-1.0798,-1.1314,-1.177,-1.2177,-1.3255,-1.4378,-1.5222,-1.5635,-1.592,-1.608,-1.6252,-1.6164,-1.5784,-1.5438,-1.4909,-1.4129,-1.3607,-1.3071,-1.2508,-1.2284,-1.2006,-1.1653,-1.1504,-1.1274,-1.0914,-1.0826,-1.0752,-1.0691,-1.084,-1.1378,-1.23,-1.3494,-1.4764,-1.6123,-1.7552,-1.9467,-2.1694,-2.3027,-2.5108,-2.7509,-2.8069,-2.9676,-3.166,-3.1767,-3.1486,-3.0899,-2.9741,-2.8974,-2.8287,-2.7385,-2.6913,-2.6718,-2.6792,-2.6711,-2.6647,-2.6921,-2.6319,-2.5656,-2.5578,-2.4451,-2.3378,-2.3309,-2.2519,-2.1903,-2.2239,0.0,0.0,0.0,0.0,0.0,0.0,-2.3171,-2.3731,-2.4234,-2.4632,-2.528,-2.6462,-2.6934,-2.7275,-2.7617,-2.8075,-2.831,-2.8146,-2.8949,-2.9467,-2.9573,-3.0269,-3.0823,-3.12,-3.1601,-3.1998,-3.2246,-3.2505,-3.2659,-3.2659,-3.2659,-3.2659,-3.2659,-3.2659,-3.2759,-3.3028,-3.3028,-3.3248,-3.363,-3.363,-3.3762,-3.3959,-3.3326,-3.3107,-3.3072,-3.2942,-3.3037,-3.3261,-1.0452,-1.0463,-1.0567,-1.1126,-1.1695,-1.2298,-1.3015,-1.4115,-1.5059,-1.5742,-1.6273,-1.6639,-1.6863,-1.7127,-1.7154,-1.6829,-1.6585,-1.6103,-1.5235,-1.4733,-1.4122,-1.3459,-1.3125,-1.2652,-1.205,-1.1857,-1.1518,-1.1036,-1.0914,-1.0819,-1.0752,-1.0948,-1.1621,-1.2732,-1.4332,-1.6069,-1.7937,-1.9784,-2.183,-2.3949,-2.5244,-2.7253,-2.9534,-2.9716,-3.087,-3.241,-3.2338,-3.2181,-3.182,-3.0692,-2.9977,-2.9491,-2.8595,-2.8214,-2.8072,-2.7849,-2.7771,-2.7763,-2.7799,-2.7135,-2.6387,-2.617,-2.4836,-2.3595,-2.3451,-2.2742,-2.2272,-2.2804,-2.2852,0.0,0.0,0.0,-2.2816,-2.2864,0.0,-2.3082,-2.3369,-2.3575,-2.4287,-2.5849,-2.6343,-2.6789,-2.7425,-2.7801,-2.8006,-2.7993,-2.8837,-2.9453,-2.967,-3.0636,-3.1336,-3.1686,-3.2205,-3.2616,-3.2881,-3.3147,-3.3304,-3.3376,-3.3376,-3.3376,-3.3376,-3.3376,-3.3376,-3.3376,-3.3473,-3.3593,-3.3799,-3.3859,-3.4052,-3.4281,-3.4221,-3.4281,-3.4399,-3.4016,-3.4052,-3.4281,-1.1402,-1.1206,-1.1145,-1.1912,-1.2305,-1.2909,-1.4221,-1.4869,-1.5486,-1.6374,-1.6883,-1.7331,-1.7827,-1.7968,-1.8057,-1.8036,-1.7629,-1.7121,-1.6503,-1.5778,-1.5099,-1.4489,-1.3905,-1.3281,-1.2672,-1.2271,-1.1866,-1.1375,-1.1261,-1.1077,-1.0914,-1.124,-1.1882,-1.2905,-1.507,-1.7212,-1.9284,-2.167,-2.3671,-2.5343,-2.6389,-2.8335,-3.0693,-3.2001,-3.2688,-3.2917,-3.2652,-3.2555,-3.2392,-3.1012,-3.0405,-2.9983,-2.8905,-2.8774,-2.8825,-2.8013,-2.8164,-2.8475,-2.7956,-2.7413,-2.6777,-2.5993,-2.4981,-2.4041,-2.3535,-2.3019,-2.2816,-2.3282,-2.3212,-2.307,-2.3082,-2.307,-2.2901,0.0,-2.2538,0.0,0.0,-2.2357,-2.2911,-2.4463,-2.5114,-2.5752,-2.656,-2.6644,-2.6861,-2.7413,-2.7944,-2.8596,-2.9381,-3.0189,-3.0865,-3.1384,-3.1928,-3.2338,-3.2592,-3.2912,-3.3111,-3.3376,-3.3376,-3.3376,-3.3376,-3.3376,-3.3376,-3.3432,-3.3666,-3.3787,-3.3823,-3.4052,-3.4375,-3.4535,-3.4281,-3.4511,-3.4932,-3.4399,-3.4342,-3.4571,-1.187,-1.1878,-1.1922,-1.2182,-1.2542,-1.3261,-1.4611,-1.5276,-1.5962,-1.672,-1.7297,-1.7812,-1.8247,-1.862,-1.883,-1.883,-1.8599,-1.8199,-1.7602,-1.6951,-1.6279,-1.5581,-1.5072,-1.4482,-1.3783,-1.3227,-1.2678,-1.2128,-1.1775,-1.1477,-1.1246,-1.145,-1.2051,-1.3078,-1.5182,-1.7594,-2.031,-2.2887,-2.534,-2.7665,-2.9601,-3.1118,-3.2253,-3.2694,-3.2917,-3.2954,-3.2688,-3.2592,-3.2471,-3.1449,-3.1073,-3.0929,-3.0363,-3.001,-2.9718,-2.9455,-2.9269,-2.9103,-2.8922,-2.8343,-2.7655,-2.7039,-2.5632,-2.4403,-2.4234,-2.355,-2.3203,-2.4005,-2.4154,-2.4154,-2.4335,-2.4082,0.0,0.0,0.0,-2.2332,0.0,-2.1885,-2.2103,-2.2959,-2.384,-2.4523,-2.4969,-2.5487,-2.5873,-2.6054,-2.7087,-2.7956,-2.8572,-2.9719,-3.0588,-3.1119,-3.1662,-3.2145,-3.2592,-3.2857,-3.3111,-3.3376,-3.3376,-3.3376,-3.3376,-3.3376,-3.3376,-3.3432,-3.3666,-3.3895,-3.4088,-3.4342,-3.4607,-3.4837,-3.474,-3.4859,-3.4933,-3.4571,-3.4607,-3.4837,-1.2271,-1.242,-1.2508,-1.2454,-1.2949,-1.3778,-1.4921,-1.5642,-1.6381,-1.7188,-1.7868,-1.8375,-1.8884,-1.9237,-1.9468,-1.9522,-1.9345,-1.9027,-1.8511,-1.7968,-1.7465,-1.7027,-1.6556,-1.6049,-1.5466,-1.465,-1.3846,-1.3221,-1.2476,-1.1972,-1.1669,-1.1674,-1.2212,-1.3251,-1.5239,-1.779,-2.0796,-2.3754,-2.6464,-2.8969,-3.1368,-3.2592,-3.3033,-3.313,-3.3111,-3.313,-3.2821,-3.2652,-3.2495,-3.1879,-3.1614,-3.1493,-3.1228,-3.0902,-3.06,-3.0407,-3.0045,-2.967,-2.9574,-2.9031,-2.8343,-2.7715,-2.6403,-2.5246,-2.5053,-2.4383,-2.4033,-2.4999,-2.5005,-2.4957,-2.5234,-2.4764,-2.4138,0.0,0.0,0.0,0.0,-2.1414,-2.1534,-2.197,-2.2754,-2.3427,-2.3872,-2.4475,-2.4945,-2.5234,-2.6307,-2.7304,-2.8029,-2.9248,-3.0214,-3.0841,-3.1384,-3.1964,-3.2592,-3.2748,-3.3014,-3.3376,-3.3376,-3.3376,-3.3376,-3.3376,-3.3376,-3.34,-3.3762,-3.4016,-3.4221,-3.4571,-3.4859,-3.5028,-3.5028,-3.5028,-3.4992,-3.4835,-3.4837,-3.5028,-1.2713,-1.2929,-1.3043,-1.2835,-1.3553,-1.4411,-1.512,-1.5988,-1.6876,-1.7772,-1.8466,-1.9065,-1.9671,-1.9861,-1.9963,-2.0098,-1.9854,-1.9576,-1.9271,-1.883,-1.8555,-1.8684,-1.8245,-1.7931,-1.7735,-1.6422,-1.5378,-1.4619,-1.3394,-1.2542,-1.2132,-1.1918,-1.2367,-1.3416,-1.5287,-1.7823,-2.0895,-2.4382,-2.7136,-2.9365,-3.1731,-3.2785,-3.3069,-3.328,-3.3376,-3.334,-3.3074,-3.2821,-3.2555,-3.229,-3.2036,-3.1783,-3.1493,-3.1397,-3.1288,-3.0793,-3.0455,-3.0202,-2.9924,-2.9477,-2.8886,-2.8101,-2.7259,-2.6536,-2.6005,-2.5475,-2.5318,-2.6122,-2.5837,-2.556,-2.5801,-2.5198,-2.4403,0.0,0.0,0.0,-2.0894,-2.0954,-2.122,-2.1498,-2.197,-2.2549,-2.3294,-2.3607,-2.4089,-2.4885,-2.568,-2.6629,-2.7703,-2.8777,-2.9743,-3.0564,-3.1095,-3.1759,-3.2592,-3.2592,-3.2857,-3.3376,-3.3376,-3.3376,-3.3376,-3.3376,-3.3432,-3.3437,-3.3956,-3.4185,-3.4245,-3.4764,-3.5028,-3.5028,-3.5028,-3.5028,-3.5028,-3.5028,-3.5028,-3.5028,-1.3463,-1.3903,-1.434,-1.4523,-1.4704,-1.5031,-1.5886,-1.6592,-1.7304,-1.8091,-1.8728,-1.9271,-1.9766,-2.0051,-2.0275,-2.0417,-2.0261,-2.0085,-1.9888,-1.9447,-1.9324,-1.9798,-1.967,-1.9625,-1.9689,-1.8652,-1.7478,-1.6152,-1.4685,-1.347,-1.2549,-1.2176,-1.2678,-1.3989,-1.5638,-1.8353,-2.1859,-2.4996,-2.8385,-3.1767,-3.2759,-3.3263,-3.328,-3.3396,-3.3376,-3.334,-3.3074,-3.2954,-3.2821,-3.235,-3.2157,-3.2048,-3.1783,-3.1553,-3.136,-3.1228,-3.0998,-3.0781,-3.0708,-3.031,-2.9803,-2.9393,-2.8536,-2.7715,-2.7377,-2.6849,-2.6584,-2.7027,-2.6957,-2.687,-2.6704,-2.6218,-2.5421,-2.4186,0.0,0.0,-2.1377,-2.1365,-2.151,-2.1776,-2.1921,-2.2236,-2.284,-2.313,-2.3502,-2.4065,-2.4849,-2.5776,-2.6837,-2.809,-2.9284,-3.0286,-3.0829,-3.1578,-3.2592,-3.2592,-3.2857,-3.3376,-3.3376,-3.3376,-3.3376,-3.3376,-3.3497,-3.3702,-3.4052,-3.4281,-3.4511,-3.4837,-3.5028,-3.5028,-3.5028,-3.5028,-3.5028,-3.5028,-3.5028,-3.5028,-1.4045,-1.4626,-1.5222,-1.5696,-1.592,-1.6144,-1.6456,-1.7121,-1.786,-1.8599,-1.9169,-1.982,-2.0637,-2.0859,-2.1153,-2.1626,-2.1421,-2.1258,-2.1188,-2.1099,-2.1236,-2.1774,-2.2196,-2.2416,-2.2552,-2.1196,-1.975,-1.8229,-1.6043,-1.4353,-1.313,-1.2564,-1.296,-1.4195,-1.5925,-1.8508,-2.1802,-2.6012,-2.9584,-3.2471,-3.3111,-3.3376,0.0,-3.3376,-3.3376,-3.3396,-3.3207,-3.3074,-3.2917,-3.2495,-3.229,-3.2157,-3.1891,-3.1698,-3.1578,-3.1578,-3.1384,-3.1167,-3.1167,-3.0781,-3.0322,-3.0045,-2.9344,-2.8656,-2.8403,-2.8017,-2.7799,-2.8018,-2.7932,-2.7679,-2.7425,-2.6737,-2.5668,-2.4101,-2.3043,-2.2284,-2.1909,-2.1958,-2.2042,-2.2079,-2.2175,-2.232,-2.2502,-2.2756,-2.3082,-2.3466,-2.4198,-2.5114,-2.6186,-2.75,-2.8813,-2.9996,-3.066,-3.1517,-3.2592,-3.2592,-3.2857,-3.3376,-3.3376,-3.3376,-3.3376,-3.3376,-3.3473,-3.363,-3.4016,-3.4281,-3.4438,-3.4859,-3.5028,-3.5028,-3.5028,-3.5028,-3.5028,-3.5028,-3.5028,-3.5028,-1.4767,-1.5364,-1.5972,-1.6598,-1.7182,-1.7453,-1.718,-1.7724,-1.8464,-1.9169,-1.9644,-2.0423,-2.1641,-2.1776,-2.2118,-2.3031,-2.28,-2.2629,-2.2606,-2.2879,-2.3307,-2.3894,-2.4811,-2.5354,-2.5514,-2.3892,-2.2172,-2.0397,-1.7443,-1.5228,-1.3752,-1.297,-1.3147,-1.4271,-1.6238,-1.8802,-2.2019,-2.7325,-3.0623,-3.2266,-3.3106,-3.3376,-3.3376,-3.3376,-3.3376,-3.3376,-3.3376,-3.3243,-3.3033,-3.2688,-3.2447,-3.2205,-3.1904,-3.1807,-3.1807,-3.1807,-3.1638,-3.1445,-3.1445,-3.1083,-3.0648,-3.0383,-2.9936,-2.9477,-2.9188,-2.8934,-2.8825,-2.9019,-2.8693,-2.827,-2.7968,-2.6954,-2.5572,-2.3897,-2.3369,-2.3022,-2.2574,-2.2671,-2.2695,-2.2429,-2.2574,0.0,-2.232,-2.2478,-2.2707,-2.301,-2.3671,-2.4523,-2.562,-2.6991,-2.8318,-2.9646,-3.0503,-3.1457,-3.2531,-3.2555,-3.2857,-3.3376,-3.3376,-3.3376,-3.3376,-3.3376,-3.3456,-3.3497,-3.3992,-3.4221,-3.4318,-3.4835,-3.5028,-3.5028,-3.5028,-3.5028,-3.5028,-3.5028,-3.5028,-3.5028,-1.6309,-1.6659,-1.7073,-1.7548,-1.8023,-1.8386,-1.8728,-1.8816,-1.9006,-1.9522,-1.9854,-2.045,-2.1492,-2.1719,-2.2118,-2.3031,-2.3058,-2.2919,-2.2778,-2.2718,-2.3213,-2.4399,-2.5402,-2.6159,-2.6678,-2.6081,-2.4394,-2.1498,-1.8786,-1.625,-1.3993,-1.3031,-1.3297,-1.4678,-1.6697,-2.0619,-2.5947,-2.8843,-3.0875,-3.2266,-3.3106,-3.3376,-3.3376,-3.3376,-3.3376,-3.3376,-3.3376,-3.3396,-3.3243,-3.2748,-3.2555,-3.2435,-3.1964,-3.1807,-3.1807,-3.1807,-3.1771,-3.1735,-3.1735,-3.1493,-3.1191,-3.0926,-3.0624,-3.0262,-2.9767,-2.9622,-2.9538,-2.9369,-2.926,-2.9043,-2.8572,-2.7018,-2.5608,-2.4849,-2.4125,-2.3631,-2.3535,-2.3378,-2.3212,-2.2973,-2.2792,-2.2586,-2.232,-2.2139,-2.2248,-2.2719,-2.3094,-2.3816,-2.5077,-2.6403,-2.7729,-2.9103,-3.0141,-3.1191,-3.2254,-3.2483,-3.2857,-3.3376,-3.3376,-3.3376,-3.3376,-3.3376,-3.363,-3.4052,-3.4149,-3.4438,-3.4895,-3.4933,-3.5028,-3.5028,-3.5028,-3.5028,-3.5028,-3.5028,-3.5028,-3.5028,-1.7127,-1.7521,-1.7914,-1.8375,-1.8816,-1.9291,-1.982,-2.0278,-2.0478,-2.0167,-2.0692,-2.1598,-2.2934,-2.3419,-2.4303,-2.5901,-2.5956,-2.6002,-2.6296,-2.6406,-2.673,-2.738,-2.8307,-2.8952,-2.9319,-2.82,-2.6419,-2.4006,-2.0321,-1.7362,-1.5119,-1.3899,-1.3984,-1.531,-1.8712,-2.2752,-2.7155,-2.9128,-3.0835,-3.2278,-3.3207,-3.3497,-3.3432,-3.3533,-3.3497,-3.3376,-3.3376,-3.3376,-3.336,-3.2917,-3.2743,-3.2519,-3.2133,-3.1916,-3.1807,-3.1807,-3.1807,-3.1807,-3.1807,-3.1602,-3.1324,-3.1059,-3.0805,-3.0503,-3.0105,-3.0008,-2.9972,-2.9851,-2.9707,-2.9369,-2.8548,-2.7449,-2.6391,-2.5716,-2.5174,-2.4788,-2.4644,-2.4403,-2.4089,-2.3707,-2.3309,-2.2911,-2.2538,-2.2139,-2.2066,-2.2453,-2.2731,-2.3396,-2.4523,-2.5981,-2.7391,-2.8765,-2.9984,-3.1119,-3.2193,-3.2459,-3.2857,-3.3376,-3.3376,-3.3376,-3.3376,-3.3533,-3.3726,-3.3992,-3.4281,-3.4535,-3.4823,-3.4956,-3.5028,-3.5028,-3.5028,-3.5028,-3.5028,-3.5028,-3.5028,-3.5028,-1.7913,-1.8335,-1.8742,-1.9149,-1.959,-2.0133,-2.0791,-2.1802,-2.2182,-2.1284,-2.2047,-2.3232,-2.4773,-2.542,-2.6581,-2.8647,-2.8688,-2.8866,-2.9541,-2.9804,-2.9953,-2.9991,-3.08,-3.1365,-3.1563,-2.9895,-2.8126,-2.6376,-2.192,-1.8624,-1.6442,-1.5118,-1.5345,-1.6981,-2.1117,-2.4628,-2.7568,-2.9336,-3.0963,-3.2447,-3.34,-3.369,-3.3569,-3.3726,-3.3666,-3.3473,-3.34,-3.3376,-3.3396,-3.3147,-3.2881,-3.2628,-3.2362,-3.2097,-3.1891,-3.1891,-3.1855,-3.1807,-3.1807,-3.165,-3.1409,-3.1143,-3.0877,-3.0624,-3.0358,-3.025,-3.0214,-3.0214,-2.9996,-2.9526,-2.862,-2.798,-2.7365,-2.6665,-2.6291,-2.5945,-2.5692,-2.5367,-2.4945,-2.4342,-2.3812,-2.327,-2.2744,-2.2272,-2.2079,-2.2284,-2.2538,-2.3155,-2.4138,-2.5608,-2.703,-2.8403,-2.9682,-3.089,-3.2012,-3.235,-3.2785,-3.3376,-3.3376,-3.3376,-3.3432,-3.3666,-3.3823,-3.3895,-3.4378,-3.4607,-3.4668,-3.4932,-3.5028,-3.5028,-3.5028,-3.5028,-3.5028,-3.5028,-3.5028,-3.5028,-1.9123,-1.9413,-1.9684,-1.9942,-2.037,-2.1034,-2.2015,-2.3171,-2.3762,-2.3361,-2.4005,-2.5079,-2.6655,-2.6735,-2.7294,-2.893,-2.8907,-2.9032,-2.9569,-2.9632,-2.9772,-3.0011,-3.0655,-3.1319,-3.186,-3.0821,-2.9328,-2.7303,-2.3485,-2.0297,-1.7698,-1.6667,-1.779,-2.0788,-2.3357,-2.588,-2.8326,-3.0119,-3.1664,-3.3009,-3.3569,-3.3919,-3.4088,-3.3859,-3.3762,-3.3726,-3.3473,-3.3376,-3.3376,-3.3396,-3.3171,-3.2936,-3.2628,-3.2374,-3.2169,-3.2169,-3.2,-3.1807,-3.1807,-3.1795,-3.1698,-3.1421,-3.1155,-3.089,-3.0624,-3.0383,-3.0214,-3.0214,-2.9996,-2.9695,-2.9357,-2.8656,-2.8029,-2.7715,-2.7244,-2.6777,-2.6524,-2.6042,-2.5427,-2.4644,-2.4089,-2.3463,-2.2768,-2.2429,-2.2272,-2.2296,-2.2538,-2.3155,-2.4138,-2.5246,-2.6475,-2.7848,-2.8946,-3.0141,-3.1445,-3.1976,-3.2628,-3.3376,-3.3376,-3.3376,-3.3432,-3.3666,-3.3919,-3.4149,-3.4438,-3.4762,-3.4933,-3.497,-3.5028,-3.5028,-3.5028,-3.5028,-3.5028,-3.5028,-3.5028,-3.5028,-1.9908,-2.0173,-2.0579,-2.1167,-2.158,-2.2317,-2.3835,-2.5278,-2.6481,-2.7309,-2.7199,-2.76,-2.9033,-2.9473,-3.0458,-3.2331,-3.2327,-3.2632,-3.3699,-3.3423,-3.3305,-3.3441,-3.3434,-3.3636,-3.4102,-3.2768,-3.1239,-2.9518,-2.5815,-2.2817,-2.0511,-1.9328,-2.0353,-2.3417,-2.5684,-2.7805,-2.9804,-3.1151,-3.2396,-3.3497,-3.4052,-3.4279,-3.4185,-3.4245,-3.4052,-3.3787,-3.3666,-3.3565,-3.3376,-3.3376,-3.3207,-3.3009,-3.2857,-3.2652,-3.241,-3.2242,-3.2121,-3.2012,-3.1855,-3.1807,-3.1747,-3.1457,-3.1191,-3.0926,-3.066,-3.0407,-3.0214,-3.0214,-3.0129,-2.996,-2.9695,-2.9248,-2.8789,-2.8367,-2.798,-2.7582,-2.7126,-2.6608,-2.5969,-2.5174,-2.4463,-2.3788,-2.32,-2.2925,-2.2768,-2.2768,-2.2719,-2.3082,-2.3909,-2.5114,-2.6391,-2.7775,-2.885,-3.0117,-3.1626,-3.2012,-3.2592,-3.3376,-3.3376,-3.3473,-3.363,-3.3895,-3.4245,-3.4668,-3.4764,-3.4932,-3.5028,-3.5028,-3.5028,-3.5028,-3.5028,-3.5028,-3.5028,-3.5028,-3.5028,-3.5028,-2.0614,-2.0858,-2.1322,-2.2137,-2.2502,-2.3382,-2.5289,-2.697,-2.8624,-3.0392,-3.0416,-3.0556,-3.1288,-3.1755,-3.2716,-3.4434,-3.4561,-3.4979,-3.6076,-3.5995,-3.5861,-3.5713,-3.537,-3.5351,-3.5697,-3.4213,-3.2736,-3.1326,-2.8051,-2.5363,-2.327,-2.2493,-2.3413,-2.5826,-2.8041,-2.9862,-3.1348,-3.2274,-3.3195,-3.4052,-3.4472,-3.4511,-3.4472,-3.4535,-3.4342,-3.4016,-3.3919,-3.3787,-3.3593,-3.3533,-3.3376,-3.3207,-3.3111,-3.2917,-3.2652,-3.2483,-3.2314,-3.2157,-3.1976,-3.1867,-3.1759,-3.1566,-3.1312,-3.1046,-3.0781,-3.0515,-3.031,-3.0238,-3.0214,-3.0153,-2.996,-2.9707,-2.9393,-2.9031,-2.8669,-2.8258,-2.7727,-2.709,-2.6415,-2.5608,-2.4873,-2.4222,-2.3692,-2.3502,-2.3396,-2.3324,-2.3288,-2.3478,-2.4005,-2.5222,-2.652,-2.7775,-2.885,-3.0141,-3.1674,-3.2024,-3.2592,-3.3376,-3.3376,-3.3533,-3.3799,-3.4149,-3.4547,-3.5028,-3.5028,-3.5028,-3.5028,-3.5028,-3.5028,-3.5028,-3.5028,-3.5028,-3.5028,-3.5028,-3.5028,-3.5028,-2.1341,-2.155,-2.1926,-2.2656,-2.2986,-2.3943,-2.6128,-2.7834,-2.9651,-3.1867,-3.3428,-3.4027,-3.335,-3.309,-3.3284,-3.3954,-3.4466,-3.4967,-3.5381,-3.6076,-3.6227,-3.5736,-3.5713,-3.5778,-3.5979,-3.4898,-3.3647,-3.2273,-2.9965,-2.7743,-2.5648,-2.6182,-2.7013,-2.825,-3.0477,-3.1903,-3.2603,-3.344,-3.4088,-3.4571,-3.4571,-3.474,-3.4933,-3.4668,-3.4571,-3.4535,-3.4281,-3.4185,-3.4182,-3.3883,-3.3787,-3.3726,-3.3473,-3.3239,-3.2978,-3.2978,-3.2646,-3.2205,-3.2193,-3.2012,-3.1807,-3.1807,-3.159,-3.1312,-3.1059,-3.0793,-3.0527,-3.0262,-3.0214,-3.0214,-3.0214,-2.9984,-2.9791,-2.9779,-2.9344,-2.8813,-2.827,-2.7522,-2.668,-2.5873,-2.5318,-2.4776,-2.4234,-2.4186,-2.4077,-2.3812,-2.427,-2.4559,-2.4571,-2.5596,-2.6701,-2.7775,-2.885,-3.0045,-3.1384,-3.1928,-3.2592,-3.3376,-3.3376,-3.3533,-3.3823,-3.4342,-3.4762,-3.5028,-3.5028,-3.5028,-3.5028,-3.5028,-3.5028,-3.5028,-3.5028,-3.5028,-3.5028,-3.5028,-3.5028,-3.5028,-2.1706,-2.2268,-2.3125,-2.4337,-2.5532,-2.7109,-2.9316,-3.0926,-3.2313,-3.3543,-3.4511,-3.4962,-3.477,-3.464,-3.4923,-3.5663,-3.6167,-3.6662,-3.708,-3.7612,-3.7793,-3.7408,-3.7219,-3.7096,-3.6989,-3.6264,-3.529,-3.4091,-3.2553,-3.1005,-2.9482,-3.0032,-3.0731,-3.1549,-3.2949,-3.3835,-3.4219,-3.4513,-3.4801,-3.5126,-3.4933,-3.4897,-3.497,-3.4932,-3.474,-3.4571,-3.4475,-3.4342,-3.4185,-3.4088,-3.3956,-3.3787,-3.369,-3.3473,-3.3263,-3.305,-3.2912,-3.2688,-3.2519,-3.2278,-3.2073,-3.2073,-3.1735,-3.136,-3.1288,-3.0926,-3.0527,-3.0274,-3.0214,-3.0214,-3.0214,-3.0141,-3.002,-2.9827,-2.9501,-2.9031,-2.8306,-2.7679,-2.6957,-2.6194,-2.574,-2.5403,-2.5041,-2.5017,-2.4981,-2.4897,-2.5379,-2.5511,-2.515,-2.615,-2.7341,-2.8596,-2.9308,-3.0407,-3.1928,-3.2109,-3.2592,-3.3376,-3.3569,-3.3895,-3.4342,-3.4726,-3.4897,-3.5028,-3.5028,-3.5028,-3.5028,-3.5028,-3.5028,-3.5028,-3.5028,-3.5028,-3.5028,-3.5028,-3.5028,-3.5028,-2.2372,-2.3152,-2.4182,-2.5618,-2.7202,-2.8859,-3.0779,-3.2343,-3.3689,-3.4625,-3.5367,-3.5928,-3.6186,-3.6253,-3.6186,-3.6108,-3.6858,-3.7419,-3.7458,-3.8251,-3.8543,-3.822,-3.8051,-3.7797,-3.7434,-3.7046,-3.6244,-3.5029,-3.3869,-3.2865,-3.2051,-3.2689,-3.3199,-3.3581,-3.4603,-3.5126,-3.5318,-3.5318,-3.538,-3.5513,-3.5282,-3.5126,-3.5126,-3.5052,-3.4932,-3.474,-3.474,-3.4665,-3.4475,-3.4378,-3.4221,-3.4052,-3.3956,-3.3762,-3.3529,-3.3207,-3.3106,-3.2954,-3.2785,-3.2555,-3.2326,-3.2229,-3.194,-3.1638,-3.1433,-3.0986,-3.0564,-3.0395,-3.0286,-3.0214,-3.0214,-3.0214,-3.0117,-2.9839,-2.9574,-2.9127,-2.8318,-2.7751,-2.7196,-2.6548,-2.6246,-2.6066,-2.5993,-2.5993,-2.5993,-2.5993,-2.6379,-2.6616,-2.6484,-2.7111,-2.8041,-2.9272,-2.9924,-3.0877,-3.2181,-3.2398,-3.2785,-3.3376,-3.3762,-3.4149,-3.4629,-3.4895,-3.5028,-3.5028,-3.5028,-3.5028,-3.5028,-3.5028,-3.5028,-3.5028,-3.5028,-3.5028,-3.5028,-3.5028,-3.5028,-3.5028,-2.3463,-2.4283,-2.5317,-2.6692,-2.8252,-2.9747,-3.1187,-3.2682,-3.4095,-3.5367,-3.6119,-3.6859,-3.753,-3.7609,-3.7071,-3.5704,-3.6859,-3.7458,-3.6943,-3.8156,-3.8659,-3.8244,-3.822,-3.7991,-3.7471,-3.7434,-3.6737,-3.5288,-3.4253,-3.3711,-3.3711,-3.4356,-3.4654,-3.469,-3.5478,-3.5839,-3.5839,-3.5875,-3.5802,-3.5778,-3.5513,-3.5416,-3.538,-3.5149,-3.5052,-3.5052,-3.5028,-3.5028,-3.4933,-3.4726,-3.4629,-3.4535,-3.4281,-3.4016,-3.3762,-3.3529,-3.3263,-3.3014,-3.3014,-3.2821,-3.2555,-3.2314,-3.2229,-3.206,-3.1517,-3.101,-3.0648,-3.0612,-3.0407,-3.0238,-3.0214,-3.0214,-3.0117,-2.9839,-2.9562,-2.9103,-2.8343,-2.7775,-2.7319,-2.709,-2.6849,-2.6801,-2.7066,-2.709,-2.709,-2.709,-2.7343,-2.7763,-2.8282,-2.8331,-2.8801,-2.9815,-3.0636,-3.1433,-3.2217,-3.2724,-3.3147,-3.3437,-3.3956,-3.4342,-3.4665,-3.4861,-3.5028,-3.5028,-3.5028,-3.5028,-3.5028,-3.5028,-3.5028,-3.5028,-3.5028,-3.5028,-3.5028,-3.5028,-3.5028,-3.5028,-2.5391,-2.7048,-2.8612,-2.9302,-3.161,-3.358,-3.424,-3.5637,-3.6713,-3.7004,-3.7194,-3.7419,-3.7597,-3.7609,-3.7463,-3.7116,-3.7944,-3.818,-3.7678,-3.8418,-3.8659,-3.8244,-3.822,-3.8051,-3.7725,-3.7531,-3.7008,-3.6283,-3.6017,-3.5859,-3.5859,-3.603,-3.609,-3.609,-3.6297,-3.6419,-3.6419,-3.6165,-3.6129,-3.6104,-3.5838,-3.5742,-3.5705,-3.5392,-3.5283,-3.5259,-3.5089,-3.5028,-3.497,-3.4956,-3.4799,-3.4571,-3.4511,-3.4318,-3.4052,-3.3762,-3.3497,-3.3335,-3.3335,-3.313,-3.2881,-3.2821,-3.2495,-3.206,-3.1517,-3.1288,-3.1083,-3.0684,-3.0564,-3.0455,-3.025,-3.0214,-3.0117,-2.9839,-2.9405,-2.897,-2.8572,-2.8053,-2.7775,-2.7908,-2.7872,-2.7944,-2.8222,-2.8199,-2.8199,-2.8199,-2.8487,-2.8862,-2.9393,-2.9622,-2.9948,-3.0395,-3.1191,-3.1904,-3.2495,-3.2821,-3.336,-3.3992,-3.4375,-3.4665,-3.4932,-3.4992,-3.5028,-3.5028,-3.5028,-3.5028,-3.5028,-3.5028,-3.5028,-3.5028,-3.5028,-3.5028,-3.5028,-3.5028,-3.5028,-3.5028,-2.7614,-2.9559,-3.1321,-3.1908,-3.4067,-3.5804,-3.6024,-3.6926,-3.7754,-3.8055,-3.8133,-3.82,-3.8535,-3.8547,-3.8547,-3.8547,-3.8657,-3.8434,-3.7929,-3.8548,-3.8659,-3.8244,-3.822,-3.8087,-3.7821,-3.7625,-3.7338,-3.6756,-3.6685,-3.6624,-3.6624,-3.6624,-3.6624,-3.6624,-3.6624,-3.6624,-3.6624,-3.6455,-3.6395,-3.6395,-3.6068,-3.5996,-3.5935,-3.5682,-3.5489,-3.5356,-3.5223,-3.5125,-3.5028,-3.5028,-3.4932,-3.4799,-3.4799,-3.4571,-3.4342,-3.4185,-3.3916,-3.3533,-3.34,-3.3268,-3.3147,-3.3014,-3.2592,-3.2121,-3.1831,-3.1566,-3.1312,-3.1022,-3.0769,-3.0564,-3.0419,-3.0189,-2.9936,-2.9658,-2.9175,-2.8741,-2.8463,-2.8077,-2.7956,-2.8343,-2.8391,-2.8548,-2.8946,-2.8982,-2.8982,-2.8982,-2.9115,-2.9429,-2.996,-3.025,-3.0624,-3.1143,-3.1698,-3.2242,-3.2748,-3.3147,-3.363,-3.4185,-3.4438,-3.4762,-3.5028,-3.5028,-3.5028,-3.5028,-3.5028,-3.5028,-3.5028,-3.5028,-3.5028,-3.5028,-3.5028,-3.5028,-3.5028,-3.5028,-3.5028,-3.5028,-3.0188,-3.2138,-3.3852,-3.4413,-3.603,-3.725,-3.7183,-3.7611,-3.8133,-3.8803,-3.8869,-3.907,-3.9659,-3.9671,-3.9671,-3.9671,-3.9204,-3.8657,-3.8072,-3.856,-3.8659,-3.8244,-3.822,-3.8111,-3.7894,-3.7797,-3.7531,-3.6973,-3.6745,-3.6624,-3.6624,-3.6624,-3.6624,-3.6624,-3.6624,-3.6624,-3.6624,-3.6624,-3.6624,-3.6588,-3.6334,-3.6237,-3.6262,-3.5935,-3.5706,-3.5548,-3.5452,-3.5318,-3.5089,-3.5089,-3.5052,-3.5028,-3.5028,-3.4859,-3.4644,-3.4629,-3.4303,-3.3823,-3.3533,-3.34,-3.336,-3.305,-3.2652,-3.2302,-3.2266,-3.1904,-3.1553,-3.1469,-3.1095,-3.0745,-3.0624,-3.0226,-2.9803,-2.9465,-2.8994,-2.8596,-2.8355,-2.8101,-2.8149,-2.8729,-2.8837,-2.9055,-2.9538,-2.9622,-2.9646,-2.9646,-2.9646,-2.9864,-3.0371,-3.0648,-3.1143,-3.1904,-3.2145,-3.2531,-3.3111,-3.3593,-3.3992,-3.4245,-3.4511,-3.4799,-3.5028,-3.5028,-3.5028,-3.5028,-3.5028,-3.5028,-3.5028,-3.5028,-3.5028,-3.5028,-3.5028,-3.5028,-3.5028,-3.5028,-3.5052,-3.5089,-3.3642,-3.5677,-3.7084,-3.676,-3.7963,-3.8882,-3.8451,-3.8948,-3.9404,-3.9549,-3.9513,-3.9592,-3.9671,-3.9671,-3.9671,-3.9671,-3.9592,-3.9321,-3.8805,-3.881,-3.8659,-3.8244,-3.822,-3.8184,-3.8148,-3.7661,-3.7338,-3.6973,-3.6745,-3.6624,-3.6624,-3.6624,-3.6624,-3.6624,-3.6624,-3.6624,-3.6624,-3.6624,-3.6624,-3.6624,-3.6527,-3.6552,-3.6528,-3.6262,-3.6129,-3.6068,-3.5802,-3.5549,-3.532,-3.532,-3.5222,-3.5028,-3.5028,-3.4992,-3.4861,-3.4702,-3.4569,-3.4342,-3.3859,-3.3569,-3.336,-3.305,-3.2917,-3.284,-3.2592,-3.2459,-3.2278,-3.1831,-3.1674,-3.1421,-3.0733,-3.0539,-3.025,-2.9526,-2.9151,-2.8934,-2.8898,-2.8656,-2.8777,-2.9526,-2.9827,-3.0081,-3.0395,-3.0624,-3.0745,-3.0745,-3.0745,-3.089,-3.1191,-3.1469,-3.1879,-3.2447,-3.2495,-3.2881,-3.3666,-3.3956,-3.4245,-3.4569,-3.4835,-3.4933,-3.5028,-3.5028,-3.5028,-3.5028,-3.5028,-3.5028,-3.5028,-3.5028,-3.5028,-3.5028,-3.5028,-3.5028,-3.5028,-3.5028,-3.5126,-3.532,-3.6343,-3.7895,-3.9094,-3.8877,-3.9483,-3.9918,-3.9736,-3.9706,-3.9671,-3.9671,-3.9671,-3.9671,-3.9671,-3.9671,-3.9671,-3.9671,-3.9671,-3.9442,-3.8924,-3.8888,-3.8659,-3.8244,-3.822,-3.822,-3.822,-3.7821,-3.7468,-3.7241,-3.6975,-3.672,-3.6624,-3.6624,-3.6624,-3.6624,-3.6624,-3.6624,-3.6624,-3.6624,-3.6624,-3.6624,-3.6624,-3.6624,-3.6624,-3.6491,-3.6358,-3.6165,-3.6032,-3.5875,-3.5645,-3.5645,-3.5416,-3.5187,-3.5187,-3.509,-3.4992,-3.4837,-3.4629,-3.4281,-3.3895,-3.369,-3.3533,-3.3268,-3.313,-3.2954,-3.2821,-3.2688,-3.2519,-3.2278,-3.2,-3.1698,-3.1324,-3.0781,-3.0274,-2.99,-2.9369,-2.9067,-2.9212,-2.8994,-2.9127,-2.9924,-3.0141,-3.0371,-3.0781,-3.0926,-3.0998,-3.0998,-3.1131,-3.1324,-3.1602,-3.1867,-3.2326,-3.3033,-3.3147,-3.3497,-3.3992,-3.4303,-3.4508,-3.4571,-3.4895,-3.5089,-3.5187,-3.5187,-3.5318,-3.5451,-3.5451,-3.5451,-3.5451,-3.5451,-3.5451,-3.5451,-3.5451,-3.5451,-3.5451,-3.5451,-3.5489,-3.5645,-3.8476,-3.9535,-4.0404,-4.0274,-4.0413,-4.0442,-4.031,-3.9924,-3.9671,-3.9671,-3.9671,-3.9671,-3.9671,-3.9671,-3.9671,-3.9671,-3.9671,-3.9442,-3.8924,-3.8888,-3.8659,-3.8244,-3.822,-3.822,-3.822,-3.7954,-3.7725,-3.7468,-3.7142,-3.6877,-3.6721,-3.6648,-3.6624,-3.6624,-3.6624,-3.6624,-3.6624,-3.6624,-3.6624,-3.6624,-3.6624,-3.6624,-3.6624,-3.6624,-3.6491,-3.6261,-3.6261,-3.6104,-3.5875,-3.5875,-3.5742,-3.5452,-3.5416,-3.5282,-3.5066,-3.4994,-3.4726,-3.4318,-3.4052,-3.3919,-3.3823,-3.3662,-3.34,-3.3243,-3.3171,-3.3014,-3.2821,-3.2724,-3.2362,-3.2048,-3.1928,-3.1179,-3.0539,-3.0419,-2.9827,-2.9453,-2.9658,-2.9513,-2.9634,-3.0322,-3.0503,-3.0745,-3.1143,-3.13,-3.1372,-3.1372,-3.1553,-3.1759,-3.1976,-3.2302,-3.2845,-3.363,-3.3799,-3.4016,-3.4281,-3.4475,-3.4644,-3.4764,-3.497,-3.5223,-3.5477,-3.5477,-3.5585,-3.5778,-3.5778,-3.5778,-3.5778,-3.5778,-3.5778,-3.5778,-3.5778,-3.5778,-3.5778,-3.5778,-3.5875,-3.5875,-4.0011,-4.0706,-4.1048,-4.0567,-4.0502,-4.031,-3.9791,-3.9695,-3.9671,-3.9671,-3.9671,-3.9671,-3.9671,-3.9671,-3.9671,-3.9671,-3.9671,-3.9442,-3.8924,-3.8888,-3.8659,-3.8244,-3.822,-3.822,-3.822,-3.7954,-3.7758,-3.7785,-3.7239,-3.6973,-3.6949,-3.6745,-3.6624,-3.6624,-3.6624,-3.6624,-3.6624,-3.6624,-3.6624,-3.6624,-3.6624,-3.6624,-3.6624,-3.6624,-3.6624,-3.6588,-3.6588,-3.6419,-3.6201,-3.6201,-3.5971,-3.5706,-3.5452,-3.538,-3.5355,-3.5089,-3.4992,-3.4895,-3.4629,-3.4342,-3.4149,-3.4182,-3.4113,-3.4016,-3.3787,-3.3726,-3.3569,-3.305,-3.2917,-3.2748,-3.2266,-3.1904,-3.1529,-3.1022,-3.0684,-3.0491,-3.0515,-3.0503,-3.06,-3.0902,-3.1384,-3.171,-3.1747,-3.2181,-3.2471,-3.2471,-3.2495,-3.2519,-3.2531,-3.3014,-3.3666,-3.4508,-3.4281,-3.4281,-3.4547,-3.4571,-3.4837,-3.532,-3.5356,-3.5489,-3.5742,-3.5742,-3.5802,-3.5778,-3.5778,-3.5778,-3.5778,-3.5778,-3.5778,-3.5778,-3.5778,-3.5778,-3.5778,-3.5778,-3.5935,-3.6201,-4.0642,-4.0871,-4.0969,-4.0539,-4.0346,-4.0153,-3.9991,-3.9834,-3.9671,-3.9671,-3.9671,-3.9671,-3.9671,-3.9671,-3.9671,-3.9671,-3.9671,-3.9442,-3.8924,-3.8888,-3.8659,-3.8244,-3.822,-3.822,-3.822,-3.8111,-3.7991,-3.7821,-3.7628,-3.7299,-3.6973,-3.6877,-3.6781,-3.6624,-3.6624,-3.6624,-3.6624,-3.6624,-3.6624,-3.6624,-3.6624,-3.6624,-3.6624,-3.6624,-3.6624,-3.6624,-3.6624,-3.6552,-3.6455,-3.6455,-3.6298,-3.6008,-3.5911,-3.5802,-3.5585,-3.5355,-3.5223,-3.5222,-3.4897,-3.4644,-3.4436,-3.4221,-3.4185,-3.4149,-3.4052,-3.3919,-3.3726,-3.3533,-3.3207,-3.2917,-3.2724,-3.2338,-3.1928,-3.1553,-3.1276,-3.1034,-3.0865,-3.0986,-3.1191,-3.1469,-3.1831,-3.2109,-3.2278,-3.2471,-3.2592,-3.2592,-3.2748,-3.2917,-3.3074,-3.3783,-3.4303,-3.4571,-3.4801,-3.4897,-3.4859,-3.4994,-3.5187,-3.538,-3.5549,-3.5778,-3.6068,-3.6068,-3.6165,-3.6322,-3.6322,-3.6322,-3.6322,-3.6322,-3.6322,-3.6322,-3.6322,-3.6322,-3.6322,-3.6322,-3.6395,-3.6455,-4.0836,-4.0743,-4.0671,-4.045,-4.0189,-4.0088,-3.996,-3.9791,-3.9671,-3.9671,-3.9671,-3.9671,-3.9671,-3.9671,-3.9671,-3.9671,-3.9671,-3.9442,-3.8924,-3.8796,-3.853,-3.818,-3.822,-3.822,-3.822,-3.822,-3.8124,-3.7954,-3.7858,-3.7592,-3.7106,-3.701,-3.6878,-3.6624,-3.6624,-3.6624,-3.6624,-3.6624,-3.6624,-3.6624,-3.6624,-3.6624,-3.6624,-3.6624,-3.6624,-3.6624,-3.6624,-3.6624,-3.6624,-3.6624,-3.6491,-3.6322,-3.6262,-3.6032,-3.5742,-3.5609,-3.5513,-3.5512,-3.5318,-3.509,-3.4861,-3.4569,-3.4438,-3.4414,-3.4318,-3.4149,-3.4016,-3.3919,-3.363,-3.334,-3.3243,-3.2881,-3.2483,-3.2217,-3.1952,-3.1698,-3.1529,-3.165,-3.1831,-3.2036,-3.229,-3.2519,-3.2688,-3.2881,-3.2978,-3.2978,-3.3207,-3.3473,-3.3783,-3.4281,-3.4702,-3.4837,-3.5187,-3.532,-3.5223,-3.5416,-3.5549,-3.5646,-3.5875,-3.6092,-3.6358,-3.6358,-3.6455,-3.6624,-3.6624,-3.6624,-3.6624,-3.6624,-3.6624,-3.6624,-3.6624,-3.6624,-3.6624,-3.6624,-3.6624,-3.6624,-4.0478,-4.0478,-4.0382,-4.016,-4.0124,-4.0027,-3.9762,-3.9671,-3.9671,-3.9671,-3.9671,-3.9671,-3.9671,-3.9671,-3.9671,-3.9671,-3.9671,-3.9442,-3.8924,-3.8446,-3.822,-3.822,-3.822,-3.822,-3.822,-3.822,-3.822,-3.822,-3.7954,-3.7625,-3.7372,-3.7106,-3.6878,-3.6624,-3.6624,-3.6624,-3.6624,-3.6624,-3.6624,-3.6624,-3.6624,-3.6624,-3.6624,-3.6624,-3.6624,-3.6624,-3.6624,-3.6624,-3.6624,-3.6624,-3.6624,-3.6527,-3.6261,-3.6008,-3.5838,-3.5778,-3.5778,-3.5778,-3.5778,-3.5778,-3.5646,-3.5149,-3.5028,-3.4956,-3.4702,-3.4571,-3.4511,-3.4245,-3.4185,-3.4113,-3.3859,-3.3569,-3.3304,-3.305,-3.2748,-3.2592,-3.2592,-3.2592,-3.2592,-3.2592,-3.2876,-3.3033,-3.3033,-3.3473,-3.3787,-3.3787,-3.4052,-3.4318,-3.4571,-3.4571,-3.4837,-3.5356,-3.538,-3.5513,-3.5778,-3.5778,-3.5971,-3.6225,-3.6225,-3.6358,-3.6624,-3.6624,-3.6624,-3.6624,-3.6624,-3.6624,-3.6624,-3.6624,-3.6624,-3.6624,-3.6624,-3.6624,-3.6624,-3.6624,-3.6624,-3.6624,-4.0293,-4.0189,-4.016,-3.9894,-3.9791,-3.9767,-3.9738,-3.9671,-3.9671,-3.9671,-3.9671,-3.9671,-3.9671,-3.9671,-3.9671,-3.9671,-3.9671,-3.9442,-3.8924,-3.8446,-3.822,-3.822,-3.822,-3.822,-3.822,-3.822,-3.822,-3.822,-3.8148,-3.7858,-3.7372,-3.7299,-3.701,-3.6624,-3.6624,-3.6624,-3.6624,-3.6624,-3.6624,-3.6624,-3.6624,-3.6624,-3.6624,-3.6624,-3.6624,-3.6624,-3.6624,-3.6624,-3.6624,-3.6624,-3.6624,-3.6624,-3.6528,-3.6455,-3.6297,-3.6165,-3.6104,-3.6068,-3.5839,-3.5778,-3.5742,-3.5585,-3.5451,-3.5282,-3.5163,-3.4895,-3.4605,-3.4475,-3.4318,-3.4149,-3.4088,-3.4049,-3.3859,-3.3593,-3.3497,-3.3376,-3.3171,-3.3304,-3.3437,-3.3437,-3.3666,-3.3823,-3.3823,-3.4013,-3.4052,-3.4052,-3.4318,-3.4532,-3.4571,-3.4933,-3.5223,-3.538,-3.5742,-3.5971,-3.6104,-3.6104,-3.6104,-3.6225,-3.6358,-3.649,-3.6624,-3.6624,-3.6624,-3.6624,-3.6624,-3.6624,-3.6624,-3.6624,-3.6624,-3.6624,-3.6624,-3.6624,-3.6624,-3.6624,-3.6624,-3.6624,-3.9991,-3.9967,-3.9864,-3.9695,-3.9671,-3.9671,-3.9671,-3.9671,-3.9671,-3.9671,-3.9671,-3.9671,-3.9671,-3.9671,-3.9671,-3.9671,-3.9544,-3.9279,-3.8924,-3.8446,-3.822,-3.822,-3.822,-3.822,-3.822,-3.822,-3.822,-3.822,-3.822,-3.7991,-3.7529,-3.7471,-3.7142,-3.6781,-3.6623,-3.6624,-3.6624,-3.6624,-3.6624,-3.6624,-3.6624,-3.6624,-3.6624,-3.6624,-3.6624,-3.6624,-3.6624,-3.6624,-3.6624,-3.6624,-3.6624,-3.6624,-3.6624,-3.6624,-3.6588,-3.6419,-3.6395,-3.6297,-3.6128,-3.6129,-3.6129,-3.6129,-3.5875,-3.5513,-3.5416,-3.5126,-3.4861,-3.4799,-3.4607,-3.4475,-3.4399,-3.4342,-3.4245,-3.3992,-3.3956,-3.3895,-3.3726,-3.388,-3.3956,-3.3956,-3.4088,-3.4185,-3.4185,-3.4281,-3.4378,-3.4532,-3.474,-3.4897,-3.4897,-3.532,-3.5585,-3.5742,-3.6008,-3.6225,-3.6395,-3.6395,-3.6395,-3.6395,-3.649,-3.6624,-3.6624,-3.6624,-3.6624,-3.6624,-3.6624,-3.6624,-3.6624,-3.6624,-3.6624,-3.6624,-3.6624,-3.6624,-3.6624,-3.6624,-3.6624,-3.6624,-3.9671,-3.9671,-3.9671,-3.9671,-3.9671,-3.9671,-3.9671,-3.9671,-3.9671,-3.9671,-3.9671,-3.9671,-3.9671,-3.9701,-3.9635,-3.9635,-3.9153,-3.8851,-3.8851,-3.8434,-3.822,-3.822,-3.822,-3.822,-3.822,-3.822,-3.822,-3.822,-3.822,-3.8087,-3.7758,-3.7504,-3.7239,-3.6973,-3.6745,-3.6624,-3.6624,-3.6624,-3.6624,-3.6624,-3.6624,-3.6624,-3.6624,-3.6624,-3.6624,-3.6624,-3.6624,-3.6624,-3.6624,-3.6624,-3.6624,-3.6624,-3.6624,-3.6624,-3.6624,-3.6624,-3.6624,-3.6624,-3.6624,-3.6624,-3.6624,-3.6624,-3.6262,-3.5778,-3.5513,-3.5452,-3.5356,-3.509,-3.503,-3.4933,-3.4704,-3.4644,-3.4535,-3.4281,-3.4245,-3.4245,-3.4245,-3.4245,-3.4245,-3.4245,-3.4245,-3.4303,-3.4281,-3.4535,-3.4835,-3.503,-3.5283,-3.5416,-3.5416,-3.5682,-3.5971,-3.6165,-3.6201,-3.6334,-3.6624,-3.6624,-3.6624,-3.6624,-3.6624,-3.6624,-3.6624,-3.6624,-3.6624,-3.6624,-3.6624,-3.6624,-3.6624,-3.6624,-3.6624,-3.6624,-3.6624,-3.6624,-3.6624,-3.6624,-3.6624,-3.6624,-3.9671,-3.9671,-3.9671,-3.9671,-3.9671,-3.9671,-3.9671,-3.9671,-3.9671,-3.9671,-3.9671,-3.9671,-3.9671,-3.9544,-3.937,-3.937,-3.8929,-3.8704,-3.8704,-3.8337,-3.822,-3.822,-3.822,-3.822,-3.822,-3.822,-3.822,-3.822,-3.822,-3.8087,-3.7758,-3.7504,-3.7239,-3.6973,-3.6745,-3.6624,-3.6624,-3.6624,-3.6624,-3.6624,-3.6624,-3.6624,-3.6624,-3.6624,-3.6624,-3.6624,-3.6624,-3.6624,-3.6624,-3.6624,-3.6624,-3.6624,-3.6624,-3.6624,-3.6624,-3.6624,-3.6624,-3.6624,-3.6624,-3.6624,-3.6624,-3.6624,-3.6528,-3.6395,-3.6068,-3.5839,-3.5682,-3.5609,-3.5452,-3.5283,-3.5223,-3.503,-3.4861,-3.4859,-3.4801,-3.4801,-3.4801,-3.4801,-3.4801,-3.4801,-3.4801,-3.4932,-3.509,-3.5356,-3.5549,-3.5645,-3.5705,-3.5742,-3.5742,-3.5996,-3.6165,-3.6225,-3.6419,-3.6552,-3.6624,-3.6624,-3.6624,-3.6624,-3.6624,-3.6624,-3.6624,-3.6624,-3.6624,-3.6624,-3.6624,-3.6624,-3.6624,-3.6624,-3.6624,-3.6624,-3.6624,-3.6624,-3.6624,-3.6624,-3.6624,-3.6624,-3.9671,-3.9671,-3.9671,-3.9671,-3.9671,-3.9671,-3.9671,-3.9671,-3.9671,-3.9671,-3.9574,-3.9544,-3.9544,-3.9249,-3.908,-3.908,-3.8837,-3.8607,-3.8607,-3.8341,-3.822,-3.822,-3.822,-3.822,-3.822,-3.822,-3.822,-3.822,-3.822,-3.8148,-3.7951,-3.7725,-3.7531,-3.7335,-3.6949,-3.6818,-3.6756,-3.6623,-3.6624,-3.6624,-3.6624,-3.6624,-3.6624,-3.6624,-3.6624,-3.6624,-3.6624,-3.6624,-3.6624,-3.6624,-3.6624,-3.6624,-3.6624,-3.6624,-3.6624,-3.6624,-3.6624,-3.6624,-3.6624,-3.6624,-3.6624,-3.6624,-3.6624,-3.6552,-3.6237,-3.6068,-3.5935,-3.5802,-3.5682,-3.5585,-3.5585,-3.5452,-3.5356,-3.5356,-3.5356,-3.5356,-3.5356,-3.5356,-3.5356,-3.5356,-3.5356,-3.5416,-3.5609,-3.5706,-3.5778,-3.5778,-3.5911,-3.5971,-3.5971,-3.6262,-3.6358,-3.6358,-3.6552,-3.6624,-3.6624,-3.6624,-3.6624,-3.6624,-3.6624,-3.6624,-3.6624,-3.6624,-3.6624,-3.6624,-3.6624,-3.6624,-3.6624,-3.6624,-3.6624,-3.6624,-3.6624,-3.6624,-3.6624,-3.6624,-3.6624,-3.6624,-3.9671,-3.9671,-3.9671,-3.9671,-3.9671,-3.9671,-3.9671,-3.9671,-3.9671,-3.9665,-3.9406,-3.9315,-3.9213,-3.8984,-3.8856,-3.8755,-3.8603,-3.8535,-3.8535,-3.8341,-3.822,-3.822,-3.822,-3.822,-3.822,-3.822,-3.822,-3.822,-3.822,-3.822,-3.8208,-3.7954,-3.7821,-3.7797,-3.7275,-3.701,-3.6973,-3.6781,-3.6648,-3.6624,-3.6624,-3.6624,-3.6624,-3.6624,-3.6624,-3.6624,-3.6624,-3.6624,-3.6624,-3.6624,-3.6624,-3.6624,-3.6624,-3.6624,-3.6624,-3.6624,-3.6624,-3.6624,-3.6624,-3.6624,-3.6624,-3.6624,-3.6624,-3.6552,-3.6297,-3.6298,-3.6225,-3.5996,-3.5875,-3.5839,-3.5839,-3.5802,-3.5778,-3.5778,-3.5778,-3.5778,-3.5778,-3.5778,-3.5778,-3.5778,-3.5875,-3.5839,-3.5839,-3.5935,-3.5971,-3.5971,-3.6165,-3.6298,-3.6298,-3.6491,-3.6624,-3.6624,-3.6624,-3.6624,-3.6624,-3.6624,-3.6624,-3.6624,-3.6624,-3.6624,-3.6624,-3.6624,-3.6624,-3.6624,-3.6624,-3.6624,-3.6624,-3.6624,-3.6624,-3.6624,-3.6624,-3.6624,-3.6624,-3.6624,-3.6624,-3.6624,-3.9671,-3.9671,-3.9671,-3.9671,-3.9671,-3.9671,-3.9671,-3.9671,-3.9599,-3.937,-3.9309,-3.9177,-3.8948,-3.876,-3.8571,-3.8277,-3.8281,-3.8281,-3.8281,-3.8244,-3.822,-3.822,-3.822,-3.822,-3.822,-3.822,-3.822,-3.822,-3.822,-3.822,-3.8208,-3.7954,-3.7821,-3.7758,-3.7495,-3.7203,-3.6973,-3.6949,-3.678,-3.6624,-3.6624,-3.6624,-3.6624,-3.6624,-3.6624,-3.6624,-3.6624,-3.6624,-3.6624,-3.6624,-3.6624,-3.6624,-3.6624,-3.6624,-3.6624,-3.6624,-3.6624,-3.6624,-3.6624,-3.6624,-3.6624,-3.6624,-3.6624,-3.6624,-3.6527,-3.6552,-3.6552,-3.6515,-3.6322,-3.6165,-3.6165,-3.5935,-3.5778,-3.5778,-3.5778,-3.5778,-3.5778,-3.5778,-3.5778,-3.5778,-3.5971,-3.6165,-3.6165,-3.6395,-3.6515,-3.6515,-3.6552,-3.6552,-3.6552,-3.6588,-3.6624,-3.6624,-3.6624,-3.6624,-3.6624,-3.6624,-3.6624,-3.6624,-3.6624,-3.6624,-3.6624,-3.6624,-3.6624,-3.6624,-3.6624,-3.6624,-3.6624,-3.6624,-3.6624,-3.6624,-3.6624,-3.6624,-3.6624,-3.6624,-3.6624,-3.6624,-3.9671,-3.9671,-3.9671,-3.9671,-3.9671,-3.9671,-3.9671,-3.9538,-3.9406,-3.9339,-3.9086,-3.8856,-3.8736,-3.8535,-3.8341,-3.822,-3.822,-3.822,-3.822,-3.822,-3.822,-3.822,-3.822,-3.822,-3.822,-3.822,-3.822,-3.822,-3.822,-3.822,-3.822,-3.8087,-3.8051,-3.8015,-3.7761,-3.7529,-3.7471,-3.7275,-3.7046,-3.6842,-3.6842,-3.6745,-3.6624,-3.6624,-3.6624,-3.6624,-3.6624,-3.6624,-3.6624,-3.6624,-3.6624,-3.6624,-3.6624,-3.6624,-3.6624,-3.6624,-3.6624,-3.6624,-3.6624,-3.6624,-3.6624,-3.6624,-3.6624,-3.6624,-3.6624,-3.6624,-3.6624,-3.6624,-3.6528,-3.6394,-3.6394,-3.6358,-3.6262,-3.6262,-3.6262,-3.6262,-3.6262,-3.6262,-3.6262,-3.6262,-3.6334,-3.6394,-3.6394,-3.6552,-3.6624,-3.6624,-3.6624,-3.6624,-3.6624,-3.6624,-3.6624,-3.6624,-3.6624,-3.6624,-3.6624,-3.6624,-3.6624,-3.6624,-3.6624,-3.6624,-3.6624,-3.6624,-3.6624,-3.6624,-3.6624,-3.6624,-3.6624,-3.6624,-3.6624,-3.6624,-3.6624,-3.6624,-3.6624,-3.6624,-3.6624,-3.6624]},{"header":{"parameterUnit":"m.s-1","parameterCategory":1,"la1":30.6,"la2":28.766,"lo1":-90.7593,"lo2":-88.6598,"dy":0.0162,"dx":0.0183,"nx":116,"ny":114,"refTime":"2024-06-14T00:00:00:Z","depth":0,"parameterNumber":3,"parameterNumberName":"V-component_of_WINDS"},"data":[0.0,0.0,0.0,0.0,0.0,0.0,0.0,0.0,0.0,0.0,0.0,0.0,0.0,0.0,0.0,0.0,0.0,0.0,0.0,0.0,0.0,0.0,0.0,0.0,0.0,0.0,0.0,0.0,0.0,0.0,0.0,0.0,0.0,0.0,0.0,0.0,0.0,0.0,0.0,0.0,0.0,0.0,0.0,0.0,0.0,0.0,0.0,0.0,0.0,0.0,0.0,0.0,0.0,0.0,0.0,0.0,0.0,0.0,0.0,0.0,0.0,0.0,0.0,0.0,0.0,0.0,0.0,0.0,0.0,0.0,0.0,0.0,0.0,0.0,0.0,0.0,0.0,0.0,0.0,0.0,0.0,0.0,0.0,0.0,0.0,0.0,0.0,0.0,0.0,0.0,0.0,0.0,0.0,0.0,0.0,0.0,0.0,0.0,0.0,0.0,0.0,0.0,0.0,0.0,0.0,0.0,0.0,0.0,0.0,0.0,0.0,0.0,0.0,0.0,0.0,0.0,0.0,0.0,0.0,0.0,0.0,0.0,0.0,0.0,0.0,0.0,0.0,0.0,0.0,0.0,0.0,0.0,0.0,0.0,0.0,0.0,0.0,0.0,0.0,0.0,0.0,0.0,0.0,0.0,0.0,0.0,0.0,0.0,0.0,0.0,0.0,0.0,0.0,0.0,0.0,0.0,0.0,0.0,0.0,0.0,0.0,0.0,0.0,0.0,0.0,0.0,0.0,0.0,0.0,0.0,0.0,0.0,0.0,0.0,0.0,0.0,0.0,0.0,0.0,0.0,0.0,0.0,0.0,0.0,0.0,0.0,0.0,0.0,0.0,0.0,0.0,0.0,0.0,0.0,0.0,0.0,0.0,0.0,0.0,0.0,0.0,0.0,0.0,0.0,0.0,0.0,0.0,0.0,0.0,0.0,0.0,0.0,0.0,0.0,0.0,0.0,0.0,0.0,0.0,0.0,0.0,0.0,0.0,0.0,0.0,0.0,0.0,0.0,0.0,0.0,0.0,0.0,0.0,0.0,0.0,0.0,0.0,0.0,0.0,0.0,0.0,0.0,0.0,0.0,0.0,0.0,0.0,0.0,0.0,0.0,0.0,0.0,0.0,0.0,0.0,0.0,0.0,0.0,0.0,0.0,0.0,0.0,0.0,0.0,0.0,0.0,0.0,0.0,0.0,0.0,0.0,0.0,0.0,0.0,0.0,0.0,0.0,0.0,0.0,0.0,0.0,0.0,0.0,0.0,0.0,0.0,0.0,0.0,0.0,0.0,0.0,0.0,0.0,0.0,0.0,0.0,0.0,0.0,0.0,0.0,0.0,0.0,0.0,0.0,0.0,0.0,0.0,0.0,0.0,0.0,0.0,0.0,0.0,0.0,0.0,0.0,0.0,0.0,0.0,0.0,0.0,0.0,0.0,0.0,0.0,0.0,0.0,0.0,0.0,0.0,0.0,0.0,0.0,0.0,0.0,0.0,0.0,0.0,0.0,0.0,0.0,0.0,0.0,0.0,0.0,0.0,0.0,0.0,0.0,0.0,0.0,0.0,0.0,0.0,0.0,0.0,0.0,0.0,0.0,0.0,0.0,0.0,0.0,0.0,0.0,0.0,0.0,0.0,0.0,0.0,0.0,0.0,0.0,0.0,0.0,0.0,0.0,0.0,0.0,0.0,0.0,0.0,0.0,0.0,0.0,0.0,0.0,0.0,0.0,0.0,0.0,0.0,0.0,0.0,0.0,0.0,0.0,0.0,0.0,0.0,0.0,0.0,0.0,0.0,0.0,0.0,0.0,0.0,0.0,0.0,0.0,0.0,0.0,0.0,0.0,0.0,0.0,0.0,0.0,0.0,0.0,0.0,0.0,0.0,0.0,0.0,0.0,0.0,0.0,0.0,0.0,0.0,0.0,0.0,0.0,0.0,0.0,0.0,0.0,0.0,0.0,0.0,0.0,0.0,0.0,0.0,0.0,0.0,0.0,0.0,0.0,0.0,0.0,0.0,0.0,0.0,0.0,0.0,0.0,0.0,0.0,0.0,0.0,0.0,0.0,0.0,0.0,0.0,0.0,0.0,0.0,0.0,0.0,0.0,0.0,0.0,0.0,0.0,0.0,0.0,0.0,0.0,0.0,0.0,0.0,0.0,0.0,0.0,0.0,0.0,0.0,0.0,0.0,0.0,0.0,0.0,0.0,0.0,0.0,0.0,0.0,0.0,0.0,0.0,0.0,0.0,0.0,0.0,0.0,0.0,0.0,0.0,0.0,0.0,0.0,0.0,0.0,0.0,0.0,0.0,0.0,0.0,0.0,0.0,0.0,0.0,0.0,0.0,0.0,0.0,0.0,0.0,0.0,0.0,0.0,0.0,0.0,0.0,0.0,0.0,0.0,0.0,0.0,0.0,0.0,0.0,0.0,0.0,0.0,0.0,0.0,0.0,0.0,0.0,0.0,0.0,0.0,0.0,0.0,0.0,0.0,0.0,0.0,0.0,0.0,0.0,0.0,0.0,0.0,0.0,0.0,0.0,0.0,0.0,0.0,0.0,0.0,0.0,0.0,0.0,0.0,0.0,0.0,0.0,0.0,0.0,0.0,0.0,0.0,0.0,0.0,0.0,0.0,0.0,0.0,0.0,0.0,0.0,0.0,0.0,0.0,0.0,0.0,0.0,0.0,0.0,0.0,0.0,0.0,0.0,0.0,0.0,0.0,0.0,0.0,0.0,0.0,0.0,0.0,0.0,0.0,0.0,0.0,0.0,0.0,0.0,0.0,0.0,0.0,0.0,0.0,0.0,0.0,0.0,0.0,0.0,0.0,0.0,0.0,0.0,0.0,0.0,0.0,0.0,0.0,0.0,0.0,0.0,0.0,0.0,0.0,0.0,0.0,0.0,0.0,0.0,0.0,0.0,0.0,0.0,0.0,0.0,0.0,0.0,0.0,0.0,0.0,0.0,0.0,0.0,0.0,0.0,0.0,0.0,0.0,0.0,0.0,0.0,0.0,0.0,0.0,0.0,0.0,0.0,0.0,0.0,0.0,0.0,0.0,0.0,0.0,0.0,0.0,0.0,0.0,0.0,0.0,0.0,0.0,0.0,0.0,0.0,0.0,0.0,0.0,0.0,0.0,0.0,0.0,0.0,0.0,0.0,0.0,0.0,0.0,0.0,0.0,0.0,0.0,0.0,0.0,0.0,0.0,0.0,0.0,0.0,0.0,0.0,0.0,0.0,0.0,0.0,0.0,0.0,0.0,0.0,0.0,0.0,0.0,0.0,0.0,0.0,0.0,0.0,0.0,0.0,0.0,0.0,0.0,0.0,0.0,0.0,0.0,0.0,0.0,0.0,0.0,0.0,0.0,0.0,0.0,0.0,0.0,0.0,0.0,0.0,0.0,0.0,0.0,0.0,0.0,0.0,0.0,0.0,0.0,0.0,0.0,0.0,0.0,0.0,0.0,0.0,0.0,0.0,0.0,0.0,0.0,0.0,0.0,0.0,0.0,0.0,0.0,0.0,0.0,0.0,0.0,0.0,0.0,0.0,0.0,0.0,0.0,0.0,0.0,0.0,0.0,0.0,0.0,0.0,0.0,0.0,0.0,0.0,0.0,0.0,0.0,0.0,0.0,0.0,0.0,0.0,0.0,0.0,0.0,0.0,0.0,0.0,0.0,0.0,0.0,0.0,0.0,0.0,0.0,0.0,0.0,0.0,0.0,0.0,0.0,0.0,0.0,0.0,0.0,0.0,0.0,0.0,0.0,0.0,0.0,0.0,0.0,0.0,0.0,0.0,0.0,0.0,0.0,0.0,0.0,0.0,0.0,0.0,0.0,0.0,0.0,0.0,0.0,0.0,0.0,0.0,0.0,0.0,0.0,0.0,0.0,0.0,0.0,0.0,0.0,0.0,0.0,0.0,0.0,0.0,0.0,0.0,0.0,0.0,0.0,0.0,0.0,0.0,0.0,0.0,0.0,0.0,0.0,0.0,0.0,0.0,0.0,0.0,0.0,0.0,0.0,0.0,0.0,0.0,0.0,0.0,0.0,0.0,0.0,0.0,0.0,0.0,0.0,0.0,0.0,0.0,0.0,0.0,0.0,0.0,0.0,0.0,0.0,0.0,0.0,0.0,0.0,0.0,0.0,0.0,0.0,0.0,0.0,0.0,0.0,0.0,0.0,0.0,0.0,0.0,0.0,0.0,0.0,0.0,0.0,0.0,0.0,0.0,0.0,0.0,0.0,0.0,0.0,0.0,0.0,0.0,0.0,0.0,0.0,0.0,0.0,0.0,0.0,0.0,0.0,0.0,0.0,0.0,0.0,0.0,0.0,0.0,0.0,0.0,0.0,0.0,0.0,0.0,0.0,0.0,0.0,0.0,0.0,0.0,0.0,0.0,0.0,0.0,0.0,0.0,0.0,0.0,0.0,0.0,0.0,0.0,0.0,0.0,0.0,0.0,0.0,0.0,0.0,0.0,0.0,0.0,0.0,0.0,0.0,0.0,0.0,0.0,0.0,0.0,0.0,0.0,0.0,0.0,0.0,0.0,0.0,0.0,0.0,0.0,0.0,0.0,0.0,0.0,0.0,0.0,0.0,0.0,0.0,0.0,0.0,0.0,0.0,0.0,0.0,0.0,0.0,0.0,0.0,0.0,0.0,0.0,0.0,0.0,0.0,0.0,0.0,0.0,0.0,0.0,0.0,0.0,0.0,0.0,0.0,0.0,0.0,0.0,0.0,0.0,0.0,0.0,0.0,0.0,0.0,0.0,0.0,0.0,0.0,0.0,0.0,0.0,0.0,0.0,0.0,0.0,0.0,0.0,0.0,0.0,0.0,0.0,0.0,0.0,0.0,0.0,0.0,0.0,0.0,0.0,0.0,0.0,0.0,0.0,0.0,0.0,0.0,0.0,0.0,0.0,0.0,0.0,0.0,0.0,0.0,0.0,0.0,0.0,0.0,0.0,0.0,0.0,0.0,0.0,0.0,0.0,0.0,0.0,0.0,0.0,0.0,0.0,0.0,0.0,0.0,0.0,0.0,0.0,0.0,0.0,0.0,0.0,0.0,0.0,0.0,0.0,0.0,0.0,0.0,0.0,0.0,0.0,0.0,0.0,0.0,0.0,0.0,0.0,0.0,0.0,0.0,0.0,0.0,0.0,0.0,0.0,0.0,0.0,0.0,0.0,0.0,0.0,0.0,0.0,0.0,0.0,0.0,0.0,0.0,0.0,0.0,0.0,0.0,0.0,0.0,0.0,0.0,0.0,0.0,0.0,0.0,0.0,0.0,0.0,0.0,0.0,0.0,0.0,0.0,0.0,0.0,0.0,0.0,0.0,0.0,0.0,0.0,0.0,0.0,0.0,0.0,0.0,0.0,0.0,0.0,0.0,0.0,0.0,0.0,0.0,0.0,0.0,0.0,0.0,0.0,0.0,0.0,0.0,0.0,0.0,0.0,0.0,0.0,0.0,0.0,0.0,0.0,0.0,0.0,0.0,0.0,0.0,0.0,0.0,0.0,0.0,0.0,0.0,0.0,0.0,0.0,0.0,0.0,0.0,0.0,0.0,0.0,0.0,0.0,0.0,0.0,0.0,0.0,0.0,0.0,0.0,0.0,0.0,0.0,0.0,0.0,0.0,0.0,0.0,0.0,0.0,0.0,0.0,0.0,0.0,0.0,0.0,0.0,0.0,0.0,0.0,0.0,0.0,0.0,0.0,0.0,0.0,0.0,0.0,0.0,0.0,0.0,0.0,0.0,0.0,0.0,0.0,0.0,0.0,0.0,0.0,0.0,0.0,0.0,0.0,0.0,0.0,0.0,0.0,0.0,0.0,0.0,0.0,0.0,0.0,0.0,0.0,0.0,0.0,0.0,0.0,0.0,0.0,0.0,0.0,0.0,0.0,0.0,0.0,0.0,0.0,0.0,0.0,0.0,0.0,0.0,0.0,0.0,0.0,0.0,0.0,0.0,0.0,0.0,0.0,0.0,0.0,0.0,0.0,0.0,0.0,0.0,0.0,0.0,0.0,0.0,0.0,0.0,0.0,0.0,0.0,0.0,0.0,0.0,0.0,0.0,0.0,0.0,0.0,0.0,0.0,0.0,0.0,0.0,0.0,5.7851,5.5351,0.0,0.0,0.0,0.0,0.0,0.0,0.0,0.0,0.0,0.0,0.0,0.0,0.0,0.0,0.0,0.0,0.0,0.0,0.0,0.0,0.0,0.0,0.0,4.0766,4.2215,4.2608,4.2995,4.3248,4.3209,0.0,0.0,0.0,0.0,0.0,3.9995,3.9957,4.0365,4.1177,4.1576,4.2572,4.4124,4.235,4.0235,3.7892,0.0,0.0,0.0,0.0,0.0,0.0,0.0,0.0,0.0,0.0,0.0,0.0,0.0,0.0,0.0,0.0,0.0,0.0,0.0,0.0,0.0,0.0,0.0,0.0,0.0,0.0,0.0,0.0,0.0,0.0,0.0,0.0,0.0,0.0,0.0,0.0,0.0,0.0,0.0,0.0,0.0,0.0,0.0,0.0,0.0,0.0,0.0,0.0,0.0,0.0,0.0,0.0,0.0,0.0,0.0,0.0,0.0,0.0,0.0,0.0,0.0,0.0,0.0,0.0,0.0,0.0,0.0,0.0,0.0,0.0,6.4453,6.125,0.0,0.0,0.0,0.0,0.0,0.0,0.0,0.0,0.0,0.0,0.0,0.0,0.0,0.0,0.0,0.0,0.0,0.0,0.0,0.0,0.0,3.8818,3.9728,4.159,4.3039,4.3718,4.4047,4.4195,4.4136,4.3902,0.0,0.0,4.3504,4.3004,4.227,4.2419,4.294,4.3911,4.5282,4.71,4.9248,4.9402,4.7246,4.3126,4.1524,0.0,0.0,0.0,0.0,0.0,0.0,0.0,0.0,0.0,0.0,0.0,0.0,0.0,0.0,0.0,0.0,0.0,0.0,0.0,0.0,0.0,0.0,0.0,0.0,0.0,0.0,0.0,0.0,0.0,0.0,0.0,0.0,0.0,0.0,0.0,0.0,0.0,0.0,0.0,0.0,0.0,0.0,0.0,0.0,0.0,0.0,0.0,0.0,0.0,0.0,0.0,0.0,0.0,0.0,0.0,0.0,0.0,0.0,0.0,0.0,0.0,0.0,0.0,7.1314,7.2642,7.3385,7.44,7.5258,7.5686,7.1402,6.8241,6.6015,6.4843,0.0,0.0,0.0,0.0,0.0,0.0,0.0,0.0,0.0,0.0,0.0,0.0,0.0,0.0,0.0,0.0,0.0,0.0,0.0,3.9826,4.0626,4.3595,4.5512,4.5634,4.6953,4.7804,4.7797,4.6457,4.5636,4.5636,4.4255,4.3411,4.3294,4.4052,4.5181,4.6678,5.0466,5.2832,5.385,5.4593,5.4571,5.3671,4.9022,4.6146,4.4807,0.0,0.0,0.0,0.0,0.0,0.0,0.0,0.0,0.0,0.0,0.0,0.0,0.0,0.0,0.0,0.0,0.0,0.0,0.0,0.0,0.0,0.0,0.0,0.0,0.0,0.0,0.0,0.0,0.0,0.0,0.0,0.0,0.0,0.0,0.0,0.0,0.0,0.0,0.0,0.0,0.0,5.4687,5.578,0.0,0.0,0.0,0.0,0.0,0.0,0.0,0.0,0.0,0.0,0.0,0.0,0.0,6.7294,6.9481,7.1472,7.2877,7.3776,7.6978,7.8579,7.8735,8.0377,8.1153,8.1143,8.0481,0.0,7.3074,7.0653,0.0,0.0,0.0,0.0,0.0,0.0,0.0,0.0,0.0,0.0,0.0,0.0,0.0,0.0,0.0,0.0,0.0,0.0,0.0,0.0,0.0,4.5062,4.7218,4.8098,4.937,4.9846,4.9323,4.8632,4.7846,4.6879,4.6148,4.5763,4.5763,4.6562,4.8736,5.2311,5.6068,5.83,5.9082,5.9981,6.0356,6.0218,5.7431,5.4164,5.0619,4.833,0.0,0.0,0.0,0.0,0.0,0.0,0.0,0.0,0.0,0.0,0.0,0.0,0.0,0.0,0.0,0.0,0.0,0.0,0.0,0.0,0.0,0.0,0.0,0.0,0.0,0.0,0.0,0.0,0.0,0.0,0.0,0.0,0.0,0.0,0.0,0.0,0.0,0.0,0.0,5.5543,5.8472,5.9368,6.0224,6.0221,0.0,0.0,0.0,0.0,0.0,0.0,0.0,0.0,0.0,6.9704,7.0668,7.1948,7.355,7.5727,7.7284,7.8183,8.0644,8.2321,8.3258,8.4038,8.4893,8.5781,8.5274,8.4066,8.2122,7.7573,7.4218,7.1792,0.0,0.0,0.0,0.0,7.0506,7.136,0.0,0.0,0.0,0.0,0.0,0.0,0.0,0.0,0.0,0.0,0.0,0.0,4.4398,4.7125,4.9409,5.0803,5.1962,5.2248,5.1333,5.0898,5.0022,4.8547,4.8278,4.8279,4.8475,5.0371,5.3533,5.7982,6.1153,6.31,6.3895,6.4751,6.5174,6.5125,6.4242,6.0988,5.5877,5.2732,5.0141,4.7886,0.0,0.0,0.0,0.0,0.0,0.0,0.0,0.0,0.0,0.0,0.0,0.0,0.0,0.0,0.0,0.0,0.0,0.0,0.0,0.0,0.0,0.0,0.0,0.0,0.0,0.0,0.0,0.0,0.0,0.0,0.0,0.0,0.0,0.0,0.0,0.0,0.0,5.9748,6.2285,6.2946,6.4146,6.4254,0.0,0.0,0.0,0.0,0.0,0.0,6.9703,7.1603,7.304,7.3936,7.5358,7.6665,7.7712,7.9842,8.1314,8.2203,8.3961,8.5443,8.6652,8.6844,8.766,8.8863,8.82,8.8272,8.8467,8.3339,7.9881,7.7684,7.6796,7.5534,7.4377,7.5885,7.6702,7.7309,0.0,0.0,0.0,0.0,0.0,0.0,0.0,0.0,0.0,0.0,0.0,4.4522,4.7132,5.0405,5.2778,5.3623,5.5265,5.5853,5.4992,5.3449,5.2169,5.1232,5.0419,5.0344,5.1203,5.6032,5.9882,6.2562,6.5159,6.6855,6.7651,6.8505,6.8878,6.8816,6.7989,6.4704,5.9653,5.7074,5.4043,5.0709,4.7281,0.0,0.0,0.0,0.0,0.0,0.0,0.0,0.0,0.0,0.0,0.0,0.0,0.0,0.0,0.0,0.0,0.0,0.0,0.0,0.0,0.0,0.0,0.0,0.0,0.0,0.0,0.0,0.0,0.0,0.0,0.0,0.0,0.0,0.0,0.0,0.0,0.0,0.0,6.6536,6.87,0.0,0.0,0.0,0.0,7.0169,7.1854,7.3269,7.4144,7.6546,7.833,7.9186,8.012,8.1353,8.3,8.3978,8.486,8.5682,8.7439,8.8296,8.8413,8.9154,8.9565,8.9652,8.9609,8.959,8.9445,8.6785,8.4647,8.3045,8.215,8.1197,8.0466,8.1366,8.2749,8.4202,0.0,0.0,0.0,0.0,0.0,3.6156,3.671,3.7573,3.8747,4.0467,4.3436,4.6366,4.898,5.2845,5.5535,5.6344,5.7988,5.8185,5.6231,5.5537,5.4332,5.2302,5.2499,5.3827,5.6364,6.0931,6.4243,6.6259,6.9418,7.1088,7.1346,7.2202,7.2589,7.2543,7.1693,6.9697,6.6636,6.235,5.9213,5.672,5.2777,4.9318,0.0,0.0,0.0,0.0,0.0,0.0,0.0,0.0,0.0,0.0,0.0,0.0,0.0,0.0,0.0,0.0,0.0,0.0,0.0,0.0,0.0,0.0,0.0,0.0,0.0,0.0,0.0,0.0,0.0,0.0,0.0,0.0,0.0,0.0,0.0,0.0,0.0,7.0844,7.2681,0.0,7.2214,7.2855,7.3948,7.5385,7.6612,7.7911,7.9323,8.0778,8.1963,8.2799,8.3633,8.4628,8.5782,8.6642,8.7491,8.8371,8.9504,9.0633,9.1723,9.1996,9.2455,9.2987,9.2987,9.2978,9.293,9.2016,8.966,8.6622,8.631,8.5641,8.4964,8.5821,8.6514,8.7164,0.0,0.0,0.0,0.0,3.6005,3.6285,3.7187,3.8281,3.9765,4.1797,4.5312,4.8594,5.121,5.5312,5.8201,5.9055,6.0425,6.0426,5.8434,5.7772,5.6562,5.4531,5.582,5.8242,6.1718,6.5428,6.8161,6.9834,7.2451,7.3738,7.3693,7.4279,7.4512,7.4512,7.3928,7.307,7.1782,6.8017,6.4407,6.0918,5.7502,5.3916,5.0325,0.0,0.0,0.0,0.0,0.0,0.0,0.0,0.0,0.0,0.0,0.0,0.0,0.0,0.0,0.0,0.0,0.0,0.0,0.0,0.0,0.0,0.0,0.0,0.0,0.0,0.0,0.0,0.0,0.0,0.0,0.0,0.0,0.0,0.0,7.0858,7.3951,7.4828,7.6649,7.7465,7.6609,7.7237,7.8316,7.9782,8.075,8.1858,8.326,8.4448,8.5474,8.6304,8.7097,8.8084,8.9199,8.9782,9.0512,9.1393,9.1942,9.2798,9.3887,9.3887,9.4237,9.4781,9.4781,9.4733,9.4718,9.4718,9.2992,9.0412,9.021,8.9605,8.8926,8.9782,9.0084,9.0187,0.0,0.0,0.0,3.6009,3.6015,3.6328,3.7226,3.8828,4.0859,4.3437,4.7539,5.1211,5.3828,5.793,6.082,6.1719,6.2539,6.2656,6.1758,6.0156,5.8867,5.8086,6.0508,6.3476,6.6953,6.9531,7.1719,7.3437,7.4336,7.4765,7.4765,7.4765,7.4765,7.4765,7.4726,7.4726,7.4607,7.3748,6.9488,6.3157,6.136,5.808,5.4174,0.0,0.0,0.0,0.0,0.0,0.0,0.0,0.0,0.0,0.0,0.0,0.0,0.0,0.0,0.0,0.0,0.0,0.0,0.0,0.0,0.0,0.0,0.0,0.0,0.0,0.0,0.0,0.0,0.0,0.0,0.0,0.0,0.0,7.0862,7.4482,7.7503,7.8399,8.0674,8.1832,8.0976,8.1597,8.2427,8.3278,8.4138,8.5014,8.5913,8.7586,8.8909,8.9804,9.0583,9.1805,9.3425,9.342,9.3866,9.4712,9.4712,9.4751,9.4751,9.4751,9.4751,9.4751,9.4751,9.4718,9.4577,9.4577,9.4541,9.4433,9.377,9.3002,9.2375,9.3148,9.3428,9.342,0.0,0.0,3.6009,3.6013,3.6523,3.7226,3.8125,3.9726,4.1992,4.5156,4.8789,5.2539,5.6406,6.0078,6.2656,6.3515,6.3789,6.3281,6.1797,6.0664,6.0547,6.1562,6.4101,6.6797,6.9609,7.2812,7.5,7.6133,7.7578,7.8281,7.8281,7.8281,7.8281,7.8281,7.7695,7.707,7.6445,7.5547,7.3359,7.0194,6.7182,6.3781,6.0305,0.0,0.0,0.0,0.0,0.0,0.0,0.0,0.0,0.0,0.0,0.0,0.0,0.0,0.0,0.0,0.0,0.0,0.0,0.0,0.0,0.0,0.0,0.0,0.0,0.0,0.0,0.0,0.0,0.0,0.0,0.0,7.4658,7.7015,7.62,7.923,8.1877,8.2759,8.4482,8.5521,8.5287,8.548,8.5971,8.682,8.7106,8.7888,8.9405,9.0533,9.153,9.235,9.3205,9.39,9.4351,9.4263,9.4624,9.5505,9.5452,9.5744,9.6365,9.6365,9.6365,9.6365,9.6365,9.6352,9.6295,9.6295,9.6288,9.612,9.4721,9.3995,9.3828,9.4055,9.4127,9.4109,0.0,3.5385,3.613,3.6484,3.6953,3.7734,3.8945,4.0586,4.293,4.6406,5.0156,5.4023,5.8008,6.1172,6.3515,6.4726,6.418,6.3633,6.3359,6.2851,6.3359,6.5117,6.7656,7.0234,7.2812,7.5586,7.7383,7.8242,7.9219,7.9687,7.9687,7.9687,7.9687,7.9687,7.9219,7.8711,7.8203,7.7344,7.6172,7.4726,7.2342,6.8864,6.5036,6.3514,6.1445,5.9062,5.7578,5.6211,5.5039,5.4218,0.0,0.0,0.0,0.0,0.0,0.0,0.0,0.0,0.0,0.0,0.0,0.0,0.0,0.0,0.0,0.0,0.0,0.0,0.0,0.0,0.0,0.0,0.0,0.0,7.9204,8.1756,8.2368,8.3871,8.5225,8.6105,8.7293,8.8103,8.8103,8.806,8.8551,8.9785,8.9902,9.064,9.2389,9.2972,9.3618,9.4402,9.4924,9.534,9.5689,9.5586,9.5783,9.6287,9.6249,9.6502,9.7006,9.7006,9.7006,9.7006,9.7006,9.6993,9.6959,9.6959,9.6946,9.6809,0.0,0.0,0.0,0.0,9.5242,9.4906,0.0,3.5545,3.6406,3.7187,3.7461,3.8125,3.9648,4.1406,4.3789,4.7305,5.1328,5.5234,5.8945,6.1445,6.3555,6.5312,6.3945,6.3711,6.5351,6.5742,6.6719,6.8555,7.1094,7.3633,7.6133,7.789,7.918,8.0,8.0078,8.0195,8.0273,8.0273,8.0234,8.0156,8.0039,7.9922,7.9804,7.8984,7.8203,7.7422,7.6523,7.3203,6.875,6.8672,6.6601,6.3711,6.3593,6.2461,6.0859,6.0075,0.0,0.0,0.0,0.0,0.0,0.0,0.0,0.0,0.0,0.0,0.0,0.0,0.0,0.0,0.0,0.0,0.0,0.0,0.0,0.0,0.0,0.0,0.0,0.0,8.3438,8.5901,8.8356,8.8084,8.7924,8.8594,8.9405,8.9921,9.0038,8.996,9.0633,9.2265,9.2382,9.312,9.4746,9.4824,0.0,0.0,0.0,9.6318,9.7094,9.7025,9.6993,9.6993,9.6986,9.6986,9.6986,9.6986,9.6986,9.6986,9.7096,9.7101,9.7039,9.7109,9.7151,9.7069,9.701,9.6986,9.6986,9.6986,9.6436,9.5708,0.0,3.6445,3.7109,3.7266,3.8476,3.9492,3.9844,4.1914,4.4687,4.8203,5.1172,5.4805,5.9648,6.125,6.2656,6.4414,6.3594,6.3437,6.4492,6.6523,6.875,7.1172,7.375,7.6055,7.7969,7.9648,8.0937,8.1797,8.25,8.3203,8.3906,8.3906,8.3515,8.2812,8.2108,8.1404,8.0701,7.9838,7.9367,7.9132,7.8273,7.5661,7.2226,7.1522,6.9959,6.8084,6.7376,6.6003,6.4473,6.4316,6.3089,6.146,6.0231,5.8275,0.0,0.0,0.0,0.0,0.0,0.0,0.0,0.0,0.0,0.0,0.0,0.0,0.0,0.0,0.0,0.0,0.0,0.0,0.0,8.5135,8.7332,8.8959,9.0251,9.0844,9.0946,9.0484,9.1145,9.1892,9.2592,9.2659,9.3081,9.4135,9.4213,9.4618,9.5538,9.5571,9.5974,9.6779,9.676,9.6831,9.7025,9.6953,9.6912,9.6912,9.6856,0.0,9.6827,9.6827,9.6827,9.6866,9.7562,9.7865,9.7927,9.8577,9.8841,9.8678,9.7354,9.6827,9.6827,9.6827,9.6706,9.6483,3.6758,3.7344,3.8086,3.8516,3.9336,4.0195,4.1016,4.2617,4.4961,4.8437,5.1133,5.4336,5.8672,5.9922,6.1133,6.2851,6.3397,6.4217,6.5507,6.8437,7.125,7.3828,7.6406,7.8398,7.9726,8.1013,8.2066,8.2883,8.3352,8.4016,8.4836,8.4878,8.4644,8.4172,8.3738,8.3067,8.2158,8.1252,8.0658,8.0184,7.9284,7.7654,7.5636,7.4359,7.3067,7.1846,7.1409,7.0147,6.8649,6.8639,6.7202,6.5243,6.4351,6.2534,6.0388,0.0,0.0,0.0,0.0,0.0,0.0,0.0,0.0,0.0,0.0,0.0,0.0,0.0,0.0,7.6982,8.0,0.0,8.5258,8.7827,8.9333,9.0605,9.1952,9.2514,9.2586,9.2185,9.2514,9.307,9.3853,9.3969,9.4307,9.5127,9.5204,9.5542,9.6358,9.6397,9.6579,9.7006,9.6973,9.6953,9.6953,9.6877,9.6841,9.6841,9.6805,9.7015,9.7441,9.7441,9.7673,9.8098,9.8524,9.871,9.871,9.9135,9.929,9.9212,9.8369,9.806,9.8052,9.8014,9.7975,9.7897,3.7539,3.8398,3.9258,3.9805,4.0039,4.0664,4.2187,4.3125,4.4883,4.8203,5.0742,5.3476,5.6797,5.793,5.9101,6.0817,6.2686,6.4677,6.6753,7.023,7.3474,7.625,7.8672,8.035,8.1205,8.2096,8.2945,8.3747,8.3903,8.4411,8.5268,8.532,8.5242,8.4995,8.4992,8.4503,8.3569,8.2703,8.1907,8.1182,8.0126,7.9188,7.8255,7.6794,7.5549,7.4591,7.4431,7.3358,7.2004,7.1827,7.0338,6.8439,6.7532,6.6136,6.4532,6.2719,6.1066,0.0,0.0,0.0,0.0,0.0,0.0,0.0,0.0,7.1202,7.3627,7.641,7.9445,8.2164,8.399,8.621,8.823,8.974,9.075,9.1804,9.3197,9.3536,9.3686,9.3842,9.3725,9.3897,9.4661,9.4721,9.5084,9.5881,9.5952,9.6263,9.6947,9.6986,9.6979,9.6966,9.6905,9.687,9.687,9.7006,9.7054,9.7054,9.7209,9.7634,9.833,9.833,9.8671,9.929,9.9483,9.9645,9.9793,9.9793,9.9793,9.9793,9.9777,9.9769,9.9723,9.935,9.9194,9.9037,0.0,3.9766,4.0703,4.0039,4.0547,4.1367,4.2266,4.3125,4.4687,4.7383,4.9336,5.1484,5.4141,5.5195,5.6403,5.8073,6.0522,6.3371,6.6582,7.0808,7.4642,7.7966,7.988,8.1243,8.2045,8.293,8.3765,8.4585,8.5283,8.6063,8.6924,8.6926,8.6534,8.5788,8.5765,8.5267,8.4335,8.3526,8.3063,8.2793,8.1158,7.9933,7.9085,7.812,7.6784,7.5371,7.4608,7.3659,7.2659,7.1881,7.1401,7.0939,7.011,6.9157,6.7987,6.623,6.5035,6.4106,6.3333,6.425,6.5829,6.7587,6.9395,7.162,0.0,7.65,7.8236,8.1543,8.3796,8.5894,8.8341,8.9667,9.0677,9.1643,9.2537,9.3159,9.3353,9.3969,9.4667,9.5449,9.4867,9.4705,9.5553,9.5615,9.5926,9.6773,9.6851,9.6863,9.6912,9.6905,9.6877,9.6812,9.6798,9.6798,9.6798,9.7557,9.7943,9.7943,9.8671,9.9058,9.9174,9.9174,9.9212,9.9328,10.011,10.0883,10.158,10.158,10.158,10.161,10.1492,10.1382,10.1313,9.9759,9.9073,9.8925,0.0,4.0351,4.1094,4.0703,4.0976,4.1641,4.2969,4.3476,4.4648,4.7266,4.8672,5.0039,5.1601,5.2964,5.4473,5.6139,5.9113,6.2772,6.7211,7.156,7.5559,7.9008,8.0805,8.2083,8.2952,8.3257,8.402,8.5357,8.5644,8.6218,8.7078,8.7064,8.6905,8.6529,8.6553,8.6038,8.5109,8.478,8.4048,8.3029,8.2291,8.0883,7.9083,7.8263,7.6578,7.4632,7.4316,7.3276,0.0,7.1085,7.042,6.9939,6.959,6.9188,6.8692,6.7921,6.743,6.7177,6.7293,6.8684,7.0413,7.1586,7.3595,7.5944,7.8412,8.0791,8.3019,8.4966,8.7142,8.9007,9.0056,9.0983,9.1838,9.2692,9.3159,9.373,9.4668,9.5066,9.558,9.6397,9.6159,9.6056,9.6405,9.6417,9.6538,9.6845,9.6877,9.7095,9.7562,9.7601,9.778,9.8253,9.8253,9.8253,9.8253,9.8632,9.8787,9.8787,9.9135,9.9568,10.011,10.011,10.0303,10.0806,10.1193,10.1587,10.1889,10.1889,10.1889,10.1881,10.1793,10.1688,10.1599,10.0813,10.0503,10.0305,0.0,4.0586,4.1211,4.1211,4.1211,4.1758,4.3437,4.3711,4.4531,4.6914,4.8203,4.9336,5.0429,5.1587,5.3005,5.4702,5.773,6.1768,6.6958,7.1353,7.5397,7.9128,8.0924,8.2191,8.3035,8.3426,8.419,8.5373,8.5802,8.6331,8.6953,8.6952,8.6952,8.6953,8.6953,8.6436,8.553,8.5292,8.4333,8.2919,8.2687,8.1176,7.8967,7.8159,7.5929,7.323,7.3055,7.1843,7.0239,6.9343,6.85,6.7802,6.8068,6.8269,6.8414,6.864,6.9175,6.9971,7.1087,7.2594,7.4179,7.5493,7.7612,7.9911,8.1892,8.4456,8.671,8.7802,8.9512,9.0866,9.1084,9.1672,9.2376,9.3215,9.3564,9.4208,9.5598,9.5989,9.6333,9.6902,9.6912,9.6863,9.6863,9.6863,9.6841,9.679,9.7015,9.7441,9.806,9.833,9.871,9.929,9.929,9.929,9.929,9.9522,9.9645,9.9645,9.9909,10.0303,10.1007,10.1007,10.1309,10.1889,10.1889,10.1889,10.1889,10.1889,10.192,10.1811,10.1683,10.159,10.1609,10.1509,10.1394,10.1308,0.0,0.0,4.1211,4.1211,4.1211,4.1758,4.3437,4.3711,4.4336,4.6094,4.7812,4.9531,5.1165,5.134,5.2049,5.3806,5.6237,5.9911,6.5125,6.9481,7.3795,7.8065,7.9897,8.1178,8.1921,8.3546,8.4345,8.4267,8.5923,8.6776,8.6815,8.6815,8.6815,8.6815,8.6815,8.6276,8.5369,8.4589,8.37,8.2715,8.189,8.0536,7.8918,7.8028,7.5049,7.1264,7.0514,6.9074,6.7398,6.6509,6.5666,6.5082,6.592,6.6725,6.7491,6.834,7.0388,7.2776,7.4558,7.5756,7.7103,7.9728,8.1698,8.3607,8.621,8.7525,8.8691,9.0328,9.0755,9.1045,9.18,9.2033,9.236,9.3164,9.3962,9.4777,9.567,9.6411,9.6898,9.6898,9.6834,9.6783,9.6783,9.6783,9.6783,9.6783,9.7595,9.806,9.8098,9.8826,9.9251,9.929,9.929,9.929,9.929,10.011,10.062,10.062,10.1386,10.1812,10.1897,10.1897,10.1889,10.1889,10.1889,10.1889,10.1889,10.1889,10.1803,10.1713,10.1581,10.1609,10.1509,10.1404,10.1289,10.1289,0.0,0.0,0.0,4.1992,4.2461,4.3242,4.4375,4.4062,4.4336,4.6055,4.7304,0.0,0.0,0.0,0.0,0.0,5.4905,5.8364,6.2429,6.7275,7.1449,7.4593,7.7527,7.9403,8.0162,8.1246,8.2309,8.334,8.3879,8.4436,8.5016,8.5016,8.5016,8.5016,8.5016,8.481,8.452,8.425,8.3263,8.1929,8.1613,7.9801,7.7132,7.5701,7.2855,6.9231,0.0,6.5415,6.4644,6.3212,6.2876,6.3246,6.4095,6.5716,6.7915,7.1067,7.3013,7.467,7.7073,7.8862,8.0518,8.2538,8.4398,8.6054,8.7525,8.8963,9.0133,9.0677,9.1228,9.1695,9.1944,9.2464,9.3106,9.3902,9.5215,9.6243,9.6508,9.7236,9.7535,9.6904,9.6798,9.6783,9.6783,9.6783,9.6783,9.6783,9.7054,9.7711,9.8826,9.9135,9.9831,10.0999,10.0999,10.0999,10.0999,10.1309,10.151,10.151,10.1812,10.1889,10.1889,10.1889,10.1889,10.1889,10.1889,10.1889,10.1889,10.1795,10.1708,10.1705,10.1588,10.1507,10.1509,10.1279,10.1279,10.1279,0.0,0.0,0.0,0.0,0.0,0.0,0.0,0.0,0.0,0.0,0.0,0.0,0.0,0.0,0.0,0.0,0.0,5.7056,6.0207,6.4683,6.8489,7.1427,7.4285,7.6435,7.7795,7.8656,7.9731,8.1029,8.1606,8.2161,8.2703,8.3012,8.3167,8.3167,8.3167,8.3012,8.2703,8.2393,8.1465,8.0105,7.9447,7.7713,7.5276,7.328,7.0546,0.0,6.3868,6.2424,6.1994,6.0871,6.0844,6.1445,6.2662,6.5191,6.8533,7.2564,7.4788,7.6567,7.9242,8.1303,8.3105,8.4839,8.6573,8.8113,8.9002,9.0284,9.1172,9.0845,9.114,9.1393,9.1041,9.1669,9.2619,9.3723,9.5093,9.6249,9.6821,9.738,9.7461,9.6868,9.6783,9.6783,9.6783,9.6783,9.6783,9.6783,9.7092,9.775,9.8826,9.9452,10.0303,10.1394,10.1696,10.1889,10.1889,10.1889,10.1889,10.1889,10.1889,10.1889,10.1889,10.1889,10.1889,10.1889,10.1889,10.1912,10.1803,10.1708,10.1688,10.1611,10.1487,10.149,10.1414,10.1308,10.1279,10.1279,0.0,0.0,0.0,0.0,0.0,0.0,0.0,0.0,0.0,0.0,0.0,0.0,0.0,0.0,0.0,0.0,0.0,0.0,5.8443,6.1714,6.5032,6.8367,7.0272,7.2342,7.4684,7.5647,7.6544,7.737,7.8989,7.9795,7.9911,8.0724,8.111,8.111,8.111,8.0646,7.9834,7.9067,7.8216,7.721,7.5579,7.4336,7.3214,7.0689,6.8116,6.5396,6.2045,6.03,5.9595,5.9557,5.9678,6.0144,6.2017,6.5477,6.9554,7.2984,7.5832,7.8423,8.1176,8.3146,8.4868,8.6744,8.8385,8.9779,9.06,9.1449,9.1739,9.0758,9.0495,9.01,8.9151,8.972,9.0946,9.2658,9.3713,9.4955,9.6659,9.6827,9.6783,9.6744,9.6744,9.6744,9.6744,9.6783,9.6783,9.6783,9.7557,9.806,9.8098,9.9607,10.0504,10.062,10.1394,10.1897,10.1889,10.1889,10.1889,10.1889,10.1889,10.1889,10.1889,10.1889,10.1889,10.1889,10.1889,10.1803,10.1683,10.1713,10.1603,10.1518,10.1509,10.1404,10.1279,10.1279,10.1279,10.1279,0.0,0.0,0.0,0.0,0.0,0.0,0.0,0.0,0.0,0.0,0.0,0.0,0.0,0.0,0.0,0.0,0.0,0.0,5.568,5.8435,6.0954,6.3081,6.6066,6.7957,6.8559,7.0069,7.1549,7.2916,7.3342,7.4231,7.5508,7.574,7.585,7.585,7.585,7.5701,7.5508,7.5276,7.4309,7.2877,7.2407,7.0534,6.7945,6.6621,6.4486,6.2007,6.0476,5.9771,5.9424,5.8897,6.1247,6.4822,6.7191,7.0023,7.3023,7.5871,7.8137,8.044,8.3723,8.545,8.6894,8.9235,9.0133,9.0522,9.0755,9.0912,9.0647,8.9155,8.8187,8.752,8.728,8.7904,8.923,9.1567,9.379,9.5574,9.6658,9.6798,9.6551,9.5893,9.5816,9.5816,9.5816,9.6435,9.6783,9.6783,9.7015,9.7402,9.806,9.8524,9.9297,10.062,10.0814,10.1193,10.1889,10.1889,10.1889,10.1889,10.1889,10.1889,10.1889,10.1889,10.1889,10.1889,10.1787,10.1699,10.1713,10.1615,10.1487,10.1509,10.1395,10.1308,10.1279,10.1279,10.1279,10.1279,0.0,0.0,0.0,0.0,0.0,0.0,0.0,0.0,0.0,0.0,0.0,0.0,0.0,0.0,0.0,0.0,0.0,0.0,0.0,5.6343,5.8294,5.9994,6.2641,6.441,6.5151,6.6511,6.7807,6.9048,6.9435,7.0131,7.1098,7.1479,7.1678,7.1678,7.1678,7.1678,7.1634,7.1253,7.0518,0.0,0.0,6.6731,6.4832,6.3136,6.1615,6.0228,5.9348,5.9733,6.0878,6.1951,6.4558,6.7813,7.0739,7.3226,7.5526,7.8143,8.0727,8.3191,8.5572,8.7428,8.9007,9.0444,9.0794,9.0672,9.0296,8.9549,8.8484,8.6764,8.5275,8.4248,8.4252,8.4927,8.6349,8.8897,9.1226,9.3302,9.4926,9.512,9.5066,9.4921,9.4882,9.5037,9.5423,9.5887,9.6359,9.6783,9.6783,9.7015,9.7518,9.7905,9.8524,9.9452,9.9839,10.038,10.1309,10.1696,10.1889,10.1889,10.1889,10.1889,10.1889,10.1889,10.1912,10.1795,10.1708,10.1718,10.1594,10.1487,10.149,10.1404,10.1308,10.1279,10.1279,10.1279,10.1279,10.1279,0.0,0.0,0.0,0.0,0.0,0.0,0.0,0.0,0.0,0.0,0.0,0.0,0.0,0.0,0.0,0.0,0.0,0.0,0.0,0.0,5.6633,5.8209,5.9757,6.1316,6.2825,6.3715,6.4566,6.5373,6.6108,6.6533,6.6688,6.7418,6.7766,6.7766,6.7766,6.7766,6.7727,6.6959,6.6572,6.6296,6.4119,6.3127,6.2653,0.0,5.9524,5.9359,5.8836,6.0327,6.3064,6.6455,6.8336,6.9902,7.3207,7.5661,7.7767,8.0257,8.3261,8.6032,8.7205,8.9123,9.0833,9.0949,9.0866,9.0496,8.9327,8.763,8.5688,8.3675,8.1678,8.0281,8.0357,8.1094,8.2642,8.5419,8.7543,8.9715,9.2267,9.2731,9.305,9.3686,9.3833,9.4219,9.4953,9.527,9.5733,9.6529,9.6737,9.6783,9.6783,9.7518,9.7982,9.8098,9.8864,9.9723,10.062,10.1309,10.1812,10.1889,10.1889,10.1889,10.1912,10.1912,10.1787,10.1705,10.1688,10.1594,10.1518,10.1499,10.1404,10.1279,10.1279,10.1279,10.1279,10.1279,10.1279,10.1279,0.0,0.0,0.0,0.0,0.0,0.0,0.0,0.0,0.0,0.0,5.1234,5.1362,0.0,0.0,0.0,0.0,0.0,0.0,0.0,0.0,0.0,5.6509,5.7499,5.8175,5.8406,5.9261,6.0117,6.1002,6.1157,6.1543,6.2201,6.2356,6.2433,6.2433,6.2433,6.2433,6.2433,6.2278,6.1814,6.1229,6.1402,6.0583,5.9338,5.9458,0.0,0.0,5.9902,6.2061,6.4762,6.7531,7.0059,7.2504,7.5268,7.8349,8.1266,8.31,8.5116,8.7249,8.9507,9.0444,9.0988,9.1682,9.1301,9.0137,8.7841,8.5324,8.261,7.9451,7.6739,7.5123,7.5789,7.6619,7.8521,8.2523,8.5258,8.7787,9.0335,9.13,9.1794,9.194,9.2542,9.3005,9.316,9.4505,9.5478,9.5648,9.6359,9.6783,9.6783,9.6938,9.7363,9.8098,9.8864,9.9723,10.062,10.0698,10.1201,10.1889,10.1889,10.1819,10.1708,10.1708,10.1697,10.1603,10.16,10.1507,10.1509,10.1385,10.1299,10.1279,10.1279,10.1279,10.1279,10.1279,10.1279,10.1279,0.0,0.0,0.0,0.0,0.0,0.0,0.0,5.0742,5.2383,5.332,5.3823,5.3731,5.28,5.2688,5.2812,0.0,0.0,0.0,0.0,0.0,0.0,5.6106,5.6951,5.7564,5.7985,5.8836,5.9691,6.0538,0.0,6.0731,6.1079,6.0654,6.046,6.046,5.9996,5.9803,5.9803,5.9803,5.9841,5.9876,5.9726,5.941,5.9058,5.8941,0.0,0.0,5.9819,6.1807,6.4486,6.7134,7.0081,7.3263,7.6821,8.0029,8.2907,8.5087,8.6928,8.8657,9.0328,9.1144,9.1566,9.1993,9.0746,8.8839,8.6677,8.3012,7.9345,7.6789,7.3749,7.196,7.323,7.4189,7.6034,7.9842,8.2675,8.5311,8.7865,8.8938,8.9802,9.0688,9.1104,9.1674,9.2569,9.3885,9.4883,9.5355,9.6274,9.6783,9.6783,9.6783,9.6976,9.7402,9.8253,9.9065,9.9916,10.0388,10.0984,10.1787,10.1787,10.1699,10.1607,10.1607,10.1603,10.1505,10.1498,10.149,10.1395,10.1299,10.1279,10.1279,10.1279,10.1279,10.1279,10.1279,10.1279,10.1279,0.0,0.0,0.0,0.0,0.0,0.0,0.0,5.1953,5.3828,5.5351,5.6484,5.6637,5.5254,5.4567,5.4188,0.0,0.0,0.0,0.0,0.0,0.0,0.0,5.68,5.7511,5.8312,0.0,0.0,6.0576,6.0576,0.0,0.0,0.0,0.0,0.0,5.8642,5.8221,5.8067,5.826,5.872,0.0,0.0,5.9107,5.9642,0.0,0.0,0.0,0.0,6.1514,6.3779,6.6245,6.9419,7.3016,7.7023,8.0485,8.3573,8.6229,8.8171,8.9685,9.0556,9.1294,9.1755,9.1589,8.9682,8.7337,8.5136,8.0695,7.6443,7.4237,7.1191,6.9321,7.0828,7.2037,7.381,7.7001,7.9895,8.2598,8.5151,8.6532,8.7927,8.9588,8.9965,9.0659,9.216,9.3332,9.4271,9.5053,9.615,9.6783,9.6783,9.6783,9.6783,9.6783,9.7634,9.8477,9.9267,10.0087,10.089,10.1697,10.1697,10.1607,10.1597,10.1597,10.1496,10.1481,10.1481,10.1395,10.1279,10.1279,10.1279,10.1279,10.1279,10.1279,10.1279,10.1279,10.1279,10.1279,0.0,0.0,0.0,0.0,0.0,0.0,0.0,5.2969,5.539,5.6367,5.793,5.8906,5.8747,5.6584,5.5153,0.0,0.0,0.0,0.0,0.0,0.0,0.0,0.0,0.0,0.0,0.0,0.0,5.884,5.884,0.0,0.0,0.0,0.0,0.0,0.0,5.6975,5.6278,5.7091,0.0,0.0,0.0,0.0,0.0,0.0,0.0,0.0,0.0,6.2521,6.369,6.5519,6.8467,7.1815,7.4545,7.8878,8.3502,8.6156,8.8107,8.9599,9.0545,9.0872,9.0701,8.987,8.8262,8.6022,8.2655,7.8425,7.4289,7.0966,6.8116,6.6519,6.7404,6.8943,7.0905,7.356,7.6729,7.9777,8.2317,8.4733,8.688,8.8611,8.9487,9.0295,9.1257,9.2884,9.3987,9.4116,9.5772,9.6783,9.6783,9.6783,9.6783,9.6783,9.7634,9.8447,9.9188,10.0115,10.0916,10.1594,10.1594,10.1588,10.1489,10.1489,10.1394,10.1299,10.1299,10.1289,10.1279,10.1279,10.1279,10.1279,10.1279,10.1279,10.1279,10.1279,10.1279,10.1279,0.0,0.0,0.0,0.0,0.0,0.0,5.0703,5.3867,5.6562,5.7969,5.9648,6.0508,5.996,5.855,5.7403,5.6817,0.0,0.0,0.0,0.0,0.0,0.0,0.0,0.0,0.0,0.0,5.9261,6.0112,6.0112,0.0,0.0,0.0,0.0,0.0,0.0,5.7907,5.7598,5.7946,0.0,0.0,0.0,0.0,0.0,0.0,0.0,0.0,0.0,0.0,6.3516,6.479,6.7162,6.9954,7.2004,7.5193,7.9227,8.4475,8.6865,8.8135,8.9521,8.9937,8.987,8.9426,8.7617,8.5188,8.2166,7.7717,7.3388,7.042,6.7693,6.6109,6.6877,6.8446,7.0452,7.295,7.6716,7.9977,8.2016,8.4939,8.7325,8.8564,8.9863,9.1018,9.1902,9.3568,9.4857,9.5451,9.6211,9.6637,9.6637,9.673,9.6761,9.6754,9.7558,9.8368,9.9136,9.9939,10.0784,10.1496,10.1496,10.1479,10.1385,10.1385,10.1404,10.1279,10.1279,10.1279,10.1279,10.1279,10.1279,10.1279,10.1279,10.1279,10.1279,10.1279,10.1279,10.1279,0.0,0.0,0.0,0.0,0.0,4.9375,5.082,5.3984,5.6758,5.8242,6.0117,6.0976,6.0156,5.9531,5.8822,5.7892,5.701,0.0,0.0,0.0,0.0,0.0,0.0,0.0,0.0,0.0,6.0668,6.1461,6.1737,6.1853,0.0,0.0,6.0499,6.0228,0.0,0.0,0.0,0.0,0.0,0.0,0.0,0.0,0.0,0.0,0.0,0.0,0.0,0.0,0.0,0.0,0.0,6.7602,6.9077,7.1326,7.481,8.1805,8.4678,8.5998,8.7701,8.8206,8.8179,8.785,8.6001,8.3572,8.0905,7.6662,7.254,6.99,6.7448,6.5979,6.6496,6.8025,6.999,7.2485,7.6271,7.976,8.2243,8.507,8.7405,8.8785,9.0264,9.1473,9.2358,9.4051,9.5495,9.6412,9.6476,9.6492,9.6492,9.6645,9.68,9.7015,9.7818,9.8618,9.942,10.0191,10.0909,10.1394,10.1394,10.1395,10.1279,10.1279,10.1279,10.1279,10.1279,10.1279,10.1279,10.1279,10.1279,10.1279,10.1279,10.1279,10.1279,10.1279,10.1279,10.1279,0.0,0.0,0.0,0.0,0.0,0.0,5.0078,5.3125,5.5625,5.6523,5.8828,6.0117,5.9297,5.9219,5.8827,5.7873,5.6992,0.0,0.0,0.0,0.0,0.0,0.0,0.0,0.0,0.0,6.1585,6.239,6.325,6.3676,6.3637,6.2781,6.1926,6.1041,0.0,0.0,0.0,0.0,0.0,0.0,0.0,0.0,0.0,0.0,0.0,0.0,0.0,0.0,0.0,0.0,0.0,0.0,0.0,6.7705,7.1158,7.8205,8.149,8.3256,8.5047,8.5541,8.533,8.4407,8.2836,8.0821,7.8136,7.4809,7.1563,6.8876,6.6952,6.5767,6.5653,6.7027,6.9028,7.1513,7.4692,7.8343,8.2701,8.4689,8.67,8.9295,9.0435,9.1335,9.2218,9.4016,9.5469,9.6326,9.6442,9.6492,9.6492,9.6492,9.6917,9.7765,9.8614,9.9458,10.0208,10.1094,10.1385,10.1289,10.1289,10.1289,10.1279,10.1279,10.1279,10.1279,10.1279,10.1279,10.1279,10.1279,10.1279,10.1279,10.1279,10.1279,10.1279,10.1279,10.1279,10.1279,0.0,0.0,0.0,0.0,0.0,0.0,0.0,5.2109,5.4062,5.5508,5.7461,5.8594,5.8359,5.832,5.8202,5.788,5.7043,0.0,0.0,0.0,0.0,0.0,0.0,0.0,0.0,6.0937,6.2175,6.239,6.3864,6.4295,6.3715,6.4024,6.34,6.1964,6.1732,6.1118,0.0,0.0,0.0,0.0,0.0,0.0,0.0,0.0,0.0,0.0,0.0,0.0,0.0,0.0,0.0,0.0,0.0,0.0,0.0,7.1049,7.5523,7.9546,8.1279,8.2219,8.2625,8.2277,8.0851,7.8822,7.6229,7.3391,7.0543,6.7896,6.637,6.5503,6.5413,6.6835,6.8801,7.1229,7.4974,7.8861,8.2578,8.5494,8.8047,9.0099,9.2268,9.3966,9.4925,9.5566,9.6026,9.6295,9.6361,9.6379,9.6379,9.688,9.733,9.7701,9.851,9.936,10.0115,10.0991,10.1318,10.1279,10.1279,10.1279,10.1279,10.1279,10.1279,10.1279,10.1279,10.1279,10.1279,10.1279,10.1279,10.1279,10.1279,10.1279,10.1279,10.1279,10.1279,10.1279,0.0,0.0,0.0,0.0,0.0,0.0,0.0,5.0937,5.2617,5.3672,5.5625,5.6914,5.6914,5.7226,5.7537,5.784,5.7314,0.0,0.0,0.0,0.0,0.0,0.0,0.0,5.8711,6.1505,6.3122,6.3362,6.5102,6.5837,6.561,6.5494,6.487,6.3782,6.2815,6.208,0.0,0.0,0.0,0.0,0.0,0.0,0.0,0.0,0.0,0.0,0.0,0.0,0.0,0.0,0.0,0.0,0.0,0.0,0.0,0.0,6.9663,7.3768,7.6784,7.8013,7.8444,7.8391,7.7253,7.562,7.3717,7.143,6.9167,6.7223,6.63,6.5795,6.5745,6.7379,6.9561,7.1943,7.5856,7.9836,8.3288,8.6396,8.9134,9.1439,9.3504,9.5176,9.6192,9.6288,9.6288,9.6288,9.6288,9.6442,9.6749,9.725,9.7855,9.8565,9.9074,9.9739,10.0481,10.101,10.1279,10.1279,10.1279,10.1279,10.1279,10.1279,10.1279,10.1279,10.1279,10.1279,0.0,10.1279,10.1279,10.1279,10.1279,10.1279,10.1279,10.1279,10.1279,10.1279,0.0,0.0,0.0,0.0,0.0,0.0,0.0,4.9648,5.125,5.1328,5.3516,5.5156,5.5195,5.5976,5.687,5.7715,0.0,0.0,0.0,0.0,0.0,0.0,0.0,0.0,5.8784,6.2081,6.4191,6.4991,6.6727,6.7998,6.8772,6.7191,6.6379,6.6108,6.3671,6.2467,0.0,0.0,0.0,0.0,0.0,0.0,0.0,0.0,0.0,0.0,0.0,0.0,0.0,0.0,0.0,0.0,0.0,0.0,0.0,0.0,0.0,0.0,0.0,7.3234,7.3413,7.349,7.2678,7.1681,7.087,6.9199,0.0,6.6743,6.6542,6.6475,6.6468,6.856,7.1044,7.3392,7.7141,8.0986,8.4506,8.7399,9.0262,9.3223,9.4405,9.5328,9.6289,9.6394,9.6365,9.6288,9.6365,9.6711,9.7442,9.7634,9.8442,9.999,10.0183,10.0481,10.1279,10.1279,10.1279,10.1279,10.1279,10.1279,10.1279,10.1279,10.1279,10.1279,10.1279,10.1279,10.1279,10.1279,10.1279,10.1279,10.1279,10.1279,10.1279,10.1279,10.1279,10.1279,0.0,0.0,0.0,0.0,0.0,0.0,0.0,0.0,0.0,0.0,5.2148,5.3555,5.4219,5.5077,5.6207,0.0,0.0,0.0,0.0,0.0,0.0,0.0,0.0,0.0,5.972,6.2349,6.4159,6.4991,6.7346,6.8617,6.881,6.9009,6.8086,6.6147,6.4909,6.3284,0.0,0.0,0.0,0.0,0.0,0.0,0.0,0.0,0.0,0.0,6.0787,6.0787,0.0,0.0,0.0,0.0,0.0,0.0,0.0,0.0,6.2672,6.3524,6.6063,0.0,7.1626,7.228,7.1605,7.0561,0.0,6.8125,6.643,6.5584,6.579,6.6302,6.6889,6.9152,7.1674,7.4083,7.7398,8.0829,8.4304,8.9389,9.3343,9.4889,9.6574,9.7485,9.7154,9.7202,9.698,9.6365,9.6865,9.7288,9.748,9.875,9.9683,10.0106,10.0712,10.1096,10.1279,10.1279,10.1279,10.1279,10.1279,10.1279,10.1279,10.1279,10.1279,10.1279,10.1279,10.1279,10.1279,10.1279,10.1279,10.1279,10.1279,10.1279,10.1279,10.1279,10.1279,10.1279,0.0,0.0,0.0,0.0,0.0,0.0,0.0,0.0,0.0,0.0,0.0,0.0,0.0,0.0,0.0,0.0,0.0,0.0,0.0,0.0,0.0,0.0,0.0,6.0067,6.0003,6.2422,6.4304,6.5533,6.8081,6.9744,7.0556,7.0595,6.9633,6.7854,6.5455,6.3405,0.0,0.0,0.0,0.0,0.0,0.0,0.0,0.0,0.0,0.0,6.0787,6.0787,0.0,6.0787,6.0787,6.0787,0.0,0.0,0.0,0.0,6.1787,6.2474,6.4129,6.6446,6.8625,6.9515,6.9421,6.8946,6.8163,6.7047,6.5921,6.5058,6.5727,6.6862,6.8023,7.069,7.3563,7.6379,7.9648,8.3342,8.7682,9.1891,9.4978,9.6101,9.7559,9.8214,9.7461,9.7798,9.775,9.6903,9.7634,9.825,9.8673,9.9606,10.0298,10.0596,10.1096,10.1279,10.1279,10.1279,10.1279,10.1279,10.1279,10.1279,10.1279,10.1279,10.1279,10.1279,10.1279,10.1279,10.1279,10.1279,10.1279,10.1279,10.1279,10.1279,10.1279,10.1279,10.1279,10.1279,0.0,0.0,0.0,0.0,0.0,0.0,0.0,0.0,0.0,0.0,0.0,0.0,0.0,0.0,0.0,0.0,0.0,0.0,0.0,0.0,0.0,0.0,5.9944,6.0296,6.0368,6.2693,6.4798,6.6611,6.9014,7.1103,7.2761,7.191,7.0833,6.944,6.5455,6.3212,0.0,0.0,0.0,0.0,0.0,0.0,0.0,0.0,0.0,0.0,0.0,0.0,0.0,6.0787,6.0787,6.0787,6.0787,0.0,0.0,0.0,0.0,0.0,6.3873,6.5015,6.6026,6.7197,6.7897,6.8079,6.7187,6.6657,6.6144,6.5256,6.6323,6.798,6.9724,7.28,7.6135,7.9373,8.296,8.7045,9.1985,9.4256,9.5928,9.7189,9.8166,9.8396,9.7653,9.8308,9.8442,9.7557,9.8442,9.9336,10.0106,10.0221,10.0596,10.1289,10.1279,10.1279,10.1279,10.1279,10.1279,10.1279,10.1279,10.1279,10.1279,10.1279,10.1279,10.1279,10.1279,10.1279,10.1279,10.1279,10.1279,10.1279,10.1279,10.1279,10.1279,10.1279,10.1308,10.1298,0.0,0.0,0.0,0.0,0.0,0.0,0.0,0.0,0.0,0.0,0.0,0.0,0.0,0.0,0.0,0.0,0.0,0.0,0.0,0.0,0.0,6.1065,6.1102,6.145,6.2108,6.3869,6.5963,6.8385,7.0208,7.1988,7.369,7.28,7.0789,6.7771,6.4952,6.3212,6.239,6.2346,0.0,0.0,6.1792,0.0,0.0,0.0,0.0,0.0,0.0,0.0,0.0,6.0787,6.0787,6.0787,6.0787,0.0,0.0,0.0,0.0,0.0,6.3072,6.485,6.7011,6.9429,7.0533,7.0756,6.9831,6.8838,6.7836,6.6899,6.7889,6.9606,7.2084,7.537,7.8783,8.2079,8.6225,9.0081,9.3024,9.5193,9.7104,9.8819,9.9338,9.924,9.8497,9.8654,9.8442,9.7557,9.8981,9.9952,10.0106,10.0712,10.1212,10.1279,10.1279,10.1279,10.1279,10.1279,10.1279,10.1279,10.1279,10.1279,10.1279,10.1279,10.1279,10.1279,10.1279,10.1279,10.1279,10.1279,10.1279,10.1279,10.1279,10.1279,10.1279,10.1279,10.1307,10.1188,0.0,0.0,0.0,0.0,0.0,0.0,0.0,0.0,0.0,0.0,0.0,0.0,0.0,0.0,0.0,0.0,0.0,0.0,0.0,0.0,6.166,6.2037,6.244,6.2805,6.3127,6.5248,6.7384,6.9435,7.2065,7.3761,7.4496,7.2723,7.0324,6.7384,6.4836,6.3197,6.2389,6.2828,6.2231,0.0,0.0,0.0,0.0,0.0,0.0,0.0,0.0,0.0,0.0,0.0,6.0787,6.0787,6.0787,0.0,0.0,0.0,0.0,0.0,6.3441,6.5696,6.8239,6.9849,7.0891,7.1477,7.1398,7.1001,7.0439,6.9892,7.1023,7.287,7.537,7.8601,8.2364,8.6767,8.9992,9.2577,9.4416,9.5933,9.7347,9.8709,9.8996,9.8802,9.8046,9.8885,9.9144,9.825,9.9788,10.0712,10.0712,10.1096,10.1279,10.1279,10.1279,10.1279,10.1279,10.1279,10.1279,10.1279,10.1279,10.1279,10.1279,10.1279,10.1279,10.1279,10.1279,10.1279,10.1279,10.1279,10.1279,10.1317,10.1307,10.12,10.12,10.1216,10.1088,10.1113,0.0,0.0,0.0,0.0,0.0,0.0,0.0,0.0,0.0,0.0,0.0,0.0,0.0,0.0,0.0,0.0,0.0,0.0,0.0,6.1437,6.184,6.2564,6.355,6.4239,6.458,6.7095,6.9319,7.1175,7.4231,7.5502,7.5038,7.2491,6.9938,6.7384,6.4821,6.3172,6.2354,6.2985,6.2342,0.0,0.0,0.0,0.0,0.0,0.0,0.0,0.0,0.0,0.0,0.0,0.0,0.0,0.0,0.0,0.0,6.0769,6.1703,6.2933,6.3557,6.595,6.8499,6.9644,7.0951,7.2166,7.2889,7.3354,7.3656,7.3663,7.4951,7.6764,7.8951,8.2479,8.6502,9.1039,9.3107,9.4577,9.5762,9.6582,9.7389,9.8337,9.838,9.8095,9.7471,9.8856,9.9529,9.8865,10.0404,10.1279,10.1279,10.1279,10.1279,10.1279,10.1279,10.1279,10.1279,10.1279,10.1279,10.1279,10.1279,10.1308,10.1288,10.1288,10.1317,10.121,10.121,10.121,10.121,10.121,10.121,10.12,10.1206,10.1213,10.1088,10.1011,10.1006,10.088,0.0,0.0,0.0,0.0,0.0,0.0,0.0,0.0,0.0,0.0,0.0,0.0,0.0,0.0,0.0,0.0,0.0,0.0,0.0,6.1084,6.183,6.2564,6.4102,6.5621,6.7196,6.9711,7.2258,7.4728,7.6591,7.6707,7.5038,7.2491,6.9938,6.7379,6.4781,6.3132,6.231,6.2243,6.1687,6.0982,6.1855,0.0,0.0,0.0,0.0,0.0,0.0,0.0,0.0,0.0,0.0,0.0,0.0,0.0,6.0775,6.0716,6.1249,6.1924,6.2529,6.4466,6.6832,6.9063,7.1674,7.3924,7.479,7.6199,7.7511,7.8172,7.9502,8.1052,8.272,8.7141,9.1241,9.3331,9.4681,9.5801,9.6746,9.7044,9.7542,9.8487,9.7931,9.7471,9.75,9.8327,9.8865,9.8788,10.0404,10.1279,10.1279,10.1279,10.1279,10.1279,10.1279,10.1279,10.1279,10.1279,10.1279,10.1279,10.1279,10.1317,10.1188,10.1188,10.1088,10.0994,10.0994,10.0994,10.0994,10.0994,10.0994,10.0994,10.0983,10.1021,10.1,10.0891,10.0798,10.0787,0.0,0.0,0.0,0.0,0.0,0.0,0.0,0.0,0.0,0.0,0.0,0.0,0.0,0.0,0.0,0.0,0.0,0.0,0.0,6.0995,6.1977,6.3223,6.438,6.6274,6.9014,7.1059,7.3342,7.5895,7.7094,7.7094,7.5856,7.3303,7.0424,6.7365,6.5837,6.4365,6.302,6.3504,6.2929,6.1701,6.2524,0.0,0.0,0.0,0.0,0.0,0.0,0.0,0.0,0.0,6.0787,6.0787,6.0787,6.0787,6.0763,6.0654,6.1443,6.2338,6.2393,6.445,6.6926,6.8364,7.1192,7.4272,7.6761,7.8767,8.0505,8.1809,8.3783,8.6094,8.8714,9.1162,9.3259,9.4731,9.5331,9.5849,9.6381,9.699,9.7529,9.7875,9.8116,9.8279,9.8327,9.9096,9.9606,9.9606,10.0712,10.1279,10.1279,10.1279,10.1279,10.1279,10.1279,10.1298,10.119,10.119,10.1198,10.1088,10.1198,10.1216,10.1113,10.1113,10.1004,10.1011,10.1011,10.1011,10.1011,10.1011,10.1011,10.1,10.0886,10.0809,10.0692,10.0685,10.0711,10.07,0.0,0.0,0.0,0.0,0.0,0.0,0.0,0.0,0.0,0.0,0.0,0.0,0.0,0.0,0.0,0.0,0.0,0.0,5.9721,6.0508,6.1651,6.3248,6.4386,6.6336,6.9169,7.1175,7.3574,7.6403,7.6984,7.6823,7.5933,7.338,7.0601,6.7757,6.6621,6.5247,6.3794,6.3854,6.3208,6.2133,6.2397,6.182,0.0,0.0,0.0,0.0,0.0,0.0,0.0,0.0,6.0396,6.0396,6.0396,6.0577,6.0804,6.0898,6.1569,6.2398,6.2897,6.4936,6.7293,6.896,7.2029,7.5469,7.8727,8.1005,8.2988,8.4975,8.7419,9.0012,9.2703,9.3636,9.4392,9.5511,9.5766,9.5977,9.6472,9.7087,9.7596,9.7865,9.8442,9.8788,9.8788,9.9606,10.0106,10.0106,10.0789,10.1279,10.1279,10.1279,10.1308,10.1317,10.1317,10.119,10.1088,10.1088,10.1102,10.0908,10.0994,10.0994,10.0908,10.0908,10.0886,10.0891,10.0891,10.0891,10.0891,10.0891,10.0891,10.0891,10.0802,10.0711,10.0604,10.0604,10.0795,10.11,0.0,0.0,0.0,0.0,0.0,0.0,0.0,0.0,0.0,0.0,0.0,0.0,0.0,0.0,0.0,0.0,0.0,0.0,5.8758,5.9534,6.0736,6.2396,6.4087,6.5765,6.7462,6.9976,7.296,7.6403,7.6365,7.5933,7.5038,7.2491,7.0369,6.8646,6.6896,6.5599,6.463,6.2888,6.2133,6.2056,6.1172,6.0825,6.0825,0.0,0.0,0.0,0.0,0.0,0.0,0.0,5.9511,5.9511,5.9511,6.0048,6.082,6.1509,6.1528,6.1817,6.408,6.5784,6.7707,7.1078,7.4491,7.7748,8.0623,8.2868,8.5064,8.7686,9.027,9.2488,9.4026,9.4407,9.4819,9.5737,9.6029,9.6444,9.7385,9.7519,9.7865,9.8711,9.8827,9.8827,9.8827,9.9606,10.0106,10.0106,10.0789,10.1279,10.1279,10.1279,10.1317,10.1178,10.1216,10.1078,10.1011,10.1,10.0908,10.0787,10.0787,10.0787,10.0787,10.0787,10.0681,10.0604,10.0604,10.0604,10.0604,10.0604,10.0604,10.0604,10.0604,10.0604,10.0604,10.0604,10.1215,10.1891,0.0,0.0,0.0,0.0,0.0,0.0,0.0,0.0,0.0,0.0,0.0,0.0,0.0,0.0,0.0,0.0,0.0,0.0,5.7867,5.9181,6.039,6.1451,6.3183,6.4875,6.6533,6.9092,7.2065,7.5508,7.4928,7.4502,7.4231,7.222,7.0965,7.0358,6.9266,6.8229,6.7186,6.5487,6.4442,6.3782,6.2897,6.2204,6.171,0.0,0.0,0.0,0.0,0.0,0.0,0.0,0.0,0.0,5.9421,5.9969,6.0744,6.126,6.2477,6.3873,6.5058,6.6845,6.9085,7.2013,7.4983,7.7884,8.0644,8.3783,8.7025,9.0398,9.2162,9.3437,9.4411,9.5072,9.5622,9.5962,9.6587,9.7135,9.7462,9.8557,9.9413,9.9683,10.0212,10.0596,10.0596,10.0789,10.0904,10.0904,10.1212,10.1279,10.1279,10.1297,10.1208,10.1216,10.1095,10.1,10.088,10.088,10.0814,10.07,10.07,10.07,10.07,10.07,10.06,10.0604,10.0604,10.0604,10.0604,10.0604,10.0604,10.0604,10.0604,10.0604,10.0604,10.0604,10.1215,10.2006,0.0,0.0,0.0,0.0,0.0,0.0,0.0,0.0,0.0,0.0,5.6601,5.66,0.0,0.0,0.0,0.0,0.0,0.0,5.7905,5.8857,5.9891,6.1041,6.2786,6.4643,6.6688,6.8236,7.0015,7.206,7.2258,7.2529,7.2839,7.1424,7.1047,7.1562,7.0007,6.9162,6.8737,6.6013,6.4551,6.3968,6.2775,6.2012,6.1595,0.0,0.0,0.0,0.0,0.0,0.0,0.0,0.0,0.0,5.9403,5.9926,6.0748,6.1583,6.2905,6.4464,6.6204,6.8291,7.0743,7.3875,7.6666,7.9561,8.3117,8.5747,8.8366,9.1643,9.3015,9.3869,9.4657,9.5492,9.6088,9.6184,9.6895,9.7568,9.7971,9.9221,10.0221,10.0481,10.1019,10.1279,10.1279,10.1279,10.1279,10.1279,10.1288,10.1307,10.1307,10.1206,10.1085,10.1004,10.1017,10.0919,10.0719,10.0708,10.0711,10.0604,10.0604,10.0604,10.0604,10.0604,10.0604,10.0604,10.0604,10.0604,10.0604,10.0604,10.0604,10.0604,10.0604,10.0604,10.0604,10.0986,10.1712,10.2514,0.0,0.0,0.0,0.0,0.0,0.0,0.0,0.0,0.0,0.0,5.66,5.6597,0.0,0.0,0.0,0.0,0.0,0.0,0.0,5.8557,5.9344,6.1041,6.2863,6.4952,6.7346,6.7307,6.7268,6.7268,6.8937,7.0214,7.1059,7.0258,7.0851,7.2411,6.9925,6.9162,6.9436,6.5276,6.3468,6.316,6.155,6.0941,6.0941,6.0941,0.0,0.0,0.0,0.0,0.0,0.0,0.0,0.0,5.9308,5.9805,6.0711,6.2055,6.2942,6.4162,6.7331,6.9846,7.248,7.6199,7.918,8.2388,8.6894,8.8287,8.9295,9.1768,9.3013,9.3971,9.4817,9.5711,9.6326,9.6403,9.7096,9.7904,9.8788,9.9683,10.0481,10.1202,10.1279,10.1279,10.1279,10.1279,10.1317,10.1308,10.119,10.1216,10.1206,10.1092,10.0897,10.0787,10.0814,10.0719,10.0604,10.0604,10.0604,10.0604,10.0604,10.0604,10.0604,10.0604,10.0604,10.0604,10.0604,10.0604,10.0604,10.0604,10.0604,10.0604,10.0604,10.0604,10.0795,10.1585,10.2514,10.3393,0.0,0.0,0.0,0.0,0.0,0.0,0.0,0.0,0.0,0.0,0.0,0.0,0.0,0.0,0.0,0.0,0.0,0.0,0.0,5.8252,5.9352,6.1041,6.3444,6.5262,6.6456,6.5876,6.5533,6.5533,6.723,6.8468,6.9352,6.9717,7.116,7.3376,7.2078,7.0811,6.9513,6.659,6.4551,6.3198,6.221,6.1826,6.1826,6.1826,6.1402,0.0,0.0,0.0,0.0,0.0,0.0,0.0,5.8534,5.9154,6.0327,6.0985,6.2918,6.5478,6.8141,7.0589,7.3248,7.707,8.1142,8.4877,8.7328,8.9096,9.0549,9.1884,9.291,9.3869,9.4705,9.5655,9.6519,9.7134,9.7942,9.8827,9.9721,10.0481,10.1096,10.1289,10.1279,10.1279,10.1279,10.1279,10.1288,10.1208,10.1188,10.1213,10.1004,10.0897,10.0809,10.0787,10.0696,10.0589,10.0604,10.0604,10.0604,10.0604,10.0604,10.0604,10.0604,10.0604,10.0604,10.0604,10.0604,10.0604,10.0604,10.0604,10.0604,10.0604,10.0604,10.1012,10.1585,10.1815,10.2896,10.4195,0.0,0.0,0.0,0.0,0.0,0.0,0.0,0.0,0.0,0.0,0.0,0.0,0.0,0.0,0.0,0.0,0.0,0.0,0.0,5.8389,5.973,6.2245,6.3637,6.4759,6.561,6.5193,6.4526,6.3714,6.577,6.7238,6.8149,6.9295,7.1203,7.3562,7.1833,7.0547,6.9475,6.609,6.3897,6.2666,6.1826,6.1248,6.0864,6.0864,6.0319,5.9588,5.9588,0.0,0.0,0.0,0.0,0.0,0.0,0.0,5.9657,6.0097,6.1788,6.4175,6.7117,6.9933,7.3236,7.8238,8.2963,8.6649,8.759,8.9564,9.149,9.2393,9.3427,9.4292,9.4715,9.5953,9.7019,9.7442,9.8596,9.9567,9.999,10.0789,10.1279,10.1279,10.1279,10.1279,10.1279,10.1278,10.119,10.1178,10.1113,10.0989,10.0886,10.0802,10.0696,10.0696,10.0589,10.0604,10.0604,10.0604,10.0604,10.0604,10.0604,10.0604,10.0604,10.0604,10.0604,10.0604,10.0604,10.0604,10.0604,10.0604,10.0604,10.0604,10.11,10.1509,10.2006,10.282,10.3622,10.4501,0.0,0.0,0.0,0.0,0.0,0.0,0.0,0.0,0.0,0.0,0.0,0.0,0.0,0.0,0.0,0.0,0.0,0.0,0.0,5.8995,6.0504,6.3366,6.3589,6.4009,6.4744,6.4533,6.3735,6.2267,6.4635,6.6404,6.7647,6.97,7.1775,7.3733,7.1702,7.0321,6.9206,6.5391,6.2935,6.1595,6.1018,6.0281,5.9511,5.9665,5.9204,5.8511,5.8511,5.8858,5.9319,5.9435,0.0,0.0,0.0,0.0,5.8972,5.9097,6.0173,6.2075,6.5288,6.9192,7.3729,7.9416,8.4302,8.7753,8.7878,9.0084,9.2306,9.3147,9.4104,9.484,9.4955,9.6357,9.7557,9.7711,9.9058,10.0106,10.0298,10.0904,10.1279,10.1279,10.1308,10.1298,10.1298,10.1208,10.1213,10.1078,10.0897,10.0814,10.0802,10.07,10.0604,10.0604,10.0604,10.0604,10.0604,10.0604,10.0604,10.0604,10.0604,10.0604,10.0604,10.0604,10.0604,10.0604,10.0604,10.0592,10.0607,10.0721,10.0786,10.0801,10.1717,10.2099,10.2404,10.3817,10.439,10.4581,0.0,0.0,0.0,0.0,0.0,0.0,0.0,0.0,0.0,0.0,5.6449,5.6396,5.6336,5.6326,0.0,0.0,0.0,0.0,5.8497,0.0,0.0,6.2544,6.324,6.3678,6.3794,6.2975,6.2441,6.2209,6.3989,6.6079,6.8442,7.2315,7.4304,7.4651,7.5005,7.2706,6.843,6.6397,6.332,5.9896,6.055,6.0281,5.9588,6.0319,6.0089,5.9358,5.9358,5.8973,5.8588,5.9281,5.9554,0.0,0.0,0.0,5.8539,5.7459,5.87,6.0964,6.3648,7.0153,7.6987,8.0103,8.4332,8.7916,8.8749,9.1079,9.334,9.4143,9.4526,9.4923,9.5624,9.6703,9.775,9.8481,9.9452,10.0289,10.101,10.1202,10.1279,10.1279,10.121,10.1198,10.1198,10.1095,10.0989,10.088,10.0809,10.0703,10.0589,10.0604,10.0604,10.0604,10.0604,10.0604,10.0604,10.0604,10.0604,10.0604,10.0604,10.0604,10.0604,10.0604,10.0604,10.0604,10.0604,10.0495,10.0514,10.1188,10.1508,10.1509,10.2309,10.3122,10.3693,10.401,10.4492,10.5102,0.0,0.0,0.0,0.0,0.0,0.0,0.0,0.0,0.0,0.0,0.0,5.6327,5.6259,5.6195,0.0,0.0,0.0,0.0,5.8492,6.0112,0.0,6.2312,6.2679,6.2846,6.2815,6.2409,6.1957,6.1456,6.4085,6.6897,6.9945,7.5173,7.7097,7.6174,7.6068,7.3707,6.9629,6.7013,6.398,6.0979,6.1364,6.1287,6.1056,6.1897,6.1396,6.0242,6.0242,5.9396,5.8352,5.8698,5.8796,5.859,5.7564,0.0,0.0,0.0,5.7145,5.9124,6.3488,6.9697,7.568,7.8786,8.3671,8.7987,8.896,9.1688,9.4109,9.4515,9.5077,9.5568,9.5952,9.7231,9.8365,9.875,9.9904,10.0885,10.121,10.12,10.1218,10.1119,10.1106,10.1085,10.1085,10.1017,10.0891,10.0787,10.0681,10.07,10.0604,10.0604,10.0604,10.0604,10.0604,10.0604,10.0604,10.0604,10.0607,10.0498,10.0498,10.0411,10.0389,10.0389,10.0387,10.0498,10.0498,10.068,10.1014,10.1395,10.1814,10.2296,10.3095,10.3717,10.4097,10.4516,10.4897,10.5201,0.0,0.0,0.0,0.0,0.0,0.0,0.0,0.0,0.0,0.0,0.0,5.6242,5.6181,0.0,0.0,0.0,0.0,0.0,5.8165,0.0,0.0,0.0,6.186,6.1911,6.1869,6.1654,6.1312,6.0888,6.4037,6.7398,7.1014,7.6784,7.9054,7.8253,7.7592,7.5053,7.1014,6.7859,6.4936,6.2441,6.2903,6.3057,6.3211,6.4436,6.4012,6.2704,6.2474,6.105,5.9281,5.9281,5.8858,5.8131,5.7295,5.6561,0.0,0.0,0.0,5.7732,6.3115,6.835,7.3161,7.6933,8.2331,8.7166,8.8919,9.1865,9.44,9.4923,9.5646,9.6136,9.6136,9.7433,9.8471,9.8452,9.9673,10.0595,10.0494,10.0484,10.0491,10.0408,10.048,10.0623,10.0623,10.0705,10.0703,10.0703,10.0688,10.0604,10.0604,10.0604,10.0604,10.0604,10.0607,10.0507,10.0507,10.0483,10.0411,10.0276,10.0276,10.0315,10.019,10.0406,10.0596,10.0608,10.0683,10.1002,10.1483,10.1901,10.2408,10.299,10.3916,10.4182,10.4296,10.4904,10.5094,10.5094,0.0,0.0,0.0,0.0,0.0,0.0,0.0,0.0,0.0,0.0,0.0,0.0,5.6094,5.6117,5.6058,5.6012,5.6008,0.0,0.0,0.0,0.0,0.0,0.0,0.0,6.0955,6.0084,6.0017,6.0831,6.3397,6.6821,7.1014,7.6176,7.94,8.09,8.0862,7.7592,7.1944,6.936,6.6314,6.3391,6.5051,6.5711,6.5981,6.8436,6.8821,6.7891,6.7051,6.4673,6.1903,6.1903,6.0281,5.8247,5.7991,5.665,5.4912,0.0,0.0,0.0,6.1664,6.6095,7.0578,7.5021,8.0114,8.4931,8.8499,9.1477,9.3936,9.5684,9.6174,9.6279,9.6279,9.6971,9.7567,9.7471,9.8182,9.8718,9.8654,9.8643,9.8633,9.8633,9.9266,9.966,9.966,10.0188,10.0615,10.0615,10.0604,10.0604,10.0604,10.0604,10.0604,10.0604,10.0486,10.0413,10.0413,10.0303,10.0202,10.019,10.019,10.019,10.0177,10.1091,10.1394,10.1303,10.142,10.1394,10.139,10.2986,10.3588,10.3615,10.4411,10.479,10.479,10.479,10.479,10.479,0.0,0.0,0.0,0.0,0.0,0.0,0.0,0.0,0.0,0.0,0.0,0.0,0.0,5.605,5.6025,5.6008,5.602,0.0,0.0,0.0,0.0,0.0,0.0,0.0,6.0816,6.0523,6.0473,6.0787,6.3358,6.6513,7.0244,7.4784,7.7784,7.9485,8.1131,7.9169,7.4514,7.2507,7.0007,6.7513,6.8667,7.009,7.1783,7.3783,7.4361,7.4014,7.3129,7.0283,6.6699,6.5039,6.2797,6.0346,5.8585,5.6675,5.4838,5.3518,5.3973,5.5688,5.9288,6.311,6.7263,7.217,7.783,8.3132,8.6747,9.0123,9.285,9.4099,9.4839,9.5281,9.5281,9.6511,9.7491,9.7394,9.8095,9.8572,9.8385,9.8363,9.8331,9.8255,9.8975,9.945,9.945,10.0207,10.0604,10.0604,10.0483,10.0512,10.0512,10.0401,10.0288,10.0288,10.0315,10.029,10.029,10.0202,10.0215,10.0088,10.0088,10.0302,10.0792,10.1082,10.1511,10.2001,10.2587,10.2801,10.2798,10.3405,10.3908,10.4382,10.47,10.4799,10.4799,10.4799,10.4799,10.4799,0.0,0.0,0.0,0.0,0.0,0.0,0.0,0.0,5.707,5.702,0.0,0.0,0.0,0.0,5.6828,5.6809,5.6545,5.6599,5.713,5.7404,0.0,0.0,0.0,0.0,6.0787,6.0512,6.0517,6.0787,6.2781,6.5359,6.8513,7.2437,7.5053,7.6484,7.9054,7.8477,7.5476,7.4084,7.2353,7.0667,7.2052,7.4108,7.6578,7.8585,7.9684,7.9998,7.8846,7.6056,7.2516,6.9932,6.6789,6.349,6.0853,5.7665,5.4693,5.3366,5.35,5.4708,5.7709,6.0668,6.4074,6.8966,7.4422,7.9598,8.3541,8.7378,9.0523,9.1805,9.2985,9.38,9.383,9.5099,9.6271,9.6786,9.7293,9.7567,9.7369,9.7336,9.7291,9.7127,9.7879,9.8539,9.8795,9.9558,10.0207,10.0397,10.0401,10.0302,10.0302,10.0189,10.0203,10.0114,10.0114,10.0088,10.0088,10.0088,10.0085,10.0281,10.0281,10.0578,10.131,10.1613,10.2105,10.2597,10.3505,10.3714,10.3586,10.3904,10.4307,10.4799,10.4799,10.4799,10.4799,10.4799,10.4799,10.4799,0.0,0.0,0.0,0.0,0.0,0.0,0.0,0.0,5.8635,5.8596,0.0,0.0,0.0,0.0,0.0,5.8446,5.7708,5.7225,5.713,5.7856,0.0,0.0,0.0,0.0,6.0787,5.9973,5.9935,6.0787,6.1672,6.3364,6.5904,6.9206,7.1206,7.2175,7.4668,7.5284,7.443,7.3815,7.3091,7.2559,7.5091,7.7608,8.0019,8.26,8.4574,8.575,8.4101,8.1798,7.9136,7.6573,7.2291,6.7602,6.4816,5.9686,5.4468,5.3391,5.3539,5.455,0.0,0.0,0.0,6.5584,6.9917,7.4309,7.8881,8.3268,8.693,8.8881,9.0663,9.187,9.2046,9.2718,9.3779,9.5389,9.5685,9.5648,9.5402,9.5368,9.5321,9.5203,9.599,9.6828,9.7615,9.8502,9.9314,10.0114,10.0215,10.0215,10.0215,10.0203,10.0101,9.9996,9.9996,9.993,9.9821,9.9821,10.0207,10.0809,10.0809,10.1191,10.1912,10.2705,10.3082,10.3195,10.3988,10.4002,10.37,10.4496,10.4785,10.4785,10.4785,10.4785,10.4785,10.4785,10.4785,10.4785,0.0,0.0,0.0,0.0,0.0,6.0146,5.8831,5.9151,5.9319,0.0,0.0,0.0,5.9471,5.9924,6.0005,5.9372,5.9104,5.8648,5.8016,5.8171,5.8561,5.9127,5.9627,6.0165,6.0787,6.0556,6.0556,6.0787,6.1672,6.2749,6.4083,6.6244,6.7712,6.8558,6.9898,7.0014,6.9475,7.3553,7.5168,7.5245,7.84,8.1145,8.3628,8.6705,8.8443,8.9116,8.8657,8.7111,8.4777,8.1675,7.8006,7.3327,6.5288,5.9899,5.6344,5.5203,5.4909,5.5333,5.7079,0.0,0.0,0.0,0.0,0.0,7.5286,7.9486,8.3084,8.4244,8.6375,8.821,8.8814,8.9626,9.0531,9.1566,9.2919,9.3972,9.4322,9.4401,9.458,9.5153,9.599,9.6828,9.7615,9.8502,9.9314,10.0114,10.0088,9.9985,9.9917,9.9728,9.9589,9.9585,9.9585,9.9821,10.0406,10.0406,10.0807,10.1519,10.1519,10.1995,10.2705,10.3007,10.3384,10.3988,10.4199,10.4207,10.4108,10.4297,10.4411,10.4411,10.4411,10.4411,10.4411,10.4411,10.4411,10.4411,0.0,0.0,6.1799,6.1621,6.2293,6.2507,6.1435,6.1972,6.2341,0.0,0.0,0.0,6.2855,6.3285,6.3179,6.2348,6.1273,6.0255,5.9408,5.899,5.9011,5.9473,5.9858,6.0281,6.0787,6.0787,6.0787,6.0787,6.1325,6.1781,6.2281,6.3666,6.4557,6.5057,6.6282,6.6744,6.6904,7.1437,7.3976,7.5315,7.9392,8.2843,8.5886,8.9158,9.1125,9.2164,9.2211,9.1411,8.9892,8.7006,8.2323,7.6398,6.8744,6.3802,6.0523,5.9056,5.8278,5.8114,5.9233,6.0051,6.1082,6.3269,0.0,0.0,7.1637,7.5129,7.8231,7.9583,8.1886,8.3916,8.4795,8.5909,8.7114,8.8235,8.9631,9.1096,9.2575,9.335,9.3908,9.4301,9.5098,9.6071,9.7247,9.7816,9.8625,9.9763,9.9796,9.97,9.9655,9.9485,9.9535,9.9875,9.9913,10.029,10.1105,10.1105,10.1491,10.2207,10.2207,10.2591,10.3411,10.3411,10.3584,10.4111,10.4111,10.4111,10.4111,10.4111,10.4189,10.4312,10.4312,10.4312,10.4312,10.4312,10.4312,10.4312,0.0,0.0,6.2895,6.3708,6.4634,6.5262,6.5262,6.6026,6.6546,0.0,6.6549,6.6956,6.7801,6.7827,6.7378,6.6404,6.4057,6.221,6.1166,6.0281,5.9742,5.9665,6.0396,6.0864,6.0941,6.0941,6.0941,6.0941,6.0941,6.0902,6.0825,6.1595,6.1941,6.2018,6.3512,6.4666,6.5634,6.8282,7.0962,7.3894,7.9075,8.3463,8.7329,9.0606,9.2996,9.463,9.4839,9.4743,9.4132,9.1603,8.5386,7.8009,7.3964,6.9792,6.6039,6.4247,6.298,6.2294,6.2803,6.2413,6.2249,6.381,6.4786,0.0,6.858,7.1065,7.3368,7.5156,7.7425,7.9409,8.0341,8.1793,8.3339,8.4914,8.5988,8.76,9.0486,9.2265,9.3245,9.3186,9.3913,9.5008,9.6592,9.6767,9.746,9.912,9.9332,9.937,9.937,9.9355,9.9718,10.0495,10.0495,10.0985,10.189,10.189,10.2192,10.2903,10.2903,10.3201,10.3807,10.3807,10.3807,10.3791,10.3791,10.3812,10.3721,10.3721,10.3915,10.4175,10.4175,10.4175,10.4175,10.4175,10.4175,10.4175,0.0,6.3021,6.3747,6.4594,6.5983,6.6998,6.6998,6.8232,6.8927,6.826,6.9286,7.0613,7.2112,7.165,7.0604,6.909,6.7212,6.5166,6.2968,6.205,6.1287,6.0589,6.0704,6.1133,6.1826,6.1864,6.1864,6.1864,6.1864,6.1479,6.0787,6.0979,6.1056,6.1056,6.1396,6.2018,6.3057,6.625,6.9739,7.3752,8.0179,8.5074,8.8967,9.2799,9.4626,9.5268,9.6154,9.6204,9.5247,9.1579,8.6623,8.1444,7.7944,7.3992,7.0439,6.9147,6.7655,6.64,6.6372,6.6228,6.6202,6.6523,6.7312,0.0,6.8679,7.0439,7.2064,7.248,7.4114,7.5793,7.6657,7.7523,7.8661,8.0323,8.221,8.4929,8.9136,9.115,9.2445,9.3097,9.3913,9.4781,9.5762,9.5838,9.6555,9.8215,9.8853,9.9156,9.9156,9.9073,9.9373,10.02,10.02,10.0914,10.2379,10.2379,10.2815,10.3593,10.3593,10.369,10.3807,10.3807,10.3704,10.361,10.361,10.3489,10.3391,10.3391,10.3593,10.392,10.392,10.392,10.392,10.392,10.392,10.392,6.3016,6.3781,6.4754,6.6027,6.7606,6.8845,6.927,7.1074,7.241,7.2411,7.4511,7.6352,7.7207,7.6899,7.5784,7.3668,7.1514,6.9052,6.6045,6.4666,6.3403,6.2089,6.205,6.205,6.2095,6.2095,6.1903,6.1441,6.1441,6.1248,6.0787,6.0787,6.1,6.1426,6.1804,6.2708,6.4065,6.7477,7.1183,7.5259,8.035,8.4882,8.9052,9.2984,9.49,9.5694,9.7138,9.6971,9.5713,9.3343,8.9583,8.5449,8.2998,7.9366,7.579,7.4735,7.2918,7.1242,7.1491,7.066,6.9843,7.0252,6.9483,0.0,0.0,6.9484,6.9757,7.0226,7.1389,7.2568,7.3394,7.4174,7.5377,7.7478,7.9415,8.1874,8.5387,8.8418,9.071,9.1972,9.2799,9.3798,9.5052,9.5165,9.569,9.6914,9.7701,9.8142,9.8142,9.8476,9.9215,10.0414,10.0414,10.1313,10.2886,10.2923,10.3185,10.3597,10.3597,10.3597,10.3597,10.3597,10.3509,10.35,10.35,10.3411,10.3288,10.3288,10.3391,10.3597,10.3597,10.3597,10.3597,10.3597,10.3597,10.3597,6.3525,6.4382,6.5551,6.7392,6.9049,7.0483,7.152,7.3935,7.6145,7.761,8.0285,8.2208,8.2516,8.2401,8.1362,7.8977,7.6284,7.3276,6.9853,6.7744,6.5859,6.4122,6.3737,6.3243,6.2595,6.2403,6.1903,6.1056,6.1056,6.0979,6.0787,6.0979,6.1476,6.2292,6.338,6.4792,6.6524,6.9919,7.3501,7.7227,8.06,8.4631,8.9059,9.3027,9.5201,9.6357,9.7997,9.7615,9.6223,9.5243,9.2384,8.9019,8.7435,8.4267,8.0861,7.9919,7.7907,7.6047,7.6422,7.4872,7.3274,7.372,7.1515,6.9385,0.0,0.0,0.0,6.8702,6.9383,7.0004,7.049,7.1412,7.2757,7.4736,7.6653,7.8717,8.1045,8.4554,8.7704,8.999,9.1148,9.2268,9.3629,9.404,9.4488,9.516,9.6116,9.6788,9.6938,9.7722,9.8918,10.0486,10.0711,10.1495,10.3101,10.3213,10.3288,10.3288,10.3288,10.3288,10.3288,10.3288,10.3308,10.3182,10.3182,10.3202,10.3222,10.3222,10.3296,10.3408,10.3291,10.3288,10.3288,10.3288,10.34,10.3495,6.3456,6.4302,6.5671,6.8043,6.9845,7.1536,7.3157,7.6138,7.9574,8.3417,8.4863,8.6132,8.7679,8.7132,8.5978,8.42,8.1008,7.7623,7.4199,7.1014,6.8475,6.6744,6.5243,6.4397,6.432,6.3545,6.2781,6.1941,6.1941,6.1556,6.0825,6.1595,6.236,6.3162,6.5385,6.7261,6.9023,7.2308,7.5531,7.8736,8.1989,8.6038,9.059,9.4608,9.683,9.7959,9.887,9.8747,9.7776,9.5617,9.3117,9.069,8.9161,8.6793,8.4356,8.3321,8.1713,8.0032,7.9298,7.7844,7.6395,7.5689,7.3645,7.1602,7.092,0.0,6.8574,6.8709,0.0,6.8835,6.8163,0.0,0.0,7.0572,7.3129,7.5668,7.7453,7.9349,8.2313,8.7151,8.9108,9.0154,9.0341,9.1648,9.2523,9.2635,9.4077,9.531,9.6004,9.6863,9.8058,9.9681,10.0412,10.1325,10.2205,10.2915,10.3288,10.3288,10.3288,10.3288,10.3288,10.3288,10.3202,10.2989,10.2989,10.29,10.2813,10.2813,10.3185,10.389,10.3485,10.3288,10.3288,10.3288,10.3811,10.4391,6.3383,6.4238,6.5622,6.8173,6.995,7.1776,7.4005,7.8419,8.2863,8.6602,8.8671,9.0287,9.1488,9.2172,9.1672,8.9517,8.7555,8.4555,8.0131,7.7169,7.413,7.0937,6.9667,6.809,6.609,6.5243,6.3935,6.2095,6.1595,6.1172,6.0825,6.1672,6.2726,6.4024,6.7452,7.0023,7.2166,7.6408,7.9366,8.1498,8.5751,8.9027,9.1583,9.3821,9.6313,9.8719,9.9054,9.8734,9.7813,9.5966,9.4036,9.2163,9.1171,8.907,8.6883,8.6451,8.4717,8.2933,8.3009,8.1151,7.9108,7.8722,7.5392,7.2085,7.1738,6.9694,6.8169,6.9087,0.0,0.0,0.0,0.0,0.0,0.0,7.1577,7.3038,7.4723,7.5949,7.8531,8.3608,8.5261,8.6341,8.7257,8.8874,8.9619,8.9097,9.1465,9.3104,9.3439,9.5637,9.7387,9.8579,9.9845,10.0907,10.1689,10.2509,10.2993,10.2993,10.2993,10.2993,10.2993,10.2993,10.292,10.2793,10.2793,10.3091,10.3501,10.3501,10.391,10.4709,10.4502,10.4408,10.4296,10.3886,10.4184,10.4892,6.3956,6.4469,6.556,6.8081,6.9887,7.2281,7.6241,8.1085,8.5679,8.9564,9.2287,9.4364,9.5634,9.7134,9.7288,9.5441,9.4057,9.1325,8.6679,8.3555,8.0092,7.6084,7.4437,7.1982,6.8558,6.7244,6.532,6.2787,6.1897,6.1358,6.1172,6.2287,6.3476,6.4935,6.9474,7.2858,7.5436,8.0093,8.2916,8.4565,8.8582,9.1455,9.3493,9.4787,9.7167,9.9749,9.9526,9.9043,9.8298,9.6609,9.5073,9.3711,9.2804,9.1041,8.9203,8.8495,8.6921,8.5446,8.5558,8.3514,8.1211,8.0542,7.6581,7.2754,7.2308,6.9992,6.8419,7.0054,7.0202,0.0,0.0,0.0,7.0091,7.0239,0.0,7.0908,7.1923,7.2555,7.4747,7.9702,8.1226,8.26,8.4406,8.5722,8.6353,8.6152,8.8753,9.0647,9.1316,9.4288,9.6443,9.752,9.9118,10.0381,10.1198,10.2015,10.2498,10.2721,10.2721,10.2721,10.2721,10.2721,10.2721,10.2721,10.3019,10.339,10.4022,10.4207,10.4802,10.5508,10.5322,10.5508,10.5675,10.469,10.4802,10.5508,6.5499,6.5216,6.5504,6.7988,6.9783,7.3444,8.0908,8.4324,8.7825,9.2864,9.5749,9.8288,10.0779,10.1904,10.2404,10.2289,9.9981,9.7096,9.3595,8.9479,8.5632,8.217,7.8861,7.556,7.2098,6.959,6.7083,6.4512,6.366,6.282,6.2095,6.3743,6.4898,6.5817,7.1475,7.5684,7.8808,8.2676,8.5535,8.766,8.9267,9.2679,9.6977,9.9225,10.0604,10.131,10.0492,10.0195,9.9878,9.7614,9.6249,9.5276,9.3812,9.2667,9.1422,8.9016,8.8149,8.7638,8.6041,8.4369,8.2563,8.0148,7.7027,7.4128,7.2568,7.0846,7.0091,7.1788,7.1441,7.0871,7.0908,7.0871,7.0351,0.0,6.9236,0.0,0.0,6.8679,7.0512,7.5429,7.7435,7.9405,8.1894,8.2154,8.2823,8.4369,8.6004,8.801,9.0424,9.2914,9.4994,9.6591,9.8263,9.9526,10.0307,10.1106,10.1904,10.2721,10.2721,10.2721,10.2721,10.2721,10.2721,10.2703,10.3613,10.3984,10.4096,10.4802,10.56,10.6288,10.5508,10.6213,10.7309,10.5675,10.5693,10.6399,6.7321,6.7795,6.8264,6.909,7.1129,7.5207,8.2862,8.6632,9.0239,9.4826,9.8096,10.1019,10.3482,10.5597,10.679,10.679,10.5482,10.3212,9.9827,9.6134,9.2326,8.8363,8.5478,8.2131,7.8169,7.5014,7.1898,6.8783,6.6782,6.5089,6.3782,6.4936,6.582,6.6699,7.1811,7.6399,8.0525,8.4858,8.8555,9.174,9.4782,9.758,10.0006,10.0807,10.131,10.1421,10.0604,10.0307,9.9935,9.7515,9.6528,9.6082,9.5033,9.3751,9.2491,9.1673,9.0584,8.957,8.9013,8.723,8.5112,8.3217,7.9033,7.5243,7.4723,7.2481,7.1279,7.4017,7.4338,7.4338,7.4896,7.4115,0.0,0.0,0.0,6.8605,0.0,6.7231,6.7899,7.066,7.3372,7.5615,7.699,7.8587,7.9776,8.0334,8.3366,8.6041,8.7935,9.1465,9.414,9.5774,9.7446,9.8932,10.0307,10.1124,10.1904,10.2721,10.2721,10.2721,10.2721,10.2721,10.2721,10.2703,10.3613,10.4319,10.4913,10.5693,10.6511,10.7217,10.6919,10.7086,10.7514,10.6399,10.6511,10.7217,6.959,7.0437,7.0937,7.0629,7.3437,7.7892,8.4354,8.8709,9.2903,9.748,10.101,10.4212,10.7098,10.9098,11.0406,11.0714,10.9713,10.7905,10.4982,10.1904,9.8423,9.4454,9.184,8.8478,8.4216,8.0514,7.6809,7.3111,7.0308,6.7898,6.5968,6.6205,6.6704,6.758,7.2078,7.6674,8.1328,8.6201,9.0426,9.4201,9.7992,10.0307,10.1477,10.1774,10.1904,10.1774,10.1012,10.0492,10.0009,9.8115,9.7297,9.6926,9.6108,9.5105,9.4177,9.3582,9.2468,9.1316,9.1019,8.9347,8.723,8.5298,8.1411,7.7844,7.725,7.5044,7.3967,7.6939,7.7101,7.6952,7.7807,7.6358,7.4426,0.0,0.0,0.0,0.0,6.5782,6.6153,6.7491,7.0029,7.2233,7.3608,7.5466,7.6915,7.7807,8.1114,8.4035,8.6264,9.0016,9.2988,9.492,9.6591,9.8375,10.0307,10.0789,10.1607,10.2721,10.2721,10.2721,10.2721,10.2721,10.2721,10.2796,10.391,10.469,10.5322,10.6399,10.7086,10.7606,10.7606,10.7606,10.7495,10.7012,10.7217,10.7606,7.2329,7.3322,7.3738,7.3021,7.6861,8.1469,8.5747,9.0671,9.5711,10.0789,10.4395,10.778,11.1203,11.228,11.3214,11.3984,11.2599,11.1021,10.929,10.679,10.3903,10.0504,9.7845,9.4445,9.0187,8.5985,8.173,7.7461,7.4072,7.1129,6.8584,6.759,6.7549,6.8423,7.2308,7.6626,8.1343,8.6634,9.1245,9.5305,9.8942,10.0901,10.1589,10.2424,10.2721,10.261,10.1793,10.1012,10.0195,9.9378,9.8598,9.7817,9.6926,9.6629,9.6294,9.4771,9.3731,9.2951,9.2096,9.0722,8.8901,8.6486,8.4049,8.182,8.0185,7.855,7.8067,8.0394,7.9665,7.881,7.9553,7.7696,7.5243,0.0,0.0,0.0,6.4185,6.4371,6.5188,6.6042,6.7491,6.9397,7.1825,7.2791,7.4277,7.6729,7.9182,8.1954,8.5261,8.8567,9.1539,9.4065,9.57,9.7743,10.0307,10.0307,10.1124,10.2721,10.2721,10.2721,10.2721,10.2721,10.2703,10.2907,10.4505,10.521,10.5396,10.6994,10.7606,10.7606,10.7606,10.7606,10.7606,10.7606,10.7606,10.7606,7.6599,7.91,8.1323,8.2362,8.3123,8.5247,9.0094,9.4095,9.8134,10.2597,10.6213,10.929,11.2099,11.3714,11.4984,11.5792,11.4907,11.3907,11.2791,11.0291,10.821,10.6495,10.33,10.0086,9.7046,9.2194,8.737,8.2615,7.8044,7.4257,7.1168,6.9052,6.8405,6.9146,7.1833,7.5898,8.1049,8.6459,9.2664,9.9054,10.1197,10.2183,10.2424,10.2592,10.2721,10.261,10.1793,10.1421,10.1012,9.9563,9.8969,9.8635,9.7817,9.7112,9.6517,9.6108,9.5403,9.4734,9.4511,9.3285,9.1725,9.0462,8.7824,8.5298,8.4257,8.2786,8.1969,8.318,8.3121,8.2697,8.234,8.0691,7.8239,7.4574,0.0,0.0,6.5671,6.5633,6.6079,6.6896,6.7342,6.8308,7.0165,7.1056,7.2332,7.4203,7.6618,7.9479,8.2749,8.6613,9.0127,9.3211,9.4883,9.7186,10.0307,10.0307,10.1124,10.2721,10.2721,10.2721,10.2721,10.2721,10.3093,10.3724,10.4802,10.5508,10.6213,10.7217,10.7606,10.7606,10.7606,10.7606,10.7606,10.7606,10.7606,10.7606,7.9908,8.3216,8.6602,8.9017,9.0287,9.1556,9.3326,9.7096,10.1289,10.5482,10.8713,11.1692,11.4483,11.5713,11.6612,11.7399,11.6285,11.5402,11.5018,11.2809,11.1193,11.0094,10.7298,10.4617,10.1989,9.6608,9.1446,8.6458,8.0885,7.6278,7.2611,6.9697,6.867,6.9383,7.165,7.5458,8.066,8.8523,9.491,9.9935,10.1904,10.2721,0.0,10.2721,10.2721,10.2592,10.2201,10.1793,10.131,10.0009,9.9378,9.8969,9.8152,9.7557,9.7186,9.7186,9.6591,9.5923,9.5923,9.4734,9.3322,9.2468,9.0313,8.8195,8.7415,8.6226,8.5558,8.639,8.5966,8.5186,8.4406,8.2288,7.9145,7.4314,7.092,6.8456,6.7305,6.7453,6.7713,6.7825,6.8122,6.8568,6.9125,6.9905,7.0908,7.2221,7.4612,7.7435,8.0742,8.4793,8.8678,9.2319,9.4362,9.7,10.0307,10.0307,10.1124,10.2721,10.2721,10.2721,10.2721,10.2721,10.3019,10.3501,10.469,10.5508,10.5991,10.7086,10.7606,10.7606,10.7606,10.7606,10.7606,10.7606,10.7606,10.7606,8.3747,8.7132,9.0872,9.4134,9.7442,9.8981,9.7125,10.0519,10.4713,10.8713,11.1406,11.4005,11.7119,11.7491,11.7904,11.8485,11.7297,11.6415,11.63,11.4693,11.3291,11.241,11.049,10.8202,10.5513,9.9998,9.4624,8.9462,8.2951,7.7662,7.353,6.998,6.8635,6.9367,7.158,7.5587,8.1289,9.1515,9.7122,9.9303,10.17,10.2721,10.2721,10.2721,10.2721,10.2721,10.2721,10.2313,10.1477,10.0604,9.9861,9.9118,9.8189,9.7892,9.7892,9.7892,9.7372,9.6777,9.6777,9.5663,9.4325,9.3508,9.2133,9.0722,8.983,8.905,8.8716,8.931,8.8307,8.7007,8.6078,8.2957,7.8847,7.3683,7.1923,7.0722,6.9348,6.9645,6.9719,6.8902,6.9348,0.0,6.8568,6.9051,6.9756,7.0685,7.2852,7.5615,7.8996,8.3069,8.7155,9.1242,9.3879,9.6814,10.0121,10.0195,10.1124,10.2721,10.2721,10.2721,10.2721,10.2721,10.2777,10.3093,10.4616,10.5322,10.5619,10.7012,10.7606,10.7606,10.7606,10.7606,10.7606,10.7606,10.7606,10.7606,9.2201,9.448,9.6826,9.9519,10.2212,10.4607,10.6213,10.6713,10.779,11.0714,11.2599,11.4516,11.6312,11.7184,11.7904,11.8485,11.8281,11.791,11.7181,11.6198,11.5383,11.5098,11.312,11.0821,10.8004,10.3402,9.8066,9.1974,8.4739,7.9209,7.5273,7.0525,6.8606,6.9242,7.1434,7.7459,8.6382,9.289,9.7001,9.9303,10.17,10.2721,10.2721,10.2721,10.2721,10.2721,10.2721,10.2592,10.2313,10.0789,10.0195,9.9824,9.8375,9.7892,9.7892,9.7892,9.778,9.7669,9.7669,9.6926,9.5997,9.518,9.4251,9.3136,9.1613,9.1167,9.0907,9.0387,9.0053,8.9384,8.7935,8.3306,7.8959,7.6618,7.4389,7.2865,7.2568,7.2085,7.1441,7.0574,7.0016,6.9385,6.8568,6.8011,6.8345,6.9794,7.0945,7.3298,7.7324,8.1411,8.5499,8.957,9.2765,9.5997,9.9266,9.9972,10.1124,10.2721,10.2721,10.2721,10.2721,10.2721,10.3501,10.4802,10.5099,10.5991,10.7198,10.7514,10.7606,10.7606,10.7606,10.7606,10.7606,10.7606,10.7606,10.7606,9.7134,9.9365,10.1597,10.4212,10.6713,10.9406,11.2406,11.3198,11.3598,11.4011,11.5505,11.6888,11.7987,11.8409,11.8789,11.9291,11.8919,11.8509,11.8004,11.6698,11.5782,11.5711,11.3798,11.1699,10.9421,10.4787,9.9683,9.4095,8.6512,8.0812,7.6887,7.2349,7.0501,7.1264,7.5931,8.1695,8.8302,9.3988,9.7424,9.9341,10.2201,10.3093,10.2703,10.3204,10.3093,10.2721,10.2721,10.2721,10.248,10.131,10.0586,10.0084,9.8895,9.8226,9.7892,9.7892,9.7892,9.7892,9.7892,9.726,9.6406,9.5588,9.4808,9.3879,9.2653,9.2356,9.2245,9.1873,9.1428,9.0387,8.7861,8.448,8.1374,7.9293,7.7621,7.6432,7.5986,7.5243,7.4277,7.2964,7.1738,7.0512,6.9236,6.8011,6.7788,6.8976,6.9831,7.1874,7.5615,8.0111,8.4458,8.853,9.2282,9.5774,9.9081,9.9898,10.1124,10.2721,10.2721,10.2721,10.2721,10.3204,10.3799,10.4616,10.5508,10.6288,10.6975,10.7383,10.7606,10.7606,10.7606,10.7606,10.7606,10.7606,10.7606,10.7606,10.1914,10.3982,10.629,10.8598,11.1098,11.3819,11.6796,11.8718,11.9323,11.77,11.8593,11.9521,12.0088,11.9913,11.9901,12.0188,11.9495,11.8809,11.8482,11.7086,11.608,11.5707,11.42,11.2385,11.0299,10.5778,10.1203,9.654,8.8739,8.2934,7.905,7.4935,7.3573,7.4856,8.0923,8.5711,8.9646,9.5028,9.8203,9.9861,10.2796,10.3687,10.3316,10.3799,10.3613,10.3019,10.2796,10.2721,10.2592,10.2015,10.1198,10.0418,9.9601,9.8783,9.8152,9.8152,9.804,9.7892,9.7892,9.7409,9.6666,9.5848,9.5031,9.4251,9.3434,9.3099,9.2988,9.2988,9.2319,9.087,8.8084,8.6115,8.422,8.2066,8.0914,7.9999,7.9219,7.8216,7.6915,7.5057,7.3423,7.175,6.9868,6.8419,6.7825,6.8456,6.9236,7.1131,7.4426,7.8959,8.3343,8.7415,9.1353,9.5068,9.8523,9.9563,10.0901,10.2721,10.2721,10.2721,10.2703,10.3613,10.4096,10.4319,10.5805,10.6511,10.6696,10.7309,10.7606,10.7606,10.7606,10.7606,10.7606,10.7606,10.7606,10.7606,10.8801,11.0098,11.128,11.3099,11.5522,11.7785,11.9512,12.168,12.2601,12.0888,12.0682,12.0903,12.1485,12.0907,12.0622,12.1084,12.0406,11.9492,11.8596,11.8298,11.7497,11.5783,11.5412,11.3897,11.1108,10.7708,10.399,9.9931,9.2051,8.6197,8.2378,7.8204,7.7636,8.0201,8.3514,8.7544,9.211,9.6257,9.9292,10.1403,10.3316,10.4393,10.4913,10.4207,10.391,10.3799,10.3019,10.2721,10.2721,10.2592,10.209,10.118,10.0418,9.9638,9.9006,9.9006,9.8486,9.7892,9.7892,9.7855,9.7557,9.6703,9.5886,9.5068,9.4251,9.3508,9.2988,9.2988,9.2319,9.139,9.035,8.8195,8.6264,8.5298,8.3849,8.2563,8.1783,8.0297,7.8402,7.5986,7.4277,7.2345,6.9942,6.8902,6.8419,6.8493,6.9236,7.1131,7.4426,7.7844,8.1634,8.5706,8.9087,9.2765,9.6777,9.8412,10.0418,10.2721,10.2721,10.2721,10.2703,10.3613,10.4393,10.5099,10.5991,10.6789,10.7514,10.7625,10.7606,10.7606,10.7606,10.7606,10.7606,10.7606,10.7606,10.7606,11.2906,11.4407,11.5604,11.6689,11.8599,12.041,12.191,12.3215,12.3921,12.3501,12.3005,12.2595,12.2103,12.1596,12.1313,12.1191,12.0383,11.9694,11.8992,11.8014,11.7114,11.6384,11.5411,11.4009,11.2197,10.9091,10.5674,10.2311,9.5923,9.1092,8.7752,8.4136,8.3372,8.5159,8.8659,9.2024,9.525,9.8799,10.1396,10.3093,10.4802,10.5303,10.521,10.5396,10.4802,10.3984,10.3613,10.3112,10.2721,10.2721,10.2201,10.1403,10.1124,10.0492,9.9749,9.9229,9.8858,9.8523,9.804,9.7892,9.7706,9.6814,9.5997,9.518,9.4362,9.3582,9.2988,9.2988,9.2728,9.2208,9.139,9.0016,8.8604,8.7304,8.6115,8.4889,8.3641,8.2043,8.0074,7.7621,7.5429,7.3348,7.1403,7.0425,6.9942,6.9942,6.9794,7.0908,7.372,7.7435,8.1374,8.5483,8.879,9.2691,9.7334,9.8523,10.0307,10.2721,10.2721,10.3019,10.3501,10.4319,10.5396,10.6696,10.6994,10.7309,10.7606,10.7606,10.7606,10.7606,10.7606,10.7606,10.7606,10.7606,10.7606,10.7606,11.6907,11.8292,11.94,11.9808,12.1409,12.2793,12.3611,12.4215,12.4606,12.479,12.4301,12.3704,12.2916,12.2514,12.2099,12.1585,12.0777,12.0006,11.9395,11.8195,11.7296,11.6811,11.569,11.4511,11.3216,11.0611,10.7917,10.4915,10.0089,9.6124,9.3113,9.0005,8.9326,9.0813,9.3911,9.6542,9.8859,10.1394,10.3313,10.4802,10.5897,10.6213,10.5897,10.6288,10.5693,10.469,10.4393,10.3984,10.339,10.3204,10.2721,10.2201,10.1904,10.131,10.0492,9.9972,9.9452,9.8969,9.8412,9.8077,9.7743,9.7149,9.6369,9.5551,9.4734,9.3917,9.3285,9.3062,9.2988,9.2802,9.2208,9.1428,9.0462,8.9347,8.8233,8.6969,8.5335,8.3529,8.1448,7.8959,7.6692,7.4686,7.3051,7.2332,7.1874,7.1651,7.1539,7.2258,7.4017,7.777,8.162,8.5483,8.879,9.2765,9.7483,9.856,10.0307,10.2721,10.2721,10.3204,10.4022,10.5099,10.6325,10.7606,10.7606,10.7606,10.7606,10.7606,10.7606,10.7606,10.7606,10.7606,10.7606,10.7606,10.7606,10.7606,12.142,12.2216,12.2784,12.2612,12.402,12.4993,12.4594,12.4905,12.5008,12.4623,12.4213,12.401,12.4194,12.3495,12.2876,12.2693,12.1698,12.0701,11.9684,11.9395,11.8492,11.6886,11.6811,11.5892,11.411,11.2607,11.0702,10.8301,10.4499,10.1106,9.8069,9.5216,9.5186,9.7514,9.8723,10.061,10.301,10.3686,10.4913,10.6399,10.6399,10.6919,10.7514,10.6696,10.6399,10.6288,10.5508,10.521,10.5006,10.4282,10.3984,10.3799,10.3019,10.2109,10.1495,10.1495,10.0289,9.9118,9.9081,9.8523,9.7892,9.7892,9.7223,9.6369,9.5588,9.4771,9.3954,9.3136,9.2988,9.2988,9.2988,9.2282,9.1688,9.165,9.0313,8.8678,8.7007,8.4703,8.2266,7.9776,7.8067,7.6395,7.4723,7.4574,7.424,7.3423,7.4834,7.5726,7.5763,7.8922,8.2177,8.5483,8.879,9.2468,9.6591,9.8263,10.0307,10.2721,10.2721,10.3204,10.4096,10.5693,10.6789,10.7606,10.7606,10.7606,10.7606,10.7606,10.7606,10.7606,10.7606,10.7606,10.7606,10.7606,10.7606,10.7606,12.3101,12.3913,12.4392,12.4121,12.4798,12.5184,12.4806,12.4618,12.4387,12.4101,12.3917,12.3709,12.3803,12.3597,12.3314,12.3102,12.2099,12.1095,12.011,11.9289,11.8289,11.7304,11.6709,11.5887,11.469,11.3077,11.1501,10.979,10.7524,10.5092,10.2606,10.1591,10.1505,10.2194,10.3515,10.4913,10.6103,10.6418,10.7105,10.8108,10.7514,10.7402,10.7625,10.7309,10.6919,10.6399,10.6102,10.5693,10.521,10.4913,10.4505,10.3984,10.3687,10.3019,10.2183,10.1718,10.1106,10.0604,10.0084,9.9341,9.8709,9.8709,9.7669,9.6517,9.6294,9.518,9.3954,9.3174,9.2988,9.2988,9.2988,9.2765,9.2393,9.1799,9.0796,8.9347,8.7118,8.5186,8.3121,8.0617,7.9368,7.8327,7.7213,7.7138,7.7027,7.6767,7.8253,7.8662,7.7547,8.0631,8.4146,8.801,9.0202,9.3582,9.8263,9.882,10.0307,10.2721,10.3316,10.4319,10.5693,10.6677,10.7402,10.7606,10.7606,10.7606,10.7606,10.7606,10.7606,10.7606,10.7606,10.7606,10.7606,10.7606,10.7606,10.7606,12.4887,12.5301,12.5504,12.5218,12.5284,12.5313,12.4896,12.45,12.4102,12.3804,12.3594,12.3513,12.3397,12.3377,12.3397,12.3379,12.2709,12.1681,12.0401,11.9496,11.8622,11.7412,11.6892,11.6112,11.4998,11.4015,11.2591,11.0887,10.9286,10.7919,10.6492,10.6298,10.6099,10.6101,10.7292,10.8108,10.8498,10.8498,10.8888,10.9297,10.8386,10.8108,10.8108,10.768,10.7309,10.6919,10.6919,10.6492,10.6102,10.5805,10.5322,10.4802,10.4505,10.391,10.3,10.2201,10.17,10.1421,10.0901,10.0195,9.9489,9.9192,9.83,9.7372,9.674,9.5365,9.4065,9.3545,9.3211,9.2988,9.2988,9.2988,9.2691,9.1836,9.1019,8.9644,8.7155,8.5409,8.37,8.1857,8.0928,8.0371,8.0148,8.0148,8.0148,8.0148,8.1337,8.1917,8.1508,8.344,8.6301,9.009,9.2096,9.5031,9.9043,9.9712,10.0901,10.2721,10.391,10.5099,10.638,10.7198,10.7606,10.7606,10.7606,10.7606,10.7606,10.7606,10.7606,10.7606,10.7606,10.7606,10.7606,10.7606,10.7606,10.7606,12.6594,12.6399,12.6196,12.5913,12.5492,12.5106,12.4795,12.4411,12.3991,12.3594,12.3417,12.3198,12.2995,12.3012,12.3175,12.3497,12.3198,12.2282,12.0601,12.01,11.92,11.7486,11.7412,11.6706,11.5109,11.4998,11.391,11.1707,11.0312,10.9621,10.9621,10.9379,10.9285,10.9397,11.0006,11.03,11.03,11.0206,11.0189,11.0114,10.9297,10.9,10.8888,10.7978,10.768,10.768,10.7606,10.7606,10.7514,10.6677,10.638,10.6288,10.5508,10.469,10.391,10.3,10.2183,10.1607,10.1607,10.1012,10.0195,9.9452,9.9192,9.8672,9.7,9.544,9.4325,9.4214,9.3582,9.3062,9.2988,9.2988,9.2691,9.1836,9.0982,8.957,8.723,8.5483,8.4235,8.3529,8.2786,8.2637,8.3455,8.3529,8.3529,8.3529,8.431,8.5446,8.7044,8.7192,8.8641,9.1762,9.4288,9.674,9.9155,10.0715,10.2015,10.2907,10.4505,10.5693,10.6492,10.7291,10.7606,10.7606,10.7606,10.7606,10.7606,10.7606,10.7606,10.7606,10.7606,10.7606,10.7606,10.7606,10.7606,10.7606,12.8014,12.7594,12.7092,12.6293,12.5615,12.4779,12.3992,12.3516,12.3201,12.3195,12.3097,12.3111,12.2975,12.3012,12.3015,12.308,12.2909,12.2018,12.0414,12.0016,11.92,11.7486,11.7412,11.6892,11.5889,11.5295,11.411,11.2291,11.1885,11.1812,11.1812,11.1716,11.1697,11.1697,11.1917,11.1878,11.1878,11.1303,11.0986,11.0912,11.0095,10.9798,10.9686,10.8925,10.8591,10.8517,10.7792,10.7606,10.7625,10.7383,10.69,10.6399,10.6213,10.5619,10.4802,10.391,10.3093,10.2406,10.2406,10.1774,10.1198,10.1012,10.0009,9.8672,9.7,9.6294,9.5663,9.4437,9.4065,9.3731,9.3099,9.2988,9.2691,9.1836,9.0499,8.9161,8.7935,8.6338,8.5483,8.5892,8.5781,8.6004,8.6858,8.6948,8.6948,8.6948,8.7675,8.8827,9.0462,9.1167,9.2171,9.3545,9.5997,9.8189,10.0009,10.1012,10.248,10.4616,10.56,10.6492,10.7309,10.7495,10.7606,10.7606,10.7606,10.7606,10.7606,10.7606,10.7606,10.7606,10.7606,10.7606,10.7606,10.7606,10.7606,10.7606,12.8192,12.7717,12.7096,12.6506,12.5497,12.4606,12.4096,12.3422,12.3008,12.2793,12.2809,12.2788,12.2684,12.2721,12.2721,12.2721,12.2604,12.1897,12.0295,11.9974,11.92,11.7486,11.7412,11.7004,11.6186,11.5798,11.4701,11.3123,11.2695,11.2509,11.2509,11.2509,11.2509,11.2509,11.2509,11.2509,11.2509,11.1989,11.1803,11.1803,11.1006,11.0578,11.0597,10.9817,10.9223,10.8814,10.8405,10.7903,10.7606,10.7606,10.7309,10.69,10.69,10.6399,10.5693,10.521,10.4189,10.3204,10.2796,10.2387,10.2015,10.1607,10.0307,9.8858,9.7966,9.7149,9.6369,9.5477,9.4697,9.4065,9.3619,9.2914,9.2133,9.1279,8.9793,8.8455,8.7601,8.6412,8.6041,8.723,8.7378,8.7861,8.9087,8.9198,8.9198,8.9198,8.9607,9.0573,9.2208,9.3099,9.4251,9.5848,9.7557,9.9229,10.0789,10.2015,10.3501,10.521,10.5991,10.6789,10.7606,10.7606,10.7606,10.7606,10.7606,10.7606,10.7606,10.7606,10.7606,10.7606,10.7606,10.7606,10.7606,10.7606,10.7606,10.7606,12.7891,12.7415,12.689,12.6496,12.5395,12.4508,12.4283,12.3501,12.2809,12.2599,12.2578,12.2515,12.2284,12.2321,12.2321,12.2321,12.2472,12.1908,12.0291,12.0012,11.92,11.7486,11.7412,11.7078,11.6409,11.6112,11.5295,11.3792,11.2881,11.2509,11.2509,11.2509,11.2509,11.2509,11.2509,11.2509,11.2509,11.2509,11.2509,11.2398,11.1823,11.1526,11.1395,11.0597,10.9891,10.9203,10.9111,10.8498,10.7792,10.7792,10.768,10.7606,10.7606,10.7086,10.6622,10.638,10.5377,10.4096,10.3204,10.2796,10.248,10.1718,10.0492,9.9415,9.9303,9.8189,9.7112,9.6852,9.57,9.4622,9.4251,9.3025,9.1725,9.0685,8.9236,8.801,8.7267,8.6486,8.6635,8.8418,8.8753,8.9421,9.0907,9.1167,9.1242,9.1242,9.1242,9.191,9.3471,9.4325,9.5848,9.8189,9.8932,10.0121,10.1904,10.339,10.4616,10.5396,10.6213,10.69,10.7606,10.7606,10.7606,10.7606,10.7606,10.7606,10.7606,10.7606,10.7606,10.7606,10.7606,10.7606,10.7606,10.7606,10.768,10.7792,12.8925,12.8376,12.7489,12.6119,12.5395,12.4499,12.312,12.2594,12.2408,12.2402,12.229,12.2306,12.2321,12.2321,12.2321,12.2321,12.2306,12.1695,12.0097,11.989,11.92,11.7486,11.7412,11.7301,11.7189,11.591,11.4701,11.3792,11.2881,11.2509,11.2509,11.2509,11.2509,11.2509,11.2509,11.2509,11.2509,11.2509,11.2509,11.2509,11.2418,11.2286,11.2212,11.1395,11.0986,11.08,11.0189,10.9408,10.8703,10.8703,10.82,10.7606,10.7606,10.7495,10.7291,10.6603,10.6195,10.5693,10.4207,10.3316,10.248,10.1718,10.131,10.0883,10.0307,9.9898,9.9341,9.7966,9.7483,9.6703,9.4585,9.3991,9.3099,9.087,8.9719,8.905,8.8938,8.8195,8.8567,9.087,9.1799,9.2579,9.3545,9.4251,9.4622,9.4622,9.4622,9.5068,9.5997,9.6852,9.8115,9.9861,10.0009,10.1198,10.3613,10.4505,10.5396,10.6195,10.7012,10.7514,10.7606,10.7606,10.7606,10.7606,10.7606,10.7606,10.7606,10.7606,10.7606,10.7606,10.7606,10.7606,10.7606,10.7606,10.8108,10.8703,12.8595,12.8188,12.7623,12.6913,12.5703,12.4704,12.3901,12.2885,12.2321,12.2321,12.2321,12.2321,12.2321,12.2321,12.2321,12.2321,12.2321,12.1615,12.0018,11.9906,11.92,11.7486,11.7412,11.7412,11.7412,11.6186,11.5315,11.4403,11.3586,11.3012,11.2509,11.2509,11.2509,11.2509,11.2509,11.2509,11.2509,11.2509,11.2509,11.2509,11.2509,11.2509,11.2509,11.2101,11.1692,11.1303,11.0894,11.0206,10.95,10.95,10.9,10.8294,10.8294,10.7997,10.7495,10.7217,10.638,10.5508,10.4319,10.3687,10.3204,10.2387,10.1774,10.1421,10.1012,10.0604,10.0084,9.9341,9.8486,9.7557,9.6406,9.4734,9.3174,9.2022,9.0387,8.9459,8.9904,8.9236,8.9644,9.2096,9.2765,9.3471,9.4734,9.518,9.5403,9.5403,9.5811,9.6406,9.726,9.8077,9.9489,10.1477,10.2015,10.3093,10.4616,10.5377,10.6009,10.6399,10.7198,10.7792,10.8294,10.8294,10.8498,10.8906,10.8906,10.8906,10.8906,10.8906,10.8906,10.8906,10.8906,10.8906,10.8906,10.8906,10.9223,10.95,12.8096,12.7814,12.7419,12.7009,12.5776,12.4699,12.4291,12.3102,12.2321,12.2321,12.2321,12.2321,12.2321,12.2321,12.2321,12.2321,12.2321,12.1615,12.0018,11.9906,11.92,11.7486,11.7412,11.7412,11.7412,11.6595,11.5889,11.5315,11.4312,11.3495,11.2806,11.2583,11.2509,11.2509,11.2509,11.2509,11.2509,11.2509,11.2509,11.2509,11.2509,11.2509,11.2509,11.2509,11.2101,11.16,11.16,11.1117,11.0411,11.0411,10.9798,10.9111,10.9,10.8386,10.7922,10.7699,10.6677,10.5619,10.4802,10.4393,10.4096,10.3409,10.2796,10.2313,10.209,10.1607,10.1012,10.0715,9.9601,9.8635,9.8263,9.596,9.3991,9.3619,9.1799,9.0647,9.1279,9.0833,9.1205,9.3322,9.3879,9.4622,9.5848,9.6331,9.6554,9.6554,9.7112,9.7743,9.8412,9.9415,10.1087,10.3501,10.4022,10.469,10.5508,10.6102,10.6622,10.6994,10.7625,10.8405,10.9185,10.9185,10.952,11.0114,11.0114,11.0114,11.0114,11.0114,11.0114,11.0114,11.0114,11.0114,11.0114,11.0114,11.0206,11.0411,12.7625,12.7405,12.6803,12.5316,12.4885,12.4291,12.2693,12.2396,12.2321,12.2321,12.2321,12.2321,12.2321,12.2321,12.2321,12.2321,12.2321,12.1615,12.0018,11.9906,11.92,11.7486,11.7412,11.7412,11.7412,11.6595,11.6207,11.6075,11.4609,11.3792,11.3718,11.2881,11.2509,11.2509,11.2509,11.2509,11.2509,11.2509,11.2509,11.2509,11.2509,11.2509,11.2509,11.2509,11.2509,11.2398,11.2398,11.1878,11.1209,11.1209,11.0709,10.9891,10.9111,10.8888,10.8609,10.7792,10.7495,10.7198,10.638,10.5693,10.5099,10.5006,10.4987,10.469,10.3984,10.3799,10.3316,10.1718,10.131,10.0789,9.9303,9.8189,9.7037,9.5477,9.4437,9.3842,9.3917,9.3879,9.4177,9.5105,9.6591,9.7595,9.7706,9.9043,9.9935,9.9935,10.0009,10.0084,10.0121,10.1607,10.3613,10.6009,10.5508,10.5508,10.6325,10.6399,10.7217,10.8703,10.8814,10.9223,11.0003,11.0003,10.9983,11.0114,11.0114,11.0114,11.0114,11.0114,11.0114,11.0114,11.0114,11.0114,11.0114,11.0114,11.0597,11.1209,12.6728,12.649,12.6089,12.4997,12.4402,12.3808,12.308,12.2597,12.2321,12.2321,12.2321,12.2321,12.2321,12.2321,12.2321,12.2321,12.2321,12.1615,12.0018,11.9906,11.92,11.7486,11.7412,11.7412,11.7412,11.7078,11.6706,11.6186,11.5592,11.4795,11.3792,11.3495,11.2992,11.2509,11.2509,11.2509,11.2509,11.2509,11.2509,11.2509,11.2509,11.2509,11.2509,11.2509,11.2509,11.2509,11.2509,11.2286,11.1989,11.1989,11.1506,11.082,11.0523,10.9983,10.952,10.8609,10.8405,10.82,10.7402,10.6622,10.5786,10.5322,10.521,10.5099,10.4802,10.4393,10.3799,10.3204,10.2201,10.131,10.0715,9.9526,9.8263,9.7112,9.6257,9.5514,9.4994,9.5365,9.5997,9.6852,9.7966,9.882,9.9341,9.9935,10.0307,10.0307,10.0789,10.131,10.1793,10.378,10.5377,10.6399,10.7105,10.7402,10.7086,10.7699,10.8294,10.8888,10.9408,11.0114,11.08,11.08,11.1098,11.158,11.158,11.158,11.158,11.158,11.158,11.158,11.158,11.158,11.158,11.158,11.1803,11.1989,12.568,12.5628,12.5405,12.4492,12.3919,12.3377,12.3213,12.2693,12.2321,12.2321,12.2321,12.2321,12.2321,12.2321,12.2321,12.2321,12.2321,12.1615,12.0018,11.9402,11.8585,11.7507,11.7412,11.7412,11.7412,11.7412,11.7115,11.6595,11.6298,11.5481,11.4201,11.3904,11.3289,11.2509,11.2509,11.2509,11.2509,11.2509,11.2509,11.2509,11.2509,11.2509,11.2509,11.2509,11.2509,11.2509,11.2509,11.2509,11.2509,11.2509,11.2101,11.158,11.1395,11.0689,11.0003,10.9389,10.9297,10.9092,10.8498,10.7997,10.7291,10.6195,10.5991,10.5916,10.5619,10.5099,10.469,10.4393,10.3501,10.261,10.2313,10.1198,9.9972,9.9155,9.8338,9.7557,9.7037,9.7409,9.7966,9.8598,9.9378,10.0084,10.0604,10.1198,10.1495,10.1495,10.2201,10.3019,10.378,10.5508,10.6603,10.7217,10.8294,10.8703,10.8405,10.9,10.9408,10.9706,11.0206,11.0875,11.1692,11.1692,11.1989,11.2509,11.2509,11.2509,11.2509,11.2509,11.2509,11.2509,11.2509,11.2509,11.2509,11.2509,11.2509,11.2509,12.4811,12.4811,12.4514,12.36,12.3488,12.3191,12.2374,12.2321,12.2321,12.2321,12.2321,12.2321,12.2321,12.2321,12.2321,12.2321,12.2321,12.1615,12.0018,11.8325,11.7412,11.7412,11.7412,11.7412,11.7412,11.7412,11.7412,11.7412,11.6595,11.5798,11.5018,11.4201,11.3289,11.2509,11.2509,11.2509,11.2509,11.2509,11.2509,11.2509,11.2509,11.2509,11.2509,11.2509,11.2509,11.2509,11.2509,11.2509,11.2509,11.2509,11.2509,11.2418,11.16,11.082,11.0095,11.0114,11.0114,11.0114,11.0114,11.0114,10.9706,10.7978,10.7606,10.7383,10.6603,10.6399,10.6213,10.5396,10.521,10.4987,10.4207,10.3316,10.2498,10.1718,10.0789,10.0307,10.0307,10.0307,10.0307,10.0307,10.0994,10.1477,10.1477,10.3019,10.3984,10.3984,10.4802,10.5619,10.6399,10.6399,10.7217,10.8814,10.8888,10.9297,11.0114,11.0114,11.0503,11.1283,11.1283,11.1692,11.2509,11.2509,11.2509,11.2509,11.2509,11.2509,11.2509,11.2509,11.2509,11.2509,11.2509,11.2509,11.2509,11.2509,11.2509,11.2509,12.4009,12.3919,12.36,12.2783,12.2693,12.2619,12.23,12.2321,12.2321,12.2321,12.2321,12.2321,12.2321,12.2321,12.2321,12.2321,12.2321,12.1615,12.0018,11.8325,11.7412,11.7412,11.7412,11.7412,11.7412,11.7412,11.7412,11.7412,11.7189,11.6298,11.5018,11.4795,11.3904,11.2509,11.2509,11.2509,11.2509,11.2509,11.2509,11.2509,11.2509,11.2509,11.2509,11.2509,11.2509,11.2509,11.2509,11.2509,11.2509,11.2509,11.2509,11.2509,11.2212,11.1989,11.1712,11.1098,11.0912,11.08,11.03,11.0114,11.0003,10.952,10.8906,10.8386,10.822,10.7198,10.6306,10.6102,10.5619,10.5099,10.4913,10.4597,10.4207,10.339,10.3093,10.2721,10.209,10.2498,10.2907,10.2907,10.3613,10.4096,10.4096,10.4486,10.4802,10.4802,10.5619,10.6083,10.6399,10.7514,10.8405,10.8888,11.0003,11.0709,11.0912,11.0912,11.1117,11.1283,11.1897,11.2306,11.2509,11.2509,11.2509,11.2509,11.2509,11.2509,11.2509,11.2509,11.2509,11.2509,11.2509,11.2509,11.2509,11.2509,11.2509,11.2509,12.308,12.3005,12.2916,12.2396,12.2321,12.2321,12.2321,12.2321,12.2321,12.2321,12.2321,12.2321,12.2321,12.2321,12.2321,12.2321,12.1705,12.0888,12.0018,11.8325,11.7412,11.7412,11.7412,11.7412,11.7412,11.7412,11.7412,11.7412,11.7412,11.6706,11.5501,11.5109,11.4312,11.2992,11.2715,11.2509,11.2509,11.2509,11.2509,11.2509,11.2509,11.2509,11.2509,11.2509,11.2509,11.2509,11.2509,11.2509,11.2509,11.2509,11.2509,11.2509,11.2509,11.2509,11.2398,11.1878,11.1803,11.1712,11.1192,11.0986,11.0986,11.0986,11.0206,10.9297,10.9,10.8108,10.7291,10.69,10.6511,10.6102,10.5675,10.5693,10.5396,10.4616,10.4505,10.4319,10.3799,10.4077,10.4505,10.4505,10.4913,10.521,10.521,10.5508,10.5805,10.6083,10.6919,10.7402,10.7402,10.8703,10.952,10.9798,11.082,11.1489,11.1803,11.1803,11.1803,11.1803,11.2306,11.2509,11.2509,11.2509,11.2509,11.2509,11.2509,11.2509,11.2509,11.2509,11.2509,11.2509,11.2509,11.2509,11.2509,11.2509,11.2509,11.2509,12.2321,12.2321,12.2321,12.2321,12.2321,12.2321,12.2321,12.2321,12.2321,12.2321,12.2321,12.2321,12.2321,12.2188,12.221,12.221,12.0724,11.9795,11.9795,11.8287,11.7412,11.7412,11.7412,11.7412,11.7412,11.7412,11.7412,11.7412,11.7412,11.7004,11.6207,11.5427,11.4609,11.3792,11.2881,11.2509,11.2509,11.2509,11.2509,11.2509,11.2509,11.2509,11.2509,11.2509,11.2509,11.2509,11.2509,11.2509,11.2509,11.2509,11.2509,11.2509,11.2509,11.2509,11.2509,11.2509,11.2509,11.2509,11.2509,11.2509,11.2509,11.2509,11.1395,11.0114,10.9297,10.9111,10.8814,10.7997,10.7811,10.7514,10.6808,10.6622,10.6288,10.5508,10.5396,10.5396,10.5396,10.5396,10.5396,10.5396,10.5396,10.5377,10.5508,10.6288,10.7012,10.7811,10.8591,10.9,10.9,10.9817,11.0503,11.1303,11.1415,11.1823,11.2509,11.2509,11.2509,11.2509,11.2509,11.2509,11.2509,11.2509,11.2509,11.2509,11.2509,11.2509,11.2509,11.2509,11.2509,11.2509,11.2509,11.2509,11.2509,11.2509,11.2509,11.2509,12.2321,12.2321,12.2321,12.2321,12.2321,12.2321,12.2321,12.2321,12.2321,12.2321,12.2321,12.2321,12.2321,12.1705,12.1392,12.1392,11.9811,11.8898,11.8898,11.799,11.7412,11.7412,11.7412,11.7412,11.7412,11.7412,11.7412,11.7412,11.7412,11.7004,11.6207,11.5427,11.4609,11.3792,11.2881,11.2509,11.2509,11.2509,11.2509,11.2509,11.2509,11.2509,11.2509,11.2509,11.2509,11.2509,11.2509,11.2509,11.2509,11.2509,11.2509,11.2509,11.2509,11.2509,11.2509,11.2509,11.2509,11.2509,11.2509,11.2509,11.2509,11.2509,11.2212,11.1803,11.1006,11.03,10.9817,10.9594,10.9111,10.8591,10.8405,10.7811,10.7291,10.7086,10.7105,10.7105,10.7105,10.7105,10.7105,10.7105,10.7105,10.7309,10.7997,10.8814,10.9408,10.95,10.9686,10.9798,10.9798,11.0578,11.1098,11.1283,11.1878,11.2286,11.2509,11.2509,11.2509,11.2509,11.2509,11.2509,11.2509,11.2509,11.2509,11.2509,11.2509,11.2509,11.2509,11.2509,11.2509,11.2509,11.2509,11.2509,11.2509,11.2509,11.2509,11.2509,12.2321,12.2321,12.2321,12.2321,12.2321,12.2321,12.2321,12.2321,12.2321,12.2321,12.2024,12.1705,12.1705,12.1021,12.0501,12.0501,11.9306,11.8601,11.8601,11.7784,11.7412,11.7412,11.7412,11.7412,11.7412,11.7412,11.7412,11.7412,11.7412,11.7189,11.6801,11.5889,11.5295,11.4907,11.3718,11.3103,11.3123,11.2715,11.2509,11.2509,11.2509,11.2509,11.2509,11.2509,11.2509,11.2509,11.2509,11.2509,11.2509,11.2509,11.2509,11.2509,11.2509,11.2509,11.2509,11.2509,11.2509,11.2509,11.2509,11.2509,11.2509,11.2509,11.2509,11.2286,11.1526,11.1006,11.0597,11.0189,10.9817,10.952,10.952,10.9111,10.8814,10.8814,10.8814,10.8814,10.8814,10.8814,10.8814,10.8814,10.8814,10.9,10.9389,10.9891,11.0114,11.0114,11.0523,11.0709,11.0709,11.1395,11.1897,11.1897,11.2286,11.2509,11.2509,11.2509,11.2509,11.2509,11.2509,11.2509,11.2509,11.2509,11.2509,11.2509,11.2509,11.2509,11.2509,11.2509,11.2509,11.2509,11.2509,11.2509,11.2509,11.2509,11.2509,11.2509,12.2321,12.2321,12.2321,12.2321,12.2321,12.2321,12.2321,12.2321,12.2321,12.2077,12.1504,12.0999,12.0909,12.0203,11.9588,11.9497,11.8807,11.8378,11.8378,11.7784,11.7412,11.7412,11.7412,11.7412,11.7412,11.7412,11.7412,11.7412,11.7412,11.7412,11.7375,11.6595,11.6186,11.6112,11.4721,11.3904,11.3792,11.2992,11.2583,11.2509,11.2509,11.2509,11.2509,11.2509,11.2509,11.2509,11.2509,11.2509,11.2509,11.2509,11.2509,11.2509,11.2509,11.2509,11.2509,11.2509,11.2509,11.2509,11.2509,11.2509,11.2509,11.2509,11.2509,11.2286,11.1712,11.1506,11.1283,11.0578,11.0411,11.03,11.03,11.0189,11.0114,11.0114,11.0114,11.0114,11.0114,11.0114,11.0114,11.0114,11.0206,11.03,11.03,11.0392,11.0503,11.0503,11.1098,11.1506,11.1506,11.2101,11.2509,11.2509,11.2509,11.2509,11.2509,11.2509,11.2509,11.2509,11.2509,11.2509,11.2509,11.2509,11.2509,11.2509,11.2509,11.2509,11.2509,11.2509,11.2509,11.2509,11.2509,11.2509,11.2509,11.2509,11.2509,11.2509,12.2321,12.2321,12.2321,12.2321,12.2321,12.2321,12.2321,12.2321,12.2098,12.1392,12.1207,12.0798,12.0092,11.929,11.8489,11.7804,11.7598,11.7598,11.7598,11.7486,11.7412,11.7412,11.7412,11.7412,11.7412,11.7412,11.7412,11.7412,11.7412,11.7412,11.7375,11.6595,11.6186,11.6207,11.5183,11.4498,11.3792,11.3718,11.3198,11.2509,11.2509,11.2509,11.2509,11.2509,11.2509,11.2509,11.2509,11.2509,11.2509,11.2509,11.2509,11.2509,11.2509,11.2509,11.2509,11.2509,11.2509,11.2509,11.2509,11.2509,11.2509,11.2509,11.2509,11.2509,11.2418,11.2286,11.2286,11.2175,11.158,11.1098,11.1098,11.0597,11.0114,11.0114,11.0114,11.0114,11.0114,11.0114,11.0114,11.0114,11.0709,11.1098,11.1098,11.1803,11.2175,11.2175,11.2286,11.2286,11.2286,11.2398,11.2509,11.2509,11.2509,11.2509,11.2509,11.2509,11.2509,11.2509,11.2509,11.2509,11.2509,11.2509,11.2509,11.2509,11.2509,11.2509,11.2509,11.2509,11.2509,11.2509,11.2509,11.2509,11.2509,11.2509,11.2509,11.2509,12.2321,12.2321,12.2321,12.2321,12.2321,12.2321,12.2321,12.1913,12.1504,12.1074,12.0294,11.9588,11.9216,11.8378,11.7784,11.7412,11.7412,11.7412,11.7412,11.7412,11.7412,11.7412,11.7412,11.7412,11.7412,11.7412,11.7412,11.7412,11.7412,11.7412,11.7412,11.7004,11.6892,11.6781,11.6001,11.5501,11.5109,11.4721,11.4015,11.3178,11.3178,11.2881,11.2509,11.2509,11.2509,11.2509,11.2509,11.2509,11.2509,11.2509,11.2509,11.2509,11.2509,11.2509,11.2509,11.2509,11.2509,11.2509,11.2509,11.2509,11.2509,11.2509,11.2509,11.2509,11.2509,11.2509,11.2509,11.2509,11.2212,11.2009,11.2009,11.1692,11.1395,11.1395,11.1395,11.1395,11.1395,11.1395,11.1395,11.1395,11.1823,11.2009,11.2009,11.2286,11.2509,11.2509,11.2509,11.2509,11.2509,11.2509,11.2509,11.2509,11.2509,11.2509,11.2509,11.2509,11.2509,11.2509,11.2509,11.2509,11.2509,11.2509,11.2509,11.2509,11.2509,11.2509,11.2509,11.2509,11.2509,11.2509,11.2509,11.2509,11.2509,11.2509,11.2509,11.2509]}]]